[[{"header":{"parameterUnit":"m.s-1","parameterCategory":1,"la1":30.6,"la2":29.2853,"lo1":-89.7004,"lo2":-87.6739,"dy":0.0162,"dx":0.0183,"nx":112,"ny":82,"refTime":"2026-05-07T12:00:00:Z","depth":0,"parameterNumber":2,"parameterNumberName":"U-component_of_WINDS"},"data":[0.0,0.0,0.0,0.0,0.0,0.0,0.0,0.0,0.0,0.0,0.0,0.0,0.0,0.0,0.0,0.0,0.0,0.0,0.0,0.0,0.0,0.0,0.0,0.0,0.0,0.0,0.0,0.0,0.0,0.0,0.0,0.0,0.0,0.0,0.0,0.0,0.0,0.0,0.0,0.0,0.0,0.0,0.0,0.0,0.0,0.0,0.0,0.0,0.0,0.0,0.0,0.0,0.0,0.0,0.0,0.0,0.0,0.0,0.0,0.0,0.0,0.0,0.0,0.0,0.0,0.0,0.0,0.0,0.0,0.0,0.0,0.0,0.0,0.0,0.0,0.0,0.0,0.0,0.0,0.0,0.0,0.0,0.0,0.0,0.0,0.0,0.0,0.0,0.0,0.0,4.845,5.255,5.7849,6.048,5.8932,5.7192,5.4445,5.0345,0.0,0.0,0.0,0.0,0.0,0.0,0.0,0.0,0.0,0.0,0.0,0.0,0.0,0.0,0.0,0.0,0.0,0.0,0.0,0.0,0.0,0.0,0.0,0.0,0.0,0.0,0.0,0.0,0.0,0.0,0.0,0.0,0.0,0.0,0.0,0.0,0.0,0.0,0.0,0.0,0.0,0.0,0.0,0.0,0.0,0.0,0.0,0.0,0.0,0.0,0.0,0.0,0.0,0.0,0.0,0.0,0.0,0.0,0.0,0.0,0.0,0.0,0.0,0.0,0.0,0.0,0.0,0.0,0.0,0.0,0.0,0.0,0.0,0.0,0.0,0.0,0.0,0.0,0.0,0.0,0.0,0.0,0.0,0.0,0.0,0.0,0.0,0.0,0.0,0.0,0.0,0.0,0.0,0.0,0.0,0.0,0.0,0.0,0.0,0.0,0.0,0.0,0.0,0.0,4.8701,5.578,5.9281,6.0712,5.9783,5.8101,5.5586,5.2028,0.0,0.0,0.0,0.0,0.0,0.0,0.0,0.0,0.0,0.0,0.0,0.0,0.0,0.0,0.0,0.0,0.0,0.0,0.0,0.0,0.0,0.0,0.0,0.0,0.0,0.0,0.0,0.0,0.0,0.0,0.0,0.0,0.0,0.0,0.0,0.0,0.0,0.0,0.0,0.0,0.0,0.0,0.0,0.0,0.0,0.0,0.0,0.0,0.0,0.0,0.0,0.0,0.0,0.0,0.0,0.0,0.0,0.0,0.0,0.0,0.0,0.0,0.0,0.0,0.0,0.0,0.0,0.0,0.0,0.0,0.0,0.0,0.0,0.0,0.0,0.0,0.0,0.0,0.0,0.0,0.0,0.0,0.0,0.0,0.0,0.0,0.0,0.0,0.0,0.0,0.0,0.0,0.0,0.0,0.0,0.0,0.0,0.0,0.0,0.0,0.0,0.0,0.0,4.7792,5.255,5.7482,5.9861,6.0576,5.93,5.7598,5.4948,5.108,4.6109,0.0,0.0,0.0,0.0,0.0,0.0,0.0,0.0,0.0,0.0,0.0,0.0,0.0,0.0,0.0,0.0,0.0,0.0,0.0,0.0,0.0,0.0,0.0,0.0,0.0,0.0,0.0,0.0,0.0,0.0,0.0,0.0,0.0,0.0,0.0,0.0,0.0,0.0,0.0,0.0,0.0,0.0,0.0,0.0,0.0,0.0,0.0,0.0,0.0,0.0,0.0,0.0,0.0,0.0,0.0,0.0,0.0,0.0,0.0,0.0,0.0,0.0,0.0,0.0,0.0,0.0,0.0,0.0,0.0,0.0,0.0,0.0,0.0,0.0,0.0,0.0,0.0,0.0,0.0,0.0,0.0,0.0,0.0,0.0,0.0,0.0,0.0,0.0,0.0,0.0,0.0,0.0,0.0,0.0,0.0,0.0,0.0,0.0,0.0,0.0,0.0,0.0,5.2318,5.5993,5.8352,6.0093,6.0422,5.8739,5.6824,5.3904,4.9668,4.52,0.0,0.0,0.0,0.0,0.0,0.0,0.0,0.0,0.0,0.0,0.0,0.0,0.0,0.0,0.0,0.0,0.0,0.0,0.0,0.0,0.0,0.0,0.0,0.0,0.0,0.0,0.0,0.0,0.0,0.0,0.0,0.0,0.0,0.0,0.0,0.0,0.0,0.0,0.0,0.0,0.0,0.0,0.0,0.0,0.0,0.0,0.0,0.0,0.0,0.0,0.0,0.0,0.0,0.0,0.0,0.0,0.0,0.0,0.0,0.0,0.0,0.0,0.0,0.0,0.0,0.0,0.0,0.0,0.0,0.0,0.0,0.0,0.0,0.0,0.0,0.0,0.0,0.0,0.0,0.0,0.0,0.0,0.0,0.0,0.0,0.0,0.0,0.0,0.0,0.0,0.0,0.0,0.0,0.0,0.0,0.0,0.0,0.0,0.0,0.0,0.0,0.0,5.2801,5.6611,5.841,6.0093,6.0422,5.8739,5.6321,5.3053,4.8759,4.375,0.0,0.0,0.0,0.0,0.0,0.0,0.0,0.0,0.0,0.0,0.0,0.0,0.0,0.0,0.0,0.0,0.0,0.0,0.0,0.0,0.0,0.0,0.0,0.0,0.0,0.0,0.0,0.0,0.0,0.0,0.0,0.0,0.0,0.0,0.0,0.0,0.0,0.0,0.0,0.0,0.0,0.0,0.0,0.0,0.0,0.0,0.0,0.0,0.0,0.0,0.0,0.0,0.0,0.0,0.0,0.0,0.0,0.0,0.0,0.0,0.0,0.0,0.0,0.0,0.0,0.0,0.0,0.0,0.0,0.0,0.0,0.0,0.0,0.0,0.0,0.0,0.0,0.0,0.0,0.0,0.0,0.0,0.0,0.0,0.0,0.0,0.0,0.0,0.0,0.0,0.0,0.0,0.0,0.0,0.0,0.0,0.0,0.0,0.0,0.0,0.0,0.0,5.2957,5.6772,0.0,6.0201,6.0317,5.8051,5.5513,5.2221,4.792,0.0,0.0,0.0,0.0,0.0,0.0,0.0,0.0,0.0,0.0,0.0,0.0,0.0,0.0,0.0,0.0,0.0,0.0,0.0,0.0,0.0,0.0,0.0,0.0,0.0,0.0,0.0,0.0,0.0,0.0,0.0,0.0,0.0,0.0,0.0,0.0,0.0,0.0,0.0,0.0,0.0,0.0,0.0,0.0,0.0,0.0,0.0,0.0,0.0,0.0,0.0,0.0,0.0,0.0,0.0,0.0,0.0,0.0,0.0,0.0,0.0,0.0,0.0,0.0,0.0,0.0,0.0,0.0,0.0,0.0,0.0,0.0,0.0,0.0,0.0,0.0,0.0,0.0,0.0,0.0,0.0,0.0,0.0,0.0,0.0,0.0,0.0,0.0,0.0,0.0,0.0,0.0,0.0,0.0,0.0,0.0,0.0,0.0,0.0,0.0,0.0,0.0,4.7805,5.302,5.6839,0.0,6.0018,5.9843,5.7246,5.4435,5.0984,4.6681,0.0,0.0,0.0,0.0,0.0,0.0,0.0,0.0,0.0,0.0,0.0,0.0,0.0,0.0,0.0,0.0,0.0,0.0,0.0,0.0,0.0,0.0,0.0,0.0,0.0,0.0,0.0,0.0,0.0,0.0,0.0,0.0,0.0,0.0,0.0,0.0,0.0,0.0,0.0,0.0,0.0,0.0,0.0,0.0,0.0,0.0,0.0,0.0,0.0,0.0,0.0,0.0,0.0,0.0,0.0,0.0,0.0,0.0,0.0,0.0,0.0,0.0,0.0,0.0,0.0,0.0,0.0,0.0,0.0,0.0,0.0,0.0,0.0,0.0,0.0,0.0,0.0,0.0,0.0,0.0,0.0,0.0,0.0,0.0,0.0,0.0,0.0,0.0,0.0,0.0,0.0,0.0,0.0,0.0,0.0,0.0,0.0,0.0,0.0,0.0,0.0,0.0,4.7727,5.3,5.6839,5.8525,5.9475,5.8971,5.6412,5.3078,4.9298,0.0,0.0,0.0,0.0,0.0,0.0,0.0,0.0,0.0,0.0,0.0,0.0,0.0,0.0,0.0,0.0,0.0,0.0,0.0,0.0,0.0,0.0,0.0,0.0,0.0,0.0,0.0,0.0,0.0,0.0,0.0,0.0,0.0,0.0,0.0,0.0,0.0,0.0,0.0,0.0,0.0,0.0,0.0,0.0,0.0,0.0,0.0,0.0,0.0,0.0,0.0,0.0,0.0,0.0,0.0,0.0,0.0,0.0,0.0,0.0,0.0,0.0,0.0,0.0,0.0,0.0,0.0,0.0,0.0,0.0,0.0,0.0,0.0,0.0,0.0,0.0,0.0,0.0,0.0,0.0,0.0,0.0,0.0,0.0,0.0,0.0,0.0,0.0,0.0,0.0,0.0,0.0,0.0,0.0,0.0,0.0,0.0,0.0,0.0,0.0,0.0,0.0,0.0,4.6973,5.2712,5.6906,5.8595,5.9546,5.9041,5.6498,5.4226,5.0848,4.5936,0.0,0.0,0.0,0.0,0.0,0.0,0.0,0.0,0.0,0.0,0.0,0.0,0.0,0.0,0.0,0.0,0.0,0.0,0.0,0.0,0.0,0.0,0.0,0.0,0.0,0.0,0.0,0.0,0.0,0.0,0.0,0.0,0.0,0.0,0.0,0.0,0.0,0.0,0.0,0.0,0.0,0.0,0.0,0.0,0.0,0.0,0.0,0.0,0.0,0.0,0.0,0.0,0.0,0.0,0.0,0.0,0.0,0.0,0.0,0.0,0.0,0.0,0.0,0.0,0.0,0.0,0.0,0.0,0.0,0.0,0.0,0.0,0.0,0.0,0.0,0.0,0.0,0.0,0.0,0.0,0.0,0.0,0.0,0.0,0.0,0.0,0.0,0.0,0.0,0.0,0.0,0.0,0.0,0.0,0.0,0.0,0.0,0.0,0.0,0.0,0.0,0.0,4.6599,5.2271,5.6427,5.8137,5.8797,5.8331,5.6466,5.4368,5.128,4.6793,0.0,0.0,0.0,0.0,0.0,0.0,0.0,0.0,0.0,0.0,0.0,0.0,0.0,0.0,0.0,0.0,0.0,0.0,0.0,0.0,0.0,0.0,0.0,0.0,0.0,0.0,0.0,0.0,0.0,0.0,0.0,0.0,0.0,0.0,0.0,0.0,0.0,0.0,0.0,0.0,0.0,0.0,0.0,0.0,0.0,0.0,0.0,0.0,0.0,0.0,0.0,0.0,0.0,0.0,0.0,0.0,0.0,0.0,0.0,0.0,0.0,0.0,0.0,0.0,0.0,0.0,0.0,0.0,0.0,0.0,0.0,0.0,0.0,0.0,0.0,0.0,0.0,0.0,0.0,0.0,0.0,0.0,0.0,0.0,0.0,0.0,0.0,0.0,0.0,0.0,0.0,0.0,0.0,0.0,0.0,0.0,0.0,0.0,0.0,0.0,0.0,0.0,4.6434,5.1766,5.567,5.7412,5.7606,5.7243,5.6382,5.398,5.1066,4.7658,0.0,0.0,0.0,0.0,0.0,0.0,0.0,0.0,0.0,0.0,0.0,0.0,0.0,0.0,0.0,0.0,0.0,0.0,0.0,0.0,0.0,0.0,0.0,0.0,0.0,0.0,0.0,0.0,0.0,0.0,0.0,0.0,0.0,0.0,0.0,0.0,0.0,0.0,0.0,0.0,0.0,0.0,0.0,0.0,0.0,0.0,0.0,0.0,0.0,0.0,0.0,0.0,0.0,0.0,0.0,0.0,0.0,0.0,0.0,0.0,3.7355,0.0,0.0,0.0,0.0,0.0,0.0,0.0,0.0,0.0,0.0,0.0,0.0,0.0,0.0,0.0,0.0,0.0,0.0,0.0,0.0,0.0,0.0,0.0,0.0,0.0,0.0,0.0,0.0,0.0,0.0,0.0,0.0,0.0,0.0,0.0,0.0,0.0,0.0,0.0,0.0,0.0,4.5667,5.1422,5.5668,5.7417,5.7586,5.7256,5.6368,5.458,5.2044,4.8633,4.4208,0.0,0.0,0.0,0.0,0.0,0.0,0.0,0.0,0.0,0.0,0.0,0.0,0.0,0.0,0.0,0.0,0.0,0.0,0.0,0.0,0.0,0.0,0.0,0.0,0.0,0.0,0.0,0.0,0.0,0.0,0.0,0.0,0.0,0.0,0.0,0.0,0.0,0.0,0.0,0.0,0.0,0.0,0.0,0.0,0.0,0.0,0.0,0.0,0.0,0.0,0.0,0.0,0.0,0.0,0.0,0.0,0.0,0.0,0.0,0.0,3.9723,0.0,0.0,0.0,0.0,0.0,0.0,0.0,0.0,0.0,0.0,0.0,0.0,0.0,0.0,0.0,0.0,0.0,0.0,0.0,0.0,0.0,0.0,0.0,0.0,0.0,0.0,0.0,0.0,0.0,0.0,0.0,0.0,0.0,0.0,0.0,0.0,0.0,0.0,0.0,0.0,4.6013,5.122,5.5089,5.6788,5.6977,5.679,5.6341,5.4758,5.2523,4.9517,4.5698,0.0,0.0,0.0,0.0,0.0,0.0,0.0,0.0,0.0,0.0,0.0,0.0,0.0,0.0,0.0,0.0,0.0,0.0,0.0,0.0,0.0,0.0,0.0,0.0,0.0,0.0,0.0,0.0,0.0,0.0,0.0,0.0,0.0,0.0,0.0,0.0,0.0,0.0,0.0,0.0,0.0,0.0,0.0,0.0,0.0,0.0,0.0,0.0,0.0,0.0,0.0,0.0,0.0,4.728,4.8075,4.9375,4.8657,4.9193,5.0506,4.7012,4.476,4.3451,4.2257,0.0,0.0,0.0,0.0,0.0,0.0,0.0,0.0,0.0,0.0,0.0,0.0,0.0,0.0,0.0,0.0,0.0,0.0,0.0,0.0,0.0,0.0,0.0,0.0,4.4812,4.3836,0.0,0.0,0.0,0.0,0.0,0.0,0.0,0.0,0.0,0.0,0.0,0.0,4.6894,5.1249,5.446,5.615,5.6309,5.6329,5.6314,5.478,5.2845,5.0603,4.7099,4.3793,0.0,0.0,0.0,0.0,0.0,0.0,0.0,0.0,0.0,0.0,0.0,0.0,0.0,0.0,0.0,0.0,0.0,0.0,0.0,0.0,0.0,0.0,0.0,0.0,0.0,0.0,0.0,0.0,0.0,0.0,0.0,0.0,3.6593,3.758,0.0,0.0,0.0,0.0,0.0,0.0,0.0,0.0,0.0,0.0,0.0,0.0,0.0,4.7035,4.7908,5.0103,5.1326,5.1559,5.2317,5.2814,5.3009,5.2912,5.3378,5.4278,5.3715,0.0,4.8696,4.6307,0.0,0.0,0.0,0.0,0.0,0.0,0.0,0.0,0.0,0.0,0.0,0.0,0.0,0.0,0.0,0.0,0.0,0.0,0.0,0.0,0.0,0.0,5.018,4.9439,4.9263,4.9107,0.0,4.5382,4.1896,3.9286,3.757,0.0,0.0,0.0,0.0,0.0,0.0,0.0,4.7931,5.169,5.4537,5.6203,5.6397,5.6386,5.6398,5.484,5.3424,5.2336,4.834,4.5504,4.4358,4.0352,0.0,0.0,0.0,0.0,0.0,0.0,0.0,0.0,0.0,0.0,0.0,0.0,0.0,0.0,0.0,0.0,0.0,0.0,0.0,0.0,0.0,0.0,0.0,0.0,0.0,0.0,0.0,0.0,0.0,3.6632,3.905,3.8934,3.9359,3.8992,0.0,0.0,0.0,0.0,0.0,0.0,0.0,0.0,0.0,4.7045,4.9571,5.1552,5.2912,5.4524,5.5806,5.6738,5.7107,5.7554,5.804,5.804,5.8506,5.9302,5.8817,5.7748,5.6019,5.1474,4.8599,4.6754,0.0,0.0,0.0,0.0,4.3305,4.4208,4.5103,4.5679,0.0,4.6006,0.0,0.0,0.0,0.0,0.0,0.0,0.0,0.0,0.0,0.0,5.2156,5.2273,5.2292,5.2292,5.2292,5.0434,4.7557,0.0,4.1702,3.9891,3.6843,0.0,0.0,0.0,0.0,4.4977,4.9664,5.2825,5.5104,5.6336,5.6426,5.6426,5.6444,5.489,5.354,5.2701,4.9967,4.781,4.6507,4.3649,4.1263,0.0,0.0,0.0,0.0,0.0,0.0,0.0,0.0,0.0,0.0,0.0,0.0,0.0,0.0,0.0,0.0,0.0,0.0,0.0,0.0,0.0,0.0,0.0,0.0,0.0,0.0,0.0,0.0,3.9069,4.1525,4.0868,4.1564,4.1487,0.0,0.0,0.0,0.0,0.0,0.0,4.6307,4.7628,4.9299,5.1474,5.3591,5.5534,5.7263,5.835,5.9535,6.0778,6.0992,6.1439,6.208,6.208,6.2429,6.2973,6.2119,6.173,6.1322,5.5942,5.2853,5.128,4.8658,4.7806,4.8068,4.8102,4.8684,4.9588,5.0489,5.0923,5.1104,5.1108,0.0,4.758,4.5617,0.0,0.0,0.0,0.0,4.8096,5.0223,5.2058,5.3522,5.4186,5.4498,5.4596,5.4381,5.3815,5.196,0.0,4.5421,4.3743,4.0756,0.0,0.0,0.0,0.0,4.737,5.124,5.3766,5.5529,5.6406,5.6449,5.6449,5.6503,5.4918,5.3663,5.3074,5.1191,4.9446,4.7972,4.6191,4.412,4.1792,0.0,0.0,0.0,0.0,0.0,0.0,0.0,0.0,0.0,0.0,0.0,0.0,0.0,0.0,0.0,0.0,0.0,0.0,0.0,0.0,0.0,0.0,0.0,0.0,0.0,0.0,0.0,0.0,0.0,4.4349,4.5065,0.0,0.0,0.0,0.0,4.5537,4.6484,4.813,5.0736,5.0969,5.2523,5.5864,5.6913,5.8214,5.9885,6.1594,6.2488,6.2585,6.3401,6.3828,6.3867,6.3867,6.3886,6.3886,6.3012,6.2624,6.2352,5.8797,5.6796,5.5709,5.3106,5.2616,5.3419,5.3485,5.4059,5.495,5.5875,5.6704,5.7348,5.7348,5.5083,5.1902,4.9407,4.7966,0.0,0.0,4.9817,5.1359,5.2312,5.3854,5.5181,5.522,5.5864,5.6235,5.5415,5.5201,5.4108,0.0,4.8525,4.6827,4.4992,0.0,4.3938,4.5753,4.751,4.9575,5.2294,5.4148,5.5527,5.6407,5.6498,5.6498,5.6498,5.4956,5.3986,5.3933,5.1527,4.9693,4.8788,4.7069,4.5294,4.3513,4.0877,0.0,0.0,0.0,0.0,0.0,0.0,0.0,0.0,0.0,0.0,0.0,0.0,0.0,0.0,0.0,0.0,0.0,0.0,0.0,0.0,0.0,0.0,0.0,0.0,0.0,0.0,0.0,0.0,4.6148,4.7908,0.0,4.797,4.7616,4.8199,4.9976,5.092,5.2557,5.5184,5.633,5.7748,5.9535,6.0973,6.2255,6.3381,6.4547,6.5421,6.5984,6.6878,6.6994,6.645,6.645,6.6139,6.5537,6.4139,6.3537,6.3362,6.1011,5.9568,5.8622,5.6543,5.6325,5.7089,5.653,5.6913,5.7759,5.81,5.8402,5.8538,5.7972,5.6255,5.4108,5.2624,5.1574,5.0949,5.1261,5.2175,5.3268,5.4147,5.483,5.5435,5.6001,5.6372,5.6508,5.6196,5.5708,5.4927,5.3698,5.2058,5.0516,4.9325,4.8857,4.9052,5.0243,5.1394,5.2683,5.4181,5.5372,5.6226,5.6533,5.6553,5.6338,5.5772,5.4665,5.3767,5.3201,5.1232,4.9958,4.9647,4.7957,4.6483,4.5306,4.2728,4.0292,0.0,0.0,0.0,0.0,0.0,0.0,0.0,0.0,0.0,0.0,0.0,0.0,0.0,0.0,0.0,0.0,0.0,0.0,0.0,0.0,0.0,0.0,0.0,0.0,0.0,0.0,4.7424,4.8275,5.0654,5.2005,5.147,5.1446,5.2205,5.3987,5.4692,5.6162,5.8739,5.9943,6.1206,6.2643,6.41,6.5246,6.6081,6.6936,6.7519,6.781,6.8393,6.8354,6.779,6.779,6.7324,6.6411,6.5013,6.408,6.3439,6.2002,6.1097,6.0514,5.9379,5.9316,5.9815,5.9225,5.9423,5.9989,5.9973,5.9983,5.9827,5.8968,5.7738,5.6469,5.5903,5.5123,5.4517,5.4771,5.5083,5.5435,5.6001,5.5942,5.5884,5.6469,5.6606,5.6606,5.6606,5.6157,5.5747,5.5747,5.4322,5.2956,5.237,5.2273,5.2468,5.3053,5.3873,5.4654,5.522,5.6059,5.6606,5.6606,5.6606,5.6255,5.5376,5.4498,5.3506,5.2345,5.0895,4.9843,4.9246,4.8103,4.7092,4.6215,4.363,4.1032,3.8462,0.0,0.0,0.0,0.0,0.0,0.0,0.0,0.0,0.0,0.0,0.0,0.0,0.0,0.0,0.0,0.0,0.0,0.0,0.0,0.0,0.0,0.0,0.0,4.315,4.7057,5.0055,5.0925,5.3304,5.4887,5.4917,5.4982,5.5744,5.7441,5.7677,5.8817,6.1322,6.1497,6.2663,6.5168,6.6101,6.6955,6.7829,6.8703,6.8703,6.7829,6.7868,6.7849,6.779,6.779,6.7324,6.645,6.5576,6.4255,6.2663,6.1808,6.146,6.1503,6.1503,6.1537,6.1597,6.16,6.1648,6.1699,6.1696,6.1701,6.1564,6.0725,5.9827,5.9104,5.9124,5.8577,5.8085,5.8851,5.8519,5.7914,5.7797,5.7172,5.6606,5.6606,5.6606,5.6606,5.6606,5.6606,5.6606,5.6606,5.524,5.4088,5.4088,5.4088,5.4088,5.4088,5.4791,0.0,5.5337,5.6079,5.6606,5.6606,5.6606,5.6235,5.5337,5.4478,5.3243,5.1464,5.0525,4.9244,4.7537,4.7437,4.7033,4.6205,4.365,4.1054,3.8478,0.0,0.0,0.0,0.0,0.0,0.0,0.0,0.0,0.0,0.0,0.0,0.0,0.0,0.0,0.0,0.0,0.0,0.0,0.0,0.0,0.0,4.2222,4.4581,4.5045,4.8256,5.137,5.3478,5.5451,5.6878,5.756,5.7653,5.8129,5.9308,6.0001,6.0934,6.2274,6.3498,6.478,6.6101,6.6994,6.7868,6.8723,6.9558,6.9558,6.8742,6.9325,6.8975,6.779,6.779,6.7324,6.645,6.5576,6.4605,6.3575,6.2701,6.1972,6.1428,6.1472,6.1537,6.1597,6.16,6.1634,6.1696,6.1696,6.1701,6.1661,6.1427,6.0334,5.9222,5.9846,5.9456,5.8675,5.8265,5.846,5.8499,5.725,5.6762,5.6606,5.6606,5.6606,5.6606,5.6606,5.6606,5.6606,5.6606,5.6216,5.5884,5.5884,5.5884,5.5884,5.5884,5.6098,0.0,5.6235,5.645,5.6606,5.6606,5.6566,5.5933,5.4472,5.4082,5.2929,5.0604,4.9048,4.7713,4.6599,4.5956,4.5772,4.613,4.4189,4.2198,0.0,0.0,0.0,0.0,0.0,0.0,0.0,0.0,0.0,0.0,0.0,0.0,0.0,0.0,0.0,0.0,0.0,0.0,0.0,0.0,0.0,0.0,4.522,4.7676,4.8372,5.05,5.2821,5.5045,5.6805,5.8213,5.9146,5.9572,6.0166,6.1128,6.1652,6.2468,6.3692,6.4683,6.5596,6.647,6.7344,6.8043,6.8548,6.9383,6.9383,6.8567,6.9034,6.8742,6.779,6.779,6.7324,6.647,6.5965,6.5091,6.3964,6.3439,6.2963,0.0,0.0,0.0,0.0,0.0,6.166,6.1701,6.1701,6.1701,6.1642,6.1271,6.0217,5.9183,5.971,5.9241,5.8538,5.8382,5.8441,5.8324,5.7367,5.686,5.6606,5.6606,5.6606,5.6606,5.6606,5.6606,5.6606,5.6606,5.6606,0.0,5.6606,5.6606,5.6606,5.6606,5.6606,5.6606,5.6606,5.6606,5.6595,5.6568,5.6522,5.5956,5.4618,5.4154,0.0,0.0,0.0,4.7482,4.6242,4.5694,0.0,0.0,0.0,0.0,0.0,0.0,0.0,0.0,3.9072,3.9791,0.0,0.0,0.0,0.0,0.0,0.0,0.0,0.0,0.0,0.0,0.0,0.0,0.0,0.0,0.0,0.0,4.7831,5.0577,5.226,5.3323,5.4523,5.6109,5.7753,5.9103,6.0057,6.0851,6.1679,6.2643,6.2798,6.3537,6.5129,0.0,0.0,0.0,0.0,6.7849,6.7946,6.8703,6.8665,6.779,6.779,6.7752,6.7655,6.7655,6.7227,6.6508,6.6508,6.5596,6.4139,6.4139,6.4123,6.3935,6.2293,6.1684,6.1742,6.1699,6.1685,6.1701,6.1701,0.0,0.0,6.0803,5.9963,5.9261,5.9358,5.8714,5.8109,5.889,5.848,5.7777,5.7699,5.7133,5.6606,5.6606,5.6606,5.6606,5.6606,5.6606,5.6606,5.6606,5.6606,5.6606,5.6606,5.6606,5.6606,5.6606,5.6591,5.6591,5.6595,5.6595,5.6568,5.6504,0.0,0.0,5.527,5.4541,5.3393,5.1651,4.9808,4.8054,4.641,4.6275,4.6298,4.6387,4.5548,4.4746,4.3962,4.4834,4.4873,4.4059,4.2388,4.2416,0.0,0.0,0.0,0.0,0.0,0.0,0.0,0.0,0.0,0.0,0.0,0.0,0.0,0.0,0.0,4.698,4.9939,5.2318,5.4039,5.5606,5.696,5.7985,5.901,6.0013,6.0968,6.12,6.1679,6.2643,6.3342,6.4178,6.5149,6.5868,6.6644,6.7519,6.7713,6.814,6.8839,6.9014,6.8665,6.779,0.0,0.0,6.6742,6.6742,6.6664,6.6508,6.6508,6.5926,6.4974,6.4974,6.459,6.3916,6.2999,6.2639,6.2563,6.1868,6.166,6.1701,6.1701,6.1701,6.1681,6.1505,6.0861,6.0276,6.0978,6.01,0.0,5.9046,5.848,5.7641,5.6996,5.6723,5.6606,5.6606,5.6606,5.6606,5.6606,5.6606,5.6606,5.6606,5.6606,5.6606,5.6606,5.6606,5.6606,5.6606,5.6546,5.652,5.6523,5.6522,5.6502,5.6502,5.6501,5.6152,5.5268,5.505,5.4223,5.2489,5.0112,4.8319,4.7287,4.7189,4.7447,4.8105,4.7881,4.7663,4.742,4.8309,4.8658,4.8445,4.6758,4.6151,0.0,0.0,0.0,0.0,0.0,0.0,0.0,0.0,0.0,0.0,0.0,3.8005,4.1409,0.0,4.6187,4.9165,5.1815,5.3942,5.5219,5.6863,5.8101,5.8546,5.9358,6.0265,6.122,6.1297,6.1873,6.3245,6.375,6.4547,6.579,6.6256,6.6703,6.713,6.7149,6.7363,6.779,6.781,6.7577,6.7149,6.7149,6.6916,6.6508,6.6508,6.6508,6.6508,6.6508,6.6256,6.5848,6.5892,6.5661,6.5232,6.4451,6.3642,6.2843,6.2447,6.2056,6.1701,6.1701,6.1701,6.1622,6.1193,6.0744,6.0393,6.0393,5.9788,5.9007,5.8577,5.8148,5.7601,5.6801,5.6606,5.6606,5.6606,5.6606,5.6606,5.6606,5.6606,5.6606,5.6606,5.6606,5.6606,5.6606,5.6579,5.6549,5.6549,5.6522,5.6502,5.651,5.6508,5.6489,5.6494,5.6491,5.6328,5.5887,5.5422,5.442,5.2706,5.1364,5.0079,4.8794,4.8681,4.8612,4.8557,4.8955,4.9121,4.9049,5.0326,5.0945,5.0945,5.053,5.0119,0.0,0.0,0.0,0.0,0.0,0.0,0.0,0.0,3.6323,3.8702,4.0442,4.2318,4.4871,4.7154,4.9262,5.1119,5.3459,5.5316,5.6147,5.7753,5.8778,5.8623,5.9358,6.0323,6.1433,6.1239,6.1869,6.3847,6.4003,6.4663,6.6178,6.6411,6.6508,6.6508,6.6508,6.6508,6.6508,6.6508,6.6508,6.6508,6.6508,6.6508,6.6508,6.6683,6.6664,6.6508,6.6508,6.6508,6.6508,6.6561,6.6601,6.6536,6.5912,6.4733,6.337,6.3098,6.2544,6.1935,6.1759,6.1701,6.1583,6.0881,6.0646,6.0529,5.9827,5.9495,5.9202,5.8499,5.805,5.7641,5.6996,5.6723,5.6606,5.6606,5.6606,5.6606,5.6606,5.6606,5.6606,5.6606,5.6606,5.6606,5.6575,5.6536,5.6503,5.6503,5.65,5.6501,5.6499,5.651,5.6503,5.6503,5.6503,5.6503,5.6503,5.5784,5.4694,5.3186,5.302,5.2299,5.0782,5.0664,5.027,4.9511,5.017,5.0497,5.0442,5.195,5.2782,5.2956,5.3826,5.3594,3.5663,3.6158,3.7674,3.8498,3.8735,3.9011,0.0,0.0,4.0578,4.2357,4.3498,4.4949,4.7502,4.8836,5.0364,5.2801,5.4697,5.6167,5.7037,5.8662,5.9474,5.8681,5.9358,6.0555,6.2211,6.1007,6.1229,6.3809,6.4003,6.4391,6.5304,6.6081,6.6508,6.6508,6.6508,6.6508,6.6508,6.6508,6.6508,6.6508,6.6508,6.6508,6.6528,6.7305,6.7227,6.6508,6.6508,6.6508,6.6508,6.6572,6.6594,6.6594,6.6574,6.6,6.5028,6.3487,6.2889,6.2735,6.1974,6.1701,6.1681,6.1583,6.1544,6.1544,6.1447,6.0861,6.0237,6.0139,5.8987,5.7777,5.7699,5.7133,5.6606,5.6606,5.6606,5.6606,5.6606,5.6606,5.6606,5.6606,5.6606,5.6575,5.6517,5.6504,5.6497,5.6497,5.6497,5.6497,5.6508,5.6492,5.6503,5.6503,5.6503,5.6503,5.6503,5.6348,5.5833,5.4879,5.4769,5.4288,5.3332,5.3217,5.3139,5.302,5.3073,5.3081,5.3072,5.4039,5.4871,5.5606,5.6476,5.5606,3.883,3.9364,4.0673,0.0,4.2414,4.2686,4.3518,4.3711,4.433,4.6573,4.7695,4.8894,5.0983,5.2086,5.3169,0.0,5.5548,5.667,5.8546,5.8139,5.8062,5.9223,5.8333,5.8329,6.0118,6.0115,6.0705,6.2371,6.2954,6.3828,6.5129,6.5557,6.5984,6.6489,6.6508,6.6508,6.6508,6.6508,6.6508,6.6508,6.6508,6.6761,6.7266,6.7635,6.7596,6.7227,6.6722,6.6508,6.6508,6.6572,6.66,6.6614,6.6669,6.6488,6.6046,6.486,6.3812,6.3028,6.3164,6.2872,6.2462,6.2462,6.2462,6.2364,6.1857,6.1447,6.1056,6.0549,5.9885,5.9202,5.8695,5.8304,5.7933,5.7426,5.7309,5.7172,5.6704,5.6606,5.6606,5.6606,5.6563,5.6536,5.6503,5.649,5.6504,5.6503,5.6498,5.6496,5.6511,5.6503,5.6503,5.6503,5.6474,5.6446,5.6446,5.6388,5.6189,5.5816,5.5741,5.5314,5.4439,5.4366,5.4105,5.3538,5.4007,5.4478,5.4967,5.5838,5.6689,5.7521,5.7888,5.7482,4.1585,4.2225,4.3308,4.4812,4.5607,4.6109,4.6438,4.6864,4.7676,4.9359,5.0345,5.137,5.2859,5.3652,5.4426,5.5509,5.5857,5.6747,5.8874,5.7753,5.7327,5.899,5.7521,5.68,5.7873,5.899,6.0127,6.1308,6.2216,6.3323,6.4799,6.5091,6.5596,6.647,6.6508,6.6508,6.6508,6.6742,6.6858,6.6858,6.7111,6.7557,6.814,6.7907,6.7926,6.8101,6.6975,6.6353,6.6159,6.6189,6.6086,6.5887,6.5952,6.597,6.5903,6.5347,6.4378,6.3379,6.3535,6.3164,6.2637,6.2637,6.2637,6.252,6.1896,6.1701,6.1564,6.0939,6.0588,6.0256,5.9612,5.928,5.8948,5.8304,5.8168,5.7933,5.7113,5.6938,5.6864,5.6618,5.6538,5.6503,5.649,5.6499,5.6491,5.6483,5.6474,5.6483,5.6503,5.6503,5.6503,5.6503,5.6446,5.6388,5.6359,5.6325,5.6278,5.6246,5.6417,5.6238,5.5591,5.5785,5.5478,5.4556,5.5388,5.6026,5.636,5.723,5.812,5.8952,5.8952,5.9203,4.3758,4.4864,4.5796,4.6684,4.8253,4.9339,4.8508,4.9591,5.0558,4.9842,5.0345,5.1177,5.2066,5.226,5.284,5.4561,5.549,5.6321,5.725,5.8043,5.8236,5.7482,5.7308,5.6977,0.0,5.7734,5.9468,6.1269,6.2216,6.309,6.3983,6.478,6.5596,6.647,6.6508,6.6508,6.6508,6.7344,6.7752,6.7771,6.8626,6.9034,6.9034,6.8198,6.8257,6.8956,6.7247,6.6023,6.5246,6.5246,6.478,6.4095,6.4144,6.4185,6.4189,6.4213,6.4249,6.4023,6.2364,6.1759,6.174,6.174,6.174,6.174,6.172,6.1701,6.1701,6.1681,6.1056,6.0393,6.0373,5.9729,5.9085,5.9065,5.9065,5.8812,5.7953,5.7758,5.7512,5.6675,5.6503,5.651,5.6499,5.651,5.6483,5.6417,5.6388,5.6417,5.6483,5.6503,5.6503,5.6503,5.6446,5.6359,5.6319,5.629,5.6246,5.6102,5.6889,5.7321,5.723,5.8043,5.8081,5.7211,5.8043,5.8081,5.7269,5.8139,5.901,5.9861,5.9861,6.0731,4.5413,4.6714,4.7899,4.9886,5.088,5.1273,5.0983,5.1351,5.1525,5.0674,5.0712,5.1003,5.1273,5.1815,5.2569,5.3749,5.4658,5.5683,5.7114,5.6592,5.6379,5.7211,5.6321,0.0,0.0,0.0,0.0,5.9629,6.1541,6.307,6.3945,6.476,6.5596,6.647,6.6508,6.6508,6.6508,6.7363,6.779,6.781,6.9228,6.9908,6.9888,6.9597,6.9325,6.8995,6.7266,6.6003,6.5168,6.4624,6.4236,6.4017,6.4066,6.4095,6.4042,6.3525,6.3377,6.3447,6.3438,6.3047,6.2559,6.2559,6.2559,6.2442,6.1876,6.1701,6.1701,6.1701,6.1486,6.1252,6.1252,6.1037,6.0686,6.01,5.9963,5.9729,5.8851,5.8203,5.771,5.7421,5.6898,5.6494,5.651,5.65,5.6455,5.6349,5.6368,5.6407,5.6437,5.6437,5.6437,5.6437,5.6377,5.6325,5.629,5.6272,5.6437,5.6927,5.724,5.763,5.8139,5.843,5.8449,5.8178,5.8449,5.8739,5.9029,5.9319,6.017,6.1563,6.1563,6.2162,4.7453,4.8818,4.999,5.1991,5.2778,5.2887,5.2285,5.2182,5.1776,5.0306,4.9765,4.9552,4.9552,5.0248,5.1215,5.2376,5.3556,5.4813,5.6205,5.5741,5.5625,5.6708,5.5877,5.5584,0.0,0.0,0.0,5.875,6.1167,6.3021,6.393,6.4765,6.56,6.647,6.6508,6.6508,6.6508,6.7674,6.8567,6.917,7.0257,7.0762,7.0743,7.0432,6.9869,6.9014,6.7596,6.6295,6.5168,6.4644,6.4255,6.3978,6.3703,6.3605,6.3503,6.2718,6.2458,6.2571,6.3174,6.3003,6.254,6.254,6.254,6.2481,6.2247,6.2169,6.2169,6.2169,6.2169,6.2091,6.1779,6.1701,6.1564,6.0998,6.0861,6.0631,5.9745,5.9119,5.8629,5.8297,5.7531,5.7026,5.7303,5.7089,5.6855,5.6753,5.6508,5.6321,5.6333,5.6333,5.6333,5.6333,5.629,5.6253,5.6232,5.6476,5.6843,5.734,5.7942,5.8542,5.9029,5.9339,5.9493,5.9493,5.9803,6.0228,6.0789,6.1099,6.1814,6.2859,6.2859,6.3323,4.9851,5.1197,5.2088,5.3102,5.3975,5.4149,5.2466,5.2073,5.1331,4.8798,4.754,4.6902,0.0,0.0,4.8759,5.0442,5.224,5.373,5.46,5.547,5.6031,0.0,0.0,0.0,0.0,0.0,0.0,5.8819,0.0,6.2962,6.3864,6.4776,6.5627,6.647,6.6508,6.6508,6.6508,6.8179,6.9869,7.152,7.1481,7.1462,7.1442,7.0626,6.9811,6.8975,6.8101,6.6761,6.5207,6.5168,6.4683,6.3906,6.3093,6.2731,6.2612,6.1919,6.1634,6.1615,6.1673,6.1705,6.1701,6.1701,6.1701,6.1857,6.2676,6.2969,6.2989,6.295,6.2969,6.2794,6.1935,6.1701,6.1701,6.1701,6.1701,6.1479,6.0641,6.0422,6.0129,5.9228,5.8345,5.7986,5.8768,5.8219,5.7619,5.7573,5.6853,5.629,5.6201,5.6214,5.6214,5.6214,5.6193,5.6185,5.618,5.6908,5.7417,5.7424,5.899,5.9919,5.9957,6.0731,6.1176,6.1176,6.2027,6.2472,6.2472,6.3304,6.371,6.3768,6.3768,6.4232,5.2009,5.3337,5.4245,5.5262,5.4886,5.3895,5.23,5.1078,4.954,4.6974,4.5235,4.4206,0.0,0.0,0.0,4.7792,5.0577,0.0,5.371,5.5084,0.0,5.6902,0.0,5.7308,5.8178,5.9066,0.0,0.0,6.2349,6.3582,6.3883,6.53,6.6209,6.6489,6.6508,6.6508,6.6508,6.7577,6.8975,7.0626,7.0024,6.9733,6.9733,6.9519,6.8937,6.8082,6.7208,6.6217,6.5149,6.4547,6.4197,6.3983,6.3754,6.3262,6.2672,6.2549,6.2114,6.1592,6.1615,6.166,6.1701,6.1701,6.1701,6.174,6.1954,6.2481,6.2852,6.2208,6.2501,6.2794,6.1935,6.1701,6.1701,6.1701,6.1697,6.1638,6.1358,6.0734,6.018,5.9947,5.9147,5.8577,5.8791,5.8609,5.8411,5.8401,5.8176,5.754,5.6345,5.619,5.619,5.619,5.6194,5.6451,5.7024,5.726,5.794,5.9165,5.9648,6.017,6.077,6.1621,6.2066,6.2066,6.2917,6.3362,6.3362,6.3574,6.4019,6.4657,6.4657,6.5102,5.3862,5.5076,5.5775,5.6082,5.5382,5.3996,5.1715,4.9758,4.7587,4.4693,4.2444,4.1106,4.1473,4.2292,4.3614,0.0,0.0,0.0,5.2801,5.4697,5.6321,0.0,5.7308,0.0,5.9048,5.9609,6.0228,0.0,6.2741,6.3938,6.4394,6.5325,6.5863,6.5926,6.5596,6.5751,6.6489,6.6994,6.8082,6.9772,6.9325,6.9111,6.9111,6.9111,6.8626,6.7771,0.0,6.6586,6.5751,6.5285,6.5091,6.5052,6.4678,6.4226,6.3721,6.306,6.2512,6.2082,6.1724,6.1634,6.1701,6.1701,6.1701,6.1779,6.2149,6.2872,6.3399,6.252,6.2891,6.3282,6.2032,6.1701,6.1705,6.1697,6.1678,6.1653,6.1618,6.1138,6.0604,6.0187,6.0002,5.9789,5.9401,5.9308,5.9258,5.923,5.8864,5.8267,5.7357,5.7257,5.7257,5.7257,5.7257,5.7434,5.7884,5.8271,5.891,5.9841,6.0228,6.0634,6.1079,6.195,6.2588,6.2955,6.3826,6.4445,6.4752,6.4752,6.5004,6.5445,6.5874,6.6299,5.5516,5.6436,5.6807,5.6096,5.5302,5.3807,5.0512,4.7894,4.5271,4.2033,3.9392,3.7945,3.8891,3.9721,4.1139,4.3827,0.0,5.079,5.1873,5.4329,5.6379,5.7366,5.7579,5.8275,5.9899,6.0054,6.0402,6.1215,6.2665,6.3902,6.4709,6.4864,6.4957,6.5052,6.4352,6.4741,6.6314,6.6334,6.7149,6.8762,6.8762,6.8762,6.8762,6.8762,6.8334,6.7635,6.7635,0.0,6.6508,6.6508,6.6508,6.6431,6.5673,6.5304,6.5013,6.3521,6.288,6.2688,6.1873,6.1634,6.1701,6.1701,6.1701,6.1837,6.2598,6.3438,6.3945,6.3067,6.3457,6.375,6.213,6.1701,6.1697,6.1698,6.1631,6.1588,6.158,6.146,6.1139,6.0312,6.0757,6.1029,6.0292,6.0157,6.014,6.0067,5.9411,5.8927,5.8931,5.8739,5.8604,5.8604,5.8604,5.8642,5.8758,5.9474,5.9938,6.0054,6.0712,6.1099,6.1099,6.2046,6.2936,6.369,6.4657,6.5448,6.6102,6.608,6.6058,6.6032,6.6946,6.7374,5.6941,5.7295,5.7094,5.5734,5.395,5.1488,4.7764,4.4586,0.0,0.0,3.6658,3.5437,3.6974,3.7429,3.8644,4.1912,4.5432,4.8546,5.0809,5.3942,5.6592,0.0,5.901,5.9822,6.0809,6.0886,0.0,0.0,6.2453,6.2722,6.2945,6.3624,6.4081,6.4197,6.4061,6.4469,6.5421,6.544,6.5945,6.6955,6.6955,6.6955,6.6955,6.6955,6.6878,6.6722,6.6722,0.0,6.6508,6.6508,6.6508,6.6489,6.6334,6.5829,6.5091,6.4144,6.3367,6.2688,6.1873,6.1634,6.1701,6.1701,6.1701,6.174,6.1876,6.254,6.3047,6.2169,6.2559,6.2989,6.1974,6.1701,6.1698,6.1626,6.1562,6.1509,6.146,6.133,6.1171,6.0961,6.102,6.1079,6.0943,6.0904,6.0904,6.0904,6.0769,6.0654,6.0673,5.9455,5.8604,5.8604,5.8604,5.8894,5.9609,5.9803,6.017,6.0847,6.1021,6.1099,6.1099,6.2627,6.3536,6.369,6.5158,6.5966,6.6102,6.6058,6.6013,6.6032,6.69,6.7351,5.7788,5.8122,5.7661,5.5734,5.3807,5.1193,4.6463,0.0,0.0,3.714,3.4622,3.3323,3.4588,3.5245,3.6419,3.8934,4.2976,4.6535,4.8624,5.226,5.5509,5.7675,5.8681,5.9725,6.0983,6.1099,6.1466,6.2336,6.1988,6.2142,6.312,6.3208,6.3045,6.2663,6.2643,6.3051,6.3886,6.3906,6.4547,6.5829,6.5829,6.6062,6.6508,6.6508,6.6508,6.6508,6.6508,0.0,6.6508,6.6508,6.6508,6.6508,6.6508,6.6237,6.5712,6.4455,6.3776,6.3302,6.2048,6.1634,6.1701,6.1701,6.1701,6.1701,6.1701,6.2306,6.2813,6.1954,6.2325,6.2896,6.2488,6.2011,6.1746,6.2139,6.182,6.1421,6.133,6.1247,6.1173,6.1099,6.1099,6.1099,6.1099,6.1099,6.1099,6.1099,6.1099,6.1099,6.1099,6.0402,5.9899,5.9899,5.9899,6.0074,6.0499,6.0518,6.0692,6.1079,6.1099,6.1099,6.1099,6.2762,6.369,6.3651,6.5273,6.6099,6.6052,6.6029,6.5982,6.5977,6.7311,6.7938,5.8103,5.8586,5.8085,5.5564,5.3589,5.0833,4.5284,4.1548,0.0,3.5359,3.2987,3.1703,3.2582,3.3351,3.4466,0.0,4.05,4.4272,4.6515,5.0519,5.4175,5.6728,5.7965,0.0,6.0441,6.0557,0.0,6.1524,6.1137,6.1578,6.3178,6.2735,6.2119,6.1419,6.14,6.173,6.241,6.2604,6.3459,6.4935,6.5129,6.5654,6.6508,6.6508,6.6508,6.6508,6.6508,0.0,0.0,6.6508,6.6392,6.6217,6.6252,6.6135,6.5766,6.4293,6.3787,6.3634,6.2146,6.166,6.1701,6.1701,6.1701,6.1701,6.1701,6.2174,6.2572,6.1893,6.2189,6.2703,6.2695,6.2134,6.1738,6.2316,6.188,6.1326,6.1191,6.1173,6.1155,6.1099,6.1099,6.1099,6.1099,6.1099,6.1099,6.1099,6.1099,6.1099,6.1099,6.1099,6.1099,6.1099,6.1099,6.1099,6.1099,6.1099,6.1099,6.1099,6.1099,6.1099,6.1099,6.2762,6.3651,6.359,6.523,6.6052,6.5996,6.5972,6.6019,6.616,6.7712,6.8546,5.7583,5.8141,5.7936,5.4723,5.214,4.8919,4.3409,0.0,3.5723,3.3405,3.1687,3.0884,3.1753,3.1969,3.288,3.5394,0.0,4.1351,4.5355,4.961,5.3265,5.5818,0.0,0.0,5.8797,5.8816,5.8855,5.8932,5.9658,6.0522,6.1472,6.1512,6.1478,6.14,6.14,6.1439,6.1516,6.2293,6.3168,6.4119,6.4857,6.5654,6.6508,6.6508,6.6508,6.6508,6.6508,0.0,0.0,6.6508,6.6023,6.5324,6.5406,6.492,6.4117,6.3242,6.2942,6.2874,6.2005,6.1685,6.1701,6.1701,6.1701,6.1701,6.1701,6.1759,6.1794,6.1718,6.1715,6.1733,6.1726,6.1612,6.148,6.1366,6.1278,6.121,6.1117,6.1099,6.1099,6.1099,6.1099,6.1099,6.1099,6.1099,6.1099,6.1099,6.1099,6.1099,6.1099,6.1099,6.1099,6.1099,6.1099,6.1099,6.1099,6.1099,6.1099,6.1099,6.1099,6.1099,6.1099,6.2723,6.361,6.359,6.518,6.602,6.5996,6.5872,6.6178,6.6926,6.7812,6.8665,5.5744,5.6617,5.658,5.3775,5.1212,4.8066,4.3044,3.8846,3.5362,3.316,3.1533,3.0614,3.0942,3.1448,3.2145,3.3189,3.5936,3.8895,4.1622,4.6109,5.0074,5.2627,5.4929,5.6708,0.0,0.0,5.8041,5.8562,5.9966,6.0712,6.0593,6.1099,6.14,6.14,6.14,6.14,6.14,6.175,6.2624,6.4003,6.4314,6.5188,6.6508,6.6508,6.6508,6.6508,6.6508,0.0,0.0,6.5926,6.5518,6.5149,6.4706,6.4306,6.3904,6.3133,6.2882,6.2778,6.1935,6.1635,6.164,6.164,6.164,6.1659,6.1694,6.1698,6.1695,6.1655,6.1615,6.1701,6.2191,6.2279,6.205,6.1355,6.1208,6.1173,6.1099,6.1099,6.1099,6.1099,6.1099,6.1099,6.1099,6.1099,6.1099,6.1099,6.1099,6.1099,6.1099,6.1099,6.1099,6.1099,6.1099,6.1099,6.1099,6.1099,6.1099,6.1099,6.1099,6.108,6.1041,6.2703,6.357,6.3464,6.5134,6.5972,6.5947,6.6346,6.6575,6.6738,6.8036,6.8706,5.385,5.528,5.5652,5.2921,5.0376,4.7322,4.2614,3.8489,3.5078,3.3102,3.1533,3.0499,3.0499,3.1023,3.1526,3.1758,3.4253,3.6845,3.8837,4.3073,4.6922,4.9475,0.0,5.4058,0.0,5.6631,5.742,5.8518,5.9575,6.0146,6.0099,6.0672,6.1128,6.14,6.14,6.14,6.14,6.14,6.2157,6.3614,6.3614,6.4372,6.5751,6.5751,6.5751,6.5751,6.5751,0.0,0.0,6.511,6.4702,6.4411,6.3865,6.3495,6.3196,6.2698,6.2532,6.2454,6.1816,6.1609,6.1627,6.1627,6.1627,6.1627,6.1658,6.1662,6.1651,6.1621,6.1568,6.1661,6.2185,6.2279,6.2063,6.1346,6.1173,6.1155,6.1099,6.1099,6.1099,6.1099,6.1099,6.1099,6.108,6.108,6.1061,6.108,6.1061,6.108,6.108,6.108,6.1099,6.108,6.108,6.108,6.1099,6.1099,6.1099,6.1099,6.108,6.1041,6.1002,6.2643,6.3505,6.3396,6.5086,6.5923,6.5872,6.6518,6.6823,6.6866,6.8164,6.8732,5.2197,5.4426,5.5503,5.2234,4.9559,4.6485,4.1771,3.7642,3.4396,3.2988,3.1533,3.0499,3.0499,3.0569,3.0868,3.1681,3.3286,3.5317,3.787,4.1177,4.4272,0.0,4.8682,5.0751,5.3285,5.5097,5.6795,5.846,5.794,0.0,6.0022,6.0109,6.0506,6.1381,6.14,6.14,6.14,6.14,6.1847,6.2701,6.2701,6.3168,6.4022,6.4022,6.4022,6.4022,0.0,0.0,0.0,6.4022,6.3498,6.2735,6.2787,6.2293,6.1523,6.1598,6.1656,6.1699,6.1639,6.1641,6.1705,6.1705,6.1705,6.1685,6.1626,6.1595,6.1609,6.1588,6.1499,6.1366,6.1252,6.1225,6.1192,6.1137,6.1099,6.1099,6.1099,6.1099,6.1099,6.1099,6.1099,6.108,6.1022,6.1002,6.1001,6.0997,6.1,6.1002,6.1002,6.1061,6.108,6.1002,6.1002,6.1022,6.1099,6.1099,6.1099,6.1099,6.1041,6.1002,6.1002,6.2557,6.3396,6.3396,6.4987,6.5793,6.5793,6.6266,6.6864,6.7582,6.8167,6.8809,4.798,4.9819,5.0729,4.8643,4.6294,4.3565,3.9952,3.6491,3.3633,3.2176,3.1142,3.0499,3.0499,3.055,3.0675,3.0946,3.2396,3.4214,3.6207,3.9901,4.3363,4.5896,4.9281,5.2182,0.0,0.0,5.5707,5.6881,5.7295,5.7765,5.8356,5.8914,5.9885,6.1361,6.14,6.14,6.14,6.14,6.1847,6.2701,6.2701,6.3168,6.4003,6.4003,6.4003,0.0,0.0,0.0,0.0,6.3362,6.2954,6.2657,6.2118,6.1744,6.151,6.157,6.1619,6.1627,6.1615,6.1615,6.1627,6.1627,6.1627,6.1627,6.1558,6.1568,6.1568,6.1499,6.14,6.1322,6.1206,6.1191,6.1173,6.1137,6.1099,6.0944,6.0402,6.0712,6.0944,6.0383,6.0693,6.1022,6.1002,6.1,6.0999,6.0997,6.1018,6.1,6.1002,6.1021,6.1021,6.1002,6.1483,6.1829,6.185,6.185,6.2101,6.2699,6.2157,6.1788,6.1767,6.2802,6.3372,6.3325,6.5493,6.6518,6.6287,6.7482,6.8259,6.8546,6.8484,6.8585,4.3856,4.5825,4.6694,4.519,4.3181,4.0929,3.8154,3.5324,3.2956,3.1742,3.0975,3.0499,3.0499,3.055,3.0598,3.0598,3.201,3.3712,3.5452,0.0,0.0,4.6361,4.9977,0.0,0.0,5.5114,5.5703,5.6587,5.6897,5.721,5.7573,5.8078,5.8972,6.039,6.074,6.0914,6.0914,6.1245,6.1672,6.2216,6.2216,6.2488,6.3012,6.3012,6.3012,0.0,0.0,0.0,0.0,6.2471,6.2257,6.2212,6.1712,6.1534,6.1529,6.1582,6.1592,6.1607,6.1606,6.1607,6.1607,6.1607,6.1578,6.1548,6.1487,6.1484,6.1506,6.1366,6.1287,6.1259,6.1173,6.1155,6.1155,6.1099,6.1099,6.0963,6.046,6.075,6.0944,6.0422,6.0693,6.0982,6.096,6.0978,6.0955,6.0933,6.0955,6.0957,6.096,6.0978,6.1113,6.1385,6.1844,6.242,6.3053,6.2866,6.2926,6.3467,6.2982,6.2632,6.2587,6.3392,6.383,6.3801,6.5563,6.6471,6.6478,6.7766,6.8571,6.8892,6.8631,6.8506,0.0,4.227,4.3237,4.1894,4.0341,3.8595,3.6436,3.4165,0.0,3.1569,3.0929,3.0499,3.0509,3.055,3.0617,3.0675,3.2106,3.3828,0.0,3.8972,0.0,0.0,5.0751,0.0,5.4716,5.563,5.6432,5.7265,5.6678,5.6641,5.7457,5.7496,5.7845,5.8603,5.9477,5.9982,6.0099,6.0895,6.1342,6.14,6.14,6.14,6.14,6.14,6.14,0.0,0.0,0.0,0.0,6.1472,6.1503,6.1515,6.1568,6.1602,6.1592,6.1606,6.1602,6.1607,6.1607,6.1607,6.1607,6.1607,6.1548,6.1491,6.1428,6.1408,6.1371,6.1236,6.1206,6.1173,6.1137,6.1099,6.1099,6.1099,6.1099,6.1079,6.1041,6.106,6.1041,6.0867,6.0905,6.0942,6.0836,6.0853,6.0869,6.0823,6.0846,6.0891,6.0911,6.0955,6.1263,6.2009,6.2163,6.2852,6.4455,6.3954,6.3599,6.3676,6.3554,6.3492,6.3492,6.4191,6.4609,6.4609,6.5329,6.599,6.654,6.7341,6.8081,6.8668,6.8573,6.8506,3.4484,0.0,3.944,3.9264,3.8037,3.6415,0.0,3.3004,3.155,3.0803,0.0,3.0509,3.05,3.0559,3.0791,3.1429,3.2977,3.4911,3.729,4.2222,0.0,5.0848,5.1834,5.313,5.549,5.5417,5.5559,5.6412,5.6368,5.6388,5.6583,5.6602,5.668,5.6874,5.7729,5.8797,6.0079,6.0293,6.074,6.14,6.14,6.14,6.14,6.14,6.14,0.0,0.0,0.0,6.1472,6.1487,6.1489,6.151,6.1567,6.1593,6.1601,6.16,6.1602,6.1607,6.1607,6.1607,6.1607,6.1607,6.1548,6.1491,6.1421,6.1366,6.1322,6.1225,6.1191,6.1173,6.1137,6.1099,6.1099,6.1099,6.1099,6.0925,6.0306,6.0616,6.0635,5.9341,6.0092,6.0702,6.0025,6.0404,6.0823,6.08,6.0823,6.0846,6.0891,6.0869,6.1154,6.2009,6.2656,6.3435,6.4512,6.4441,6.4638,6.5293,6.4691,6.4325,6.4325,6.4493,6.4609,6.4609,6.6077,6.714,6.777,6.8159,6.8397,6.8573,6.8506,6.8506,3.2227,3.4551,3.6527,3.6726,3.5627,3.4182,3.302,3.1243,2.9855,0.0,0.0,3.0056,3.0433,3.0869,3.1429,3.2251,3.4176,0.0,0.0,0.0,4.8972,5.2395,5.2801,5.3633,0.0,5.5688,5.5695,5.616,5.6251,5.6291,5.6291,5.6291,5.6291,5.6291,5.6758,5.7632,5.8933,5.9322,5.9749,6.0215,6.0604,6.0798,6.0817,6.122,6.1408,0.0,0.0,0.0,6.1548,6.1559,6.1558,6.1556,6.1582,6.1606,6.1601,6.1593,6.1592,6.1607,6.1607,6.1578,6.1549,6.1549,6.1518,6.1447,6.1381,6.1322,6.1275,6.1191,6.1155,6.1155,6.1099,6.1099,6.1099,6.1099,6.1099,6.0983,6.0519,6.0423,6.0152,5.9185,5.9374,5.9678,5.9557,5.9919,6.0339,6.0742,6.08,6.0823,6.0846,6.117,6.1728,6.256,6.3402,6.4262,6.5128,6.5205,6.5397,6.5859,6.5455,6.5205,6.5205,6.5205,6.516,6.5064,6.6488,6.7373,6.7632,6.8203,6.8506,6.8506,6.8506,6.8506,3.1616,3.3255,3.454,3.5002,3.4065,3.284,3.222,0.0,0.0,0.0,0.0,0.0,0.0,3.1506,0.0,0.0,0.0,0.0,4.5239,4.7502,4.9823,5.3111,5.3498,0.0,5.5838,5.6133,5.6199,5.6214,5.6251,5.6291,5.6291,5.6291,5.6291,5.6291,5.6291,5.6641,5.7379,5.8214,5.8681,5.8817,5.9671,6.0099,6.0118,6.0994,6.1415,6.1428,0.0,0.0,6.1597,6.1603,6.1619,6.1628,6.1612,6.1601,6.1598,6.1607,6.1607,6.1607,6.1607,6.1549,6.1489,6.1509,6.1445,6.1389,6.1318,6.1291,6.1245,6.1117,6.1099,6.1137,6.1117,6.1117,6.1117,6.1117,6.1117,6.1041,6.0867,6.0287,5.9668,5.9295,5.8715,5.8462,5.9011,5.9338,5.9742,6.0492,6.0704,6.08,6.08,6.155,6.2397,6.3224,6.4089,6.4955,6.582,6.5897,6.5897,6.5897,6.5897,6.5897,6.5897,6.5897,6.5801,6.5608,6.665,6.7108,6.7009,6.7998,6.8506,6.8506,6.8506,6.8506,3.1582,3.2997,3.4131,3.5685,3.5434,3.4789,3.473,0.0,0.0,0.0,0.0,0.0,0.0,3.2812,3.3643,0.0,0.0,4.4233,0.0,0.0,5.05,5.3169,0.0,5.4172,5.5927,5.6149,5.6194,5.6204,5.6246,5.6291,5.6291,5.6291,5.6291,5.6291,5.6291,5.635,5.6505,5.734,5.8137,5.8817,5.9671,6.0099,6.0118,6.0994,6.1428,6.1503,0.0,6.1586,6.1607,6.166,6.1676,6.1674,6.1678,6.1642,6.1593,6.1603,6.1607,6.1607,6.1607,6.1549,6.1509,6.1495,6.1447,6.1366,6.1252,6.1223,6.121,6.1117,6.1137,6.1191,6.1167,6.1223,6.1242,6.1203,6.1134,6.0886,6.0152,5.9782,5.9198,5.7752,5.7921,5.8088,5.7473,5.855,5.955,5.9685,6.0319,6.08,6.08,6.155,6.2397,6.3224,6.4089,6.4955,6.582,6.5897,6.5897,6.5897,6.5897,6.5897,6.5897,6.5897,6.5801,6.5608,6.665,6.7108,6.7009,6.7998,6.8506,6.8506,6.8506,6.8506,3.1104,3.233,3.3446,3.5246,3.5774,3.5763,3.5366,0.0,0.0,0.0,0.0,0.0,0.0,0.0,3.6455,4.0423,0.0,4.6013,4.8198,4.9571,5.1138,0.0,0.0,5.4707,5.5982,5.616,5.6204,5.6199,5.6259,5.6291,5.6291,5.6291,5.6291,5.6291,5.6291,5.6291,5.6291,5.6699,5.7068,5.7457,5.8331,5.8972,5.9419,6.0339,6.1036,6.1498,0.0,6.1612,6.1667,6.1693,6.1694,6.1699,6.1697,6.1678,6.1648,6.1603,6.1597,6.1607,6.1607,6.1549,6.1489,6.1498,6.1472,6.1441,6.1342,6.1313,6.1302,6.1271,6.1223,6.1206,6.1229,6.1297,6.1326,6.1208,6.0824,6.0306,5.9803,5.893,5.8021,5.7189,5.6956,5.6915,5.6973,5.803,5.9011,5.9435,6.0242,6.08,6.08,6.155,6.2397,6.3224,6.4089,6.4955,6.582,6.5897,6.5897,6.5897,6.5897,6.5897,6.5897,6.5897,6.5801,6.5608,6.665,6.7108,6.7009,6.7998,6.8506,6.8506,6.8506,6.8506,3.0519,3.1426,3.2355,3.417,0.0,3.6279,3.5729,0.0,0.0,0.0,0.0,0.0,0.0,3.6774,0.0,4.4142,4.5742,4.7173,4.9397,5.0577,5.1776,5.3323,5.4281,5.5149,5.6036,5.6175,5.6199,5.6213,5.6278,5.6291,5.6291,5.6291,5.6291,5.6291,5.6304,5.6304,5.6304,5.6317,5.6324,5.6311,5.7185,5.7923,5.8545,5.9476,6.0378,6.1208,6.1303,6.1458,6.1705,6.1705,6.1697,6.1699,6.1698,6.1684,6.1673,6.1627,6.1595,6.1607,6.1607,6.1578,6.1519,6.1498,6.1495,6.1491,6.1415,6.1266,6.111,6.1103,6.0891,6.0751,6.0993,6.1089,6.1031,6.0702,6.0106,5.9473,5.9085,5.8002,5.6999,5.6742,5.6165,5.5915,5.6569,5.7588,5.8511,5.9127,6.0127,6.08,6.08,6.155,6.2397,6.3224,6.4089,6.4955,6.582,6.5897,6.5897,6.5897,6.5897,6.5897,6.5897,6.5897,6.5801,6.5608,6.665,6.7108,6.7009,6.7998,6.8506,6.8506,6.871,6.8691,2.9927,3.0232,3.0689,3.2432,3.4697,0.0,3.6508,3.6479,0.0,3.6523,0.0,0.0,0.0,3.992,4.253,4.5278,4.7115,4.8566,4.9571,0.0,5.2453,5.3382,5.4281,5.5165,5.6087,5.619,5.6232,5.6291,5.6291,5.6291,5.6291,5.6291,5.6291,5.6291,5.6309,5.6302,5.6302,5.6364,5.6353,5.6311,5.7185,5.7632,5.7722,5.8589,5.9512,6.038,6.0469,6.0951,6.1696,6.1696,6.1701,6.1698,6.1699,6.1653,6.1618,6.1601,6.1607,6.1607,6.1607,6.1607,6.1578,6.1523,6.1499,6.1486,6.1428,6.0837,6.0196,6.0182,5.9696,5.9327,6.0067,6.0285,6.0055,5.918,5.8828,5.8428,5.7486,5.7131,5.6783,5.5953,5.5742,5.5722,5.578,5.7184,5.8319,5.8377,5.9762,6.08,6.08,6.155,6.2397,6.3224,6.4089,6.4955,6.582,6.5897,6.5897,6.5897,6.5897,6.5897,6.5897,6.5897,6.5801,6.5608,6.665,6.7108,6.7009,6.7998,6.8506,6.8543,6.9286,6.923,3.0047,3.0176,3.0443,3.1651,3.3463,0.0,0.0,3.7463,3.7829,3.8902,3.9095,0.0,0.0,0.0,4.4191,4.6259,4.7588,4.8825,5.0248,5.1467,5.2511,5.3401,5.4316,5.5215,5.6102,5.6238,5.6278,5.6291,5.6291,5.6291,5.6291,5.6291,5.6058,5.5514,5.5493,5.5244,5.475,5.4781,5.5045,5.557,5.6453,5.7111,5.7616,5.7973,5.8647,5.9509,5.956,5.9781,6.008,6.008,6.0077,6.0073,6.0078,6.0076,6.0044,6.005,6.0046,6.0061,6.0059,6.0044,6.0036,6.0029,6.0008,5.9993,5.9985,5.9743,5.949,5.949,5.9276,5.9114,5.9386,5.9483,5.9376,5.8869,5.8304,5.7708,5.7156,5.659,5.6088,5.5761,5.5703,5.5703,5.5703,5.7146,5.8127,5.7569,5.8915,5.9992,5.9992,6.0281,6.1012,6.2416,6.3782,6.4955,6.582,6.5897,6.5897,6.5897,6.5897,6.5897,6.5897,6.5897,6.6077,6.6394,6.7049,6.7559,6.7863,6.8428,6.866,6.8639,6.9342,6.9564,3.0256,3.0218,3.0366,3.0981,0.0,0.0,3.7191,3.8136,3.8815,4.02,4.0931,0.0,0.0,0.0,0.0,0.0,4.7959,4.8922,5.0658,5.1641,5.2414,5.3014,5.4157,5.5133,5.5734,5.5844,5.5883,5.5883,5.5631,5.5476,5.5476,5.5476,5.5204,5.4601,5.4599,5.4361,5.3807,5.3828,5.4128,5.473,5.559,5.6427,5.7225,5.7293,5.7797,5.8616,5.8669,5.885,5.9104,5.9104,5.9093,5.9107,5.9096,5.91,5.9101,5.9098,5.911,5.9097,5.9095,5.9104,5.9104,5.9105,5.9104,5.9093,5.914,5.8945,5.8726,5.8714,5.8514,5.8305,5.8245,5.8451,5.8552,5.8071,5.7474,5.6943,5.6694,5.6169,5.5724,5.5684,5.5703,5.5703,5.5703,5.7146,5.7992,5.7126,5.8665,5.9819,5.955,5.9742,6.0569,6.2281,6.3743,6.4955,6.582,6.5897,6.5897,6.5897,6.5897,6.5897,6.5897,6.5897,6.623,6.6901,6.7369,6.7889,6.8546,6.8758,6.8855,6.881,6.97,6.9955,3.0437,3.0253,3.0312,0.0,0.0,0.0,3.7141,3.8631,3.9546,4.0373,0.0,4.339,4.4248,0.0,0.0,4.7886,4.8342,4.8991,5.0674,5.1641,5.2182,5.2202,5.377,5.4881,5.4881,5.4951,5.499,5.499,5.4194,5.3689,5.3689,5.3689,5.3689,5.3689,5.3747,5.3779,5.3779,5.3846,5.3892,5.3911,5.4768,5.5606,5.6386,5.6469,5.6971,5.7792,5.7791,5.8275,5.9085,5.9085,5.9085,5.9085,5.9085,5.9085,5.907,5.9075,5.9081,5.9081,5.9075,5.9075,5.9077,5.9074,5.9078,5.9095,5.9159,5.8574,5.789,5.7883,5.7265,5.6606,5.658,5.7193,5.7543,5.6534,5.6244,5.616,5.5941,5.5846,5.5787,5.5724,5.5703,5.5703,5.5703,5.7146,5.8011,5.7126,5.9165,6.0473,5.9608,6.0262,6.1435,6.3108,6.407,6.4936,6.582,6.5897,6.5897,6.5897,6.5897,6.5897,6.5897,6.5897,6.6256,6.7003,6.7542,6.8145,6.8815,6.9011,6.9085,6.9027,7.0318,7.0493,3.0963,3.0956,0.0,3.2516,0.0,0.0,0.0,3.9496,0.0,0.0,4.4489,4.4757,4.446,0.0,0.0,4.7229,4.7959,4.8941,5.0658,5.1119,5.1505,5.2124,5.2724,5.331,5.3931,5.4058,5.4096,5.4096,5.3844,5.3689,5.3689,5.3689,5.3417,5.2795,5.285,5.2591,5.1989,5.2046,5.2375,5.2995,5.3245,5.4149,5.5572,5.6215,5.6647,5.6893,5.6899,5.706,5.7348,5.7348,5.7348,5.7348,5.7348,5.7348,5.7332,5.7333,5.7339,5.734,5.7343,5.7343,5.7343,5.7341,5.7341,5.7343,5.7363,5.7187,5.6992,5.699,5.6793,5.646,5.5846,5.6321,5.6868,5.647,5.6327,5.6188,5.5942,5.5885,5.5847,5.5705,5.5703,5.5876,5.6511,5.755,5.8204,5.7953,5.9031,5.9588,5.8761,5.9915,6.1223,6.2339,6.3185,6.4301,6.5763,6.5897,6.5897,6.5897,6.5897,6.5897,6.5897,6.5897,6.6545,6.7887,6.7975,6.8629,6.9851,6.9664,6.9482,6.9308,6.9995,7.043,3.1407,3.2158,0.0,3.4463,3.5854,3.7629,4.0556,0.0,0.0,0.0,0.0,4.5449,4.4999,4.5343,0.0,4.7384,4.8017,4.8941,5.0658,5.0906,5.1099,5.1621,5.2046,5.2516,5.3039,5.3146,5.3183,5.3183,5.2892,5.2717,5.2717,5.2717,5.2465,5.194,5.1975,5.1725,5.121,5.124,5.1511,5.2055,5.243,5.3148,5.4215,5.5438,5.6179,5.6514,5.6163,5.5855,5.5571,5.5571,5.5571,5.5591,5.5942,5.6079,5.6138,5.6465,5.6605,5.6605,5.6593,5.6597,5.6597,5.6597,5.6362,5.6089,5.6074,5.584,5.5644,5.5996,5.582,5.5527,5.5351,5.543,5.5624,5.587,5.6138,5.6281,5.6075,5.5995,5.5903,5.5766,5.5724,5.5972,5.6838,5.7434,5.778,5.778,5.828,5.8646,5.8627,5.9319,6.0262,6.1454,6.2608,6.4012,6.5743,6.5897,6.5897,6.5897,6.5897,6.5897,6.5897,6.5897,6.666,6.8298,6.8271,6.8963,7.0483,7.0141,6.989,6.9699,7.001,7.0396,3.1487,0.0,0.0,3.6065,3.7943,0.0,4.3684,0.0,0.0,4.5432,0.0,4.5622,4.5693,4.5761,4.6372,4.8041,4.8419,4.9088,5.0693,5.0906,5.0906,5.0906,5.1659,5.2186,5.2186,5.2253,5.229,5.229,5.161,5.1202,5.1202,5.1202,5.1202,5.1202,5.1186,5.1169,5.1072,5.1074,5.1045,5.0967,5.1833,5.2286,5.2421,5.4248,5.5558,5.6313,5.5532,5.4732,5.401,5.401,5.401,5.4088,5.4869,5.5181,5.5279,5.6079,5.6352,5.6352,5.6352,5.6352,5.6352,5.6352,5.5825,5.5173,5.5174,5.4629,5.418,5.4961,5.4609,5.416,5.4883,5.4531,5.416,5.4824,5.5597,5.6152,5.6003,5.5869,5.5763,5.5692,5.563,5.5915,5.6934,5.7049,5.703,5.7165,5.7396,5.7915,5.8896,5.8607,5.8877,6.0416,6.2204,6.4012,6.5743,6.5897,6.5897,6.5897,6.5897,6.5897,6.5897,6.5897,6.6686,6.8379,6.8398,6.9198,7.0787,7.0501,7.0257,7.0128,7.0199,7.0273,2.9607,3.1901,0.0,0.0,4.0177,4.35,4.4972,4.5316,4.5355,4.5547,4.5586,4.562,4.5703,4.6259,4.7082,4.8187,4.8972,4.9765,5.077,5.0906,5.0906,5.0906,5.116,5.1353,5.1353,5.1418,5.1455,5.1455,5.1299,5.1202,5.1202,5.1202,5.1202,5.1202,5.1202,5.0864,5.0184,5.0176,4.9845,0.0,4.943,4.9904,5.0646,5.3065,5.4323,5.4556,5.4361,5.4166,5.401,5.401,5.401,5.4029,5.4205,5.4283,5.4303,5.4498,5.4556,5.4556,5.4556,5.4564,5.4554,5.456,5.4437,5.4276,5.4277,5.4141,5.4043,5.4238,5.4141,5.3887,5.3398,5.3633,5.3867,5.3359,5.3883,5.4474,5.4283,5.4168,5.4246,5.469,5.4765,5.5457,5.7627,5.7453,5.7376,5.8473,5.8704,5.8665,5.8492,5.8377,5.8434,5.88,6.1512,6.4012,6.5743,6.5897,6.5897,6.5897,6.5897,6.5897,6.5897,6.5897,6.6686,6.8379,6.8398,6.9198,7.0787,7.065,7.0496,7.0251,7.0024,7.0146,2.8662,0.0,0.0,3.9071,0.0,4.492,4.5472,4.5586,4.5586,4.5586,4.5586,4.562,4.5684,4.6066,4.6677,4.7622,4.8508,4.9378,5.021,5.0326,5.0326,5.0326,5.0037,4.986,4.986,4.9924,4.9959,4.9959,4.9959,4.9959,4.9959,4.9959,4.9959,4.9959,4.9959,4.9745,4.9279,4.9279,4.9046,4.8599,4.8672,4.895,4.9517,5.2127,5.3338,5.3385,5.3385,5.3132,5.2761,5.2761,5.2761,5.28,5.321,5.3385,5.3424,5.3854,5.401,5.401,5.401,5.4002,5.3993,5.3993,5.3727,5.3379,5.3379,5.3086,5.2832,5.3262,5.3086,5.2754,5.2715,5.2734,5.2637,5.2187,5.3064,5.3959,5.3779,5.3674,5.3682,5.3916,5.3938,5.4612,5.6788,5.7191,5.7285,5.7434,5.7473,5.7376,5.7088,5.8473,5.9492,5.9492,6.1069,6.3128,6.5686,6.5897,6.5897,6.5897,6.5897,6.5897,6.5897,6.5897,6.6686,6.8379,6.8398,6.9198,7.0843,7.0815,7.0699,7.0515,7.0209,7.0191,2.7721,0.0,3.5985,4.1513,4.3924,0.0,4.5491,4.5586,4.5586,4.5586,4.5586,4.562,4.5684,4.5816,4.6175,4.6965,4.7831,4.8643,4.9378,4.9475,4.9475,4.9475,4.8894,4.8503,4.8503,4.8565,4.8599,4.8599,4.8599,4.8599,4.8599,4.8599,4.8599,4.8599,4.8599,4.8522,4.8386,4.8386,4.8308,4.8153,4.8234,4.8382,4.8644,5.084,5.198,5.2253,5.2253,5.1921,5.1394,5.1394,5.1394,5.1472,5.2195,5.2487,5.2565,5.3288,5.3541,5.3541,5.3541,5.3553,5.3548,5.3554,5.3066,5.248,5.248,5.1973,5.1543,5.2266,5.1953,5.1562,5.2285,5.1933,5.1406,5.1406,5.2498,5.3514,5.3388,5.3261,5.3185,5.3191,5.3357,5.3957,5.5345,5.6482,5.6865,5.5859,5.5703,5.5915,5.6492,5.905,6.08,6.08,6.132,6.282,6.5647,6.5897,6.5897,6.5897,6.5897,6.5897,6.5897,6.5897,6.6647,6.8244,6.8359,6.9225,7.0898,7.0898,7.0871,7.0787,7.0501,7.0323,2.5503,0.0,3.6217,0.0,4.3043,4.3636,0.0,0.0,4.5586,0.0,4.5586,4.562,4.5684,4.6317,4.6889,4.7062,4.7831,4.843,4.8566,4.8566,4.8566,4.8566,4.8526,4.8503,4.8503,4.8565,4.8599,4.8599,4.8599,4.8599,4.8599,4.8599,4.8599,4.8599,4.8599,4.825,4.7473,4.7473,4.7084,4.6346,4.6461,4.693,4.7688,4.8103,4.9072,5.0457,5.0457,5.0809,5.1394,5.1394,5.1394,5.1414,5.1531,5.157,5.159,5.1707,5.1746,5.1746,5.1746,5.1756,5.1752,5.1757,5.168,5.1562,5.1562,5.1484,5.1426,5.1543,5.1484,5.1426,5.1543,5.1484,5.1406,5.1406,5.158,5.1714,5.1587,5.1531,5.1661,5.2166,5.3434,5.44,5.4362,5.5267,5.596,5.5744,5.5703,5.6761,5.9742,6.0512,6.08,6.08,6.3455,6.5397,6.5859,6.5897,6.5897,6.5897,6.5897,6.5897,6.5897,6.5897,6.6474,6.7686,6.8167,6.9225,7.0898,7.0898,7.0871,7.0806,7.0699,7.0547,2.6035,3.1498,3.6653,0.0,4.2125,4.3196,4.4516,0.0,4.4993,4.549,4.5586,4.562,4.5684,4.6008,4.6291,4.6346,4.7096,4.7676,4.7676,4.7676,4.7676,4.7676,4.7293,4.7043,4.7049,4.7098,4.7151,4.7143,4.7143,4.7143,4.7143,4.7143,4.7143,4.7143,4.7143,4.6968,4.6579,4.6113,4.5482,4.4666,4.5204,4.5676,4.6059,4.6611,4.7799,4.9403,4.9891,5.0048,5.0028,5.1004,5.1102,5.0711,5.1219,5.1394,5.1394,5.1394,5.1394,5.1394,5.1394,5.1402,5.1391,5.1405,5.1406,5.1406,5.1406,5.1406,5.1406,5.1406,5.1406,5.1406,5.1406,5.1406,5.1406,5.1406,5.1404,5.1363,5.1276,5.123,5.1256,5.1405,5.2539,5.3237,5.2447,5.4301,5.5866,5.5705,5.5703,5.6934,6.0358,6.08,6.08,6.08,6.3858,6.5897,6.5897,6.4128,6.3858,6.5782,6.5897,6.5897,6.5897,6.5897,6.6571,6.8013,6.8282,6.9225,7.0898,7.0898,7.0871,7.0843,7.0834,7.0758,2.6176,3.1026,3.5223,3.8513,4.0441,4.1895,0.0,0.0,4.4149,0.0,4.5124,4.5293,4.5359,4.5549,4.5715,4.5791,4.6346,4.6772,4.6767,4.6767,4.6689,4.6496,4.5938,4.5577,4.5563,4.5619,4.575,4.5986,4.5997,4.5997,4.5997,4.5997,4.5997,4.5997,4.5997,4.5899,4.5705,4.487,4.4171,4.3575,4.4222,4.4545,4.4585,4.5314,4.6327,4.7584,4.9111,4.9403,4.8915,5.0438,5.0555,4.9833,5.0496,5.0867,5.1063,5.1063,5.1219,5.1394,5.1394,5.1394,5.1398,5.14,5.1406,5.1406,5.1406,5.1406,5.1406,5.1406,5.1406,5.1406,5.1405,5.1404,5.1405,5.1406,5.14,5.1367,5.1269,5.1364,5.1334,5.0975,5.1815,5.224,5.1099,5.3033,5.4954,5.5672,5.5726,5.6934,6.0358,6.08,6.0823,6.0872,6.3907,6.5897,6.5897,6.2762,6.2262,6.5686,6.5897,6.5897,6.5897,6.6301,6.7128,6.8379,6.8629,6.9456,7.0898,7.0898,7.0898,7.0898,7.0898,7.0898,2.4442,2.7208,3.0486,3.546,3.7364,0.0,0.0,0.0,4.3092,4.3131,4.3799,4.4391,4.446,4.515,4.5706,4.58,4.5853,4.5868,4.5877,4.5858,4.5568,4.4833,4.4686,4.4673,4.4673,4.4735,4.5099,4.5944,4.6005,4.5997,4.5997,4.5997,4.5997,4.5997,4.5997,4.5627,4.487,4.3996,4.354,4.351,4.3556,4.3607,4.3669,4.3782,4.3875,4.4157,4.7448,4.8837,4.8876,4.9794,4.9657,4.8876,4.8915,4.9442,5.0165,5.0165,5.0692,5.1394,5.1394,5.1394,5.1394,5.1398,5.1398,5.1406,5.1406,5.1406,5.1406,5.1406,5.1406,5.1406,5.1405,5.1398,5.1405,5.1406,5.1405,5.1355,5.1139,5.1663,5.1889,5.1061,5.1815,5.224,5.1099,5.1061,5.2244,5.5492,5.5827,5.6934,6.0358,6.08,6.0872,6.1061,6.3981,6.5897,6.5897,6.2762,6.2262,6.5686,6.5897,6.5897,6.5897,6.7436,6.8321,6.8398,6.9206,7.0052,7.0898,7.0898,7.0898,7.0898,7.0898,7.0898,2.1297,2.4514,0.0,3.0261,3.2703,3.5051,3.7092,3.9078,4.0816,4.1942,4.2862,4.3492,4.3544,4.4732,4.5726,4.58,4.58,4.5621,4.5104,4.5026,4.4717,4.3866,4.4266,4.4608,4.4615,4.5118,4.5619,4.5972,4.6005,4.5997,4.5997,4.5997,4.5763,4.5239,4.522,4.454,4.3141,4.2811,4.2422,4.1896,4.241,4.2696,4.2792,4.3364,4.3947,4.4562,4.6401,4.6878,4.6515,4.8466,4.8779,4.8076,4.8603,4.8993,4.9267,4.9267,4.9462,4.9813,5.036,5.0575,5.0653,5.1219,5.1405,5.1396,5.1406,5.1406,5.1406,5.1406,5.1406,5.1406,5.1405,5.1394,5.1386,5.1355,5.1765,5.1949,5.1164,5.1169,5.1273,5.0964,5.1235,5.2086,5.3884,5.4175,5.46,5.5818,5.7814,5.9551,6.067,6.0916,6.1021,6.108,6.4093,6.6052,6.5923,6.4782,6.4589,6.582,6.5897,6.5897,6.5897,6.6474,6.7802,6.9956,6.959,6.9879,7.0898,7.0898,7.0898,7.0898,7.0898,7.0898,1.8858,2.193,0.0,0.0,0.0,3.1508,3.3555,3.5771,3.789,3.9624,4.1154,4.217,4.222,4.3657,4.4826,4.4886,4.4901,4.4703,4.4206,4.4142,4.3929,4.3382,4.3808,4.4156,4.4163,4.4718,4.5084,4.5126,4.514,0.0,4.5161,4.5161,4.4928,4.4384,4.4074,4.3374,4.2209,4.1898,4.15,4.0974,4.1518,4.1788,4.1887,4.2454,4.3195,4.4072,4.5021,4.5425,4.5594,4.7588,4.792,4.7217,4.7744,4.8135,4.8408,4.8408,4.8564,4.8915,4.9794,5.0106,5.0243,5.1121,5.1394,5.1398,5.1398,5.1405,5.1406,5.1406,5.1406,5.1406,5.1391,5.1667,5.1899,5.1736,5.2318,5.2685,5.1962,5.1927,5.1815,5.1061,5.1834,5.3343,5.5606,5.6012,5.6399,5.754,5.9648,6.1041,6.0916,6.1021,6.1099,6.1099,6.3129,6.4906,6.5909,6.5928,6.5897,6.5897,6.5897,6.5897,6.5897,6.5897,6.6955,6.9186,6.9571,7.0148,7.0898,7.0898,7.0898,7.0898,7.0898,7.0898,0.0,0.0,0.0,0.0,0.0,0.0,3.0648,0.0,3.4389,3.614,3.8569,4.0383,4.0431,4.1816,4.2967,4.2996,4.3054,4.3123,4.3173,4.3167,4.3167,4.3227,4.3247,4.3266,4.3266,4.3349,4.3404,4.3404,4.346,4.351,4.351,4.3491,4.3471,4.3471,4.2617,4.2151,4.2151,4.1315,4.0907,4.0907,4.0907,4.0945,4.101,4.1007,4.1485,4.2357,4.3251,4.4655,4.6323,4.7194,4.7061,4.63,4.63,4.6827,4.7569,4.7569,4.8076,4.8896,4.9755,5.0087,5.0243,5.1121,5.1394,5.1394,5.1394,5.1396,5.1406,5.1406,5.1406,5.1406,5.14,5.2164,5.2872,5.2543,5.2971,5.3491,5.3509,5.3968,5.3691,5.1486,5.373,5.6012,5.6012,5.6012,5.7172,6.0596,6.1099,6.1137,6.1234,6.1253,6.1253,6.1253,6.1253,6.2588,6.5915,6.6029,6.5897,6.5897,6.5897,6.5897,6.5897,6.5897,6.5897,6.5897,6.9186,7.0898,7.0898,7.0898,7.0898,7.0898,7.0898,7.0898,1.5478,0.0,0.0,0.0,0.0,0.0,0.0,0.0,3.1757,3.3494,3.5887,3.7894,3.8569,3.9084,3.9623,4.0254,4.1902,4.293,4.2405,4.2323,4.2124,4.1564,4.2009,4.2357,4.2357,4.2995,4.34,0.0,4.3419,4.3451,4.351,4.2908,4.2558,4.2558,4.1704,4.1257,4.1257,4.1024,4.0907,4.0907,4.0907,4.0945,4.101,4.0991,4.1482,4.2298,4.2559,4.3668,4.5362,4.6269,4.6515,4.63,4.63,4.6456,4.6651,4.6651,4.7198,4.8057,4.8935,4.9618,5.0243,5.1121,5.1394,5.1394,5.1394,5.1402,5.1394,5.1406,5.1406,5.1406,5.14,5.1544,5.1692,5.1637,5.2258,5.2627,5.1827,5.3688,5.5335,5.4716,5.5354,5.6012,5.6012,5.6012,5.7172,6.0596,6.1099,6.1988,6.4464,6.4793,6.4793,6.4793,6.4793,6.516,6.6127,6.6142,6.6052,6.5923,6.5897,6.5897,6.5897,6.5897,6.5897,6.5897,6.9186,7.0898,7.0898,7.0898,7.0898,7.0898,7.0898,7.0898,1.576,0.0,0.0,0.0,0.0,0.0,2.1741,2.4664,2.7842,0.0,3.2943,3.4855,3.6142,3.6671,3.7089,3.7589,3.9215,4.053,4.0872,4.0596,4.0488,4.0771,4.1216,4.1622,4.197,4.2518,4.271,4.2334,4.2311,4.2177,4.1888,4.1053,4.0578,4.0568,4.0082,3.983,3.9858,3.9858,3.9858,3.9858,3.9858,3.9887,3.9924,4.0293,4.0932,4.1782,4.2135,4.3078,4.4403,4.4987,4.5648,4.6296,4.63,4.63,4.63,4.63,4.6612,4.7237,4.8447,4.9169,4.9755,5.1004,5.1394,5.1394,5.1394,5.1394,5.1398,5.1398,5.1406,5.1403,5.1394,5.1674,5.195,5.1949,5.3023,5.3846,5.3169,5.46,5.6012,5.6012,5.6012,5.6012,5.6012,5.7192,5.8797,6.0809,6.1099,6.1814,6.3826,6.4077,6.4077,6.4077,6.5354,6.6205,6.6205,6.6205,6.6142,6.6029,6.6029,6.6029,6.6029,6.5928,6.5897,6.5897,6.9186,7.0898,7.0898,7.0898,7.0898,7.0898,7.0898,7.0898,1.7327,1.7536,0.0,0.0,1.749,0.0,2.0327,2.1693,2.3567,0.0,2.9711,3.1454,3.3091,3.4035,3.4601,3.4677,3.5422,3.6733,3.8819,3.8524,3.8685,4.0326,4.05,4.079,4.1506,4.1628,4.135,4.0587,4.0513,4.0206,3.9499,3.8713,3.8297,3.8307,3.8297,3.8325,3.8382,3.8402,3.8402,3.8402,3.8402,3.8402,3.8421,3.9198,4.0032,4.0894,4.1669,4.2556,4.3448,4.3524,4.4519,4.6011,4.6003,4.6066,4.6163,4.6163,4.628,4.6651,4.8154,4.872,4.9072,5.0711,5.1258,5.1277,5.1375,5.1394,5.1394,5.1394,5.1404,5.1394,5.1398,5.2102,5.2796,5.2738,5.4116,5.5548,5.5915,5.6029,5.6046,5.6046,5.6029,5.6012,5.6012,5.8526,6.0654,6.1041,6.1099,6.1099,6.1099,6.1099,6.1099,6.1099,6.3826,6.5799,6.6166,6.6205,6.6205,6.6205,6.6205,6.6205,6.6205,6.6029,6.6096,6.6455,6.9379,7.0898,7.0898,7.0898,7.0898,7.0898,7.0898,7.0898,1.8253,1.8324,1.8208,1.7586,0.0,0.0,1.7396,1.9582,2.2067,0.0,2.5822,2.7795,2.8847,2.9166,2.9505,3.022,3.1059,3.2961,3.6775,3.7752,3.8241,3.8651,3.8721,3.8779,3.8934,3.8953,3.8907,3.8806,3.88,3.8713,3.8558,3.8384,3.8306,3.8297,3.8297,3.8316,3.8316,3.8373,3.8402,3.8402,3.8402,3.8402,3.8402,3.8576,3.9138,3.9952,4.0135,4.1093,4.2551,4.2578,4.3212,4.4216,4.4208,4.4641,4.5246,4.5246,4.6144,4.7393,4.7725,4.8252,4.8974,5.0028,5.036,5.0477,5.1199,5.1394,5.1394,5.1394,5.1406,5.1398,5.1394,5.1483,5.1579,5.1661,5.1802,5.2647,5.5412,5.6126,5.6232,5.6232,5.611,5.6012,5.6012,5.6553,5.7927,6.0692,6.1099,6.1099,6.1099,6.1099,6.1099,6.1099,6.1698,6.3207,6.5973,6.6205,6.6205,6.6205,6.6205,6.6205,6.6205,6.6163,6.7328,6.986,7.0571,7.0898,7.0898,7.0898,7.0898,7.0898,7.0898,7.0898,2.0295,1.983,1.9058,1.8259,0.0,0.0,0.0,1.8015,2.0002,2.1694,2.3378,2.4957,2.6251,2.6493,2.665,2.7075,2.7904,2.9563,3.2579,3.4827,3.6498,3.7429,3.7556,3.7711,3.816,3.8199,3.8199,3.8241,3.7846,3.7605,3.7605,3.6811,3.6357,3.6348,3.596,3.5766,3.5765,3.5801,3.6024,3.644,3.644,3.6673,3.712,3.7547,3.7983,3.8458,3.9313,4.0205,4.1042,4.1466,4.1695,4.1891,4.3181,4.397,4.4341,4.4344,4.4894,4.5773,4.6651,4.7217,4.7764,4.9032,4.9755,5.0184,5.0614,5.1063,5.1398,5.1394,5.1406,5.1405,5.1405,5.1355,5.1304,5.1343,5.1201,5.1964,5.5274,5.616,5.5811,5.4138,5.5074,5.611,5.6029,5.6012,5.7172,6.0596,6.1099,6.1099,6.1099,6.1099,6.1099,6.1099,6.1099,6.1795,6.3516,6.5218,6.6205,6.6205,6.6205,6.6205,6.6205,6.6205,6.6935,6.854,6.8559,6.9335,7.0898,6.9225,6.9263,7.0898,7.0898,7.0898,0.0,0.0,0.0,0.0,0.0,1.647,0.0,0.0,0.0,2.0241,2.1435,0.0,0.0,0.0,0.0,0.0,0.0,0.0,0.0,3.0725,0.0,3.5659,3.591,3.625,3.7123,3.7232,3.7154,3.698,3.6323,3.5916,3.5916,3.4795,3.4147,3.4148,3.3519,3.3199,3.3206,3.3195,3.3541,3.4237,3.442,3.4866,3.5585,3.6459,3.6945,3.7178,3.8596,3.9285,3.9505,4.0202,4.0116,3.9786,4.2052,4.3045,4.3201,4.3193,4.3411,4.3899,4.5304,4.5792,4.6085,4.7764,4.913,5.0106,5.0106,5.0715,5.1408,5.1406,5.1384,5.1389,5.1408,5.1381,5.1375,5.1308,5.1249,5.1903,5.451,5.5201,5.4521,5.183,5.4002,5.6251,5.6026,5.6012,5.7172,6.0596,6.1099,6.1099,6.1099,6.1099,6.1099,6.1099,6.1099,6.1099,6.1099,6.3632,6.5508,6.6166,6.6205,6.6205,6.6205,6.6205,6.6205,6.6205,6.6205,6.7454,6.9997,6.7231,6.7256,6.9854,7.0508,7.069,0.0,0.0,0.0,0.0,1.8631,0.0,0.0,0.0,1.768,1.7966,0.0,0.0,0.0,0.0,0.0,0.0,0.0,0.0,2.3485,2.5803,2.8683,3.1988,3.2385,3.2714,3.3585,3.3682,3.3353,3.259,3.2435,3.2377,3.2377,3.2938,3.3247,3.3247,3.3219,3.32,3.3209,3.3206,3.3242,3.3358,3.412,3.4556,3.4672,3.5546,3.6382,3.712,3.7314,3.7836,3.8552,3.8649,3.868,3.876,3.9833,4.0715,4.1406,4.1397,4.2376,4.3723,4.3938,4.3997,4.427,4.6027,4.8174,5.0106,5.0106,5.0708,5.1405,5.1403,5.1369,5.1338,5.1374,5.1359,5.1308,5.13,5.1249,5.1287,5.1664,5.1754,5.1683,5.1362,5.4002,5.6251,5.6026,5.6012,5.7172,6.0596,6.1099,6.1099,6.1099,6.1099,6.1099,6.1099,6.1099,6.1099,6.1099,6.1466,6.2975,6.6011,6.6205,6.6205,6.6205,6.6205,6.6205,6.6205,6.6205,6.6378,6.6724,6.6174,6.5939,6.6105,6.9088,6.9834,0.0,0.0,0.0,0.0,0.0,0.0,1.5475,0.0,1.7603,0.0,0.0,0.0,0.0,0.0,0.0,0.0,1.9805,0.0,0.0,0.0,2.459,0.0,0.0,0.0,3.1555,3.2068,3.1797,3.0443,3.0346,3.0346,3.0346,3.1178,3.1661,3.1661,3.1671,3.169,3.1689,3.1687,3.1956,3.2446,3.2831,3.3518,3.4517,3.4886,3.5527,3.6382,3.6887,3.7322,3.768,3.8186,3.8124,3.7727,3.8092,3.9096,4.0355,4.0348,4.1129,4.226,4.2772,4.2947,4.3318,4.5566,4.7018,4.808,4.9048,4.996,5.0641,5.0644,5.063,5.0725,5.1211,5.132,5.13,5.13,5.1267,5.1259,5.1259,5.1259,5.1269,5.1292,5.4071,5.6386,5.6302,5.6232,5.666,5.8095,5.8308,5.8994,6.0866,6.1099,6.1099,6.1099,6.1099,6.1099,6.1099,6.1099,6.2569,6.5973,6.6205,6.6205,6.6205,6.6205,6.6205,6.6205,6.6097,6.6029,6.6029,6.5755,6.5314,6.4819,6.7895,6.9034,2.4995,0.0,0.0,0.0,0.0,0.0,0.0,0.0,0.0,0.0,0.0,0.0,0.0,0.0,0.0,0.0,0.0,1.918,0.0,1.9812,0.0,0.0,0.0,0.0,0.0,3.0424,3.0056,2.8373,0.0,2.8489,2.8277,2.9282,2.9998,3.023,3.023,3.0355,3.0606,3.0595,3.0923,3.1538,3.1786,3.2559,3.379,3.4051,3.4633,3.5488,3.611,3.6518,3.6789,3.743,3.7311,3.6744,3.674,3.7709,3.9115,3.9365,3.9994,4.0872,4.173,4.2183,4.272,4.4601,4.5711,4.6529,4.7752,4.904,5.0058,4.9811,5.0069,5.0463,5.0579,5.0969,5.13,5.13,5.13,5.13,5.13,5.13,5.13,5.13,5.4126,5.6503,5.6503,5.6427,5.6353,5.6353,5.6317,5.746,6.0692,6.1099,6.1099,6.1099,6.1099,6.1099,6.1099,6.1099,6.2569,6.5973,6.6205,6.6205,6.6205,6.6205,6.6184,6.6121,6.5788,6.5618,6.5618,6.5364,6.492,6.4359,6.6265,6.741,0.0,0.0,0.0,2.0469,0.0,0.0,0.0,0.0,1.7833,0.0,0.0,0.0,0.0,0.0,0.0,0.0,0.0,0.0,0.0,0.0,0.0,0.0,0.0,0.0,0.0,2.8111,2.7426,0.0,2.6334,2.6431,2.5666,2.7194,2.847,2.9321,2.934,2.9747,3.0598,3.0606,3.0615,3.0643,3.1499,3.193,3.2008,3.2916,3.3779,3.4536,3.4575,3.5061,3.5838,3.5877,3.5865,3.5842,3.5842,3.6428,3.7391,3.8234,3.909,3.9967,4.076,4.1641,4.2403,4.2509,4.424,4.6307,4.6364,4.8125,4.9928,4.9081,5.0022,5.0891,4.9294,5.0073,5.13,5.13,5.13,5.13,5.13,5.13,5.13,5.13,5.4126,5.6503,5.6503,5.6503,5.6483,5.6483,5.6375,5.746,6.0692,6.1099,6.1099,6.1099,6.1099,6.1099,6.1099,6.1099,6.2569,6.5973,6.6205,6.6205,6.6205,6.6205,6.6099,6.5923,6.5271,6.4924,6.4924,6.4942,6.4708,6.4284,6.3935,6.4642,0.0,0.0,2.2074,2.1713,0.0,0.0,0.0,0.0,0.0,0.0,0.0,0.0,0.0,0.0,0.0,0.0,0.0,0.0,0.0,0.0,0.0,0.0,0.0,0.0,0.0,0.0,0.0,0.0,2.4892,0.0,0.0,2.6536,2.7271,2.758,2.8702,2.9437,2.9747,2.9736,3.0025,3.0595,3.0311,3.0773,3.1911,3.2221,3.2858,3.374,3.4264,3.4672,3.4983,3.5566,3.5799,3.5807,3.5807,3.599,3.6445,3.7909,3.8994,3.985,4.0701,4.1247,4.1621,4.2206,4.3001,4.3923,4.5046,4.6381,4.7587,4.7859,4.8339,4.8787,4.8806,4.8358,4.791,4.791,4.9644,5.13,5.13,5.13,5.13,5.13,5.2255,5.3794,5.6093,5.6503,5.6503,5.6503,5.6395,5.6686,5.7776,5.9894,6.1291,6.1291,6.1291,6.1291,6.1291,6.1191,6.1582,6.2743,6.282,6.3845,6.6108,6.6055,6.5762,6.5239,6.5027,6.4907,6.4907,6.4907,6.4671,6.4284,6.4121,6.4294,2.557,2.4045,0.0,2.229,2.0634,0.0,1.8041,0.0,0.0,0.0,0.0,0.0,0.0,0.0,0.0,0.0,0.0,0.0,0.0,1.5526,0.0,0.0,0.0,0.0,0.0,0.0,2.4215,2.3364,2.3867,0.0,0.0,0.0,2.6083,2.6683,2.8083,2.8992,2.9302,2.9611,3.0046,3.0586,3.0034,3.035,3.1441,3.1457,3.195,3.2839,3.339,3.3798,3.4148,3.4983,3.5333,3.5371,3.5682,3.5799,3.6012,3.7755,3.9124,4.0221,4.0804,4.1026,4.1159,4.1755,4.2148,4.2602,4.3669,4.5039,4.6254,4.6507,4.7092,4.7676,4.7832,4.7033,4.6196,4.6196,4.8806,5.13,5.13,5.13,5.13,5.13,5.13,5.2002,5.4262,5.5684,5.6503,5.6503,5.6427,5.6364,5.6364,5.8289,6.0125,6.1331,6.1467,6.1454,6.14,6.1225,6.1099,6.1099,6.1099,6.2046,6.4188,6.5083,6.478,6.3145,6.4301,6.4907,6.4907,6.4907,6.4764,6.452,6.452,6.4424]},{"header":{"parameterUnit":"m.s-1","parameterCategory":1,"la1":30.6,"la2":29.2853,"lo1":-89.7004,"lo2":-87.6739,"dy":0.0162,"dx":0.0183,"nx":112,"ny":82,"refTime":"2026-05-07T12:00:00:Z","depth":0,"parameterNumber":3,"parameterNumberName":"V-component_of_WINDS"},"data":[0.0,0.0,0.0,0.0,0.0,0.0,0.0,0.0,0.0,0.0,0.0,0.0,0.0,0.0,0.0,0.0,0.0,0.0,0.0,0.0,0.0,0.0,0.0,0.0,0.0,0.0,0.0,0.0,0.0,0.0,0.0,0.0,0.0,0.0,0.0,0.0,0.0,0.0,0.0,0.0,0.0,0.0,0.0,0.0,0.0,0.0,0.0,0.0,0.0,0.0,0.0,0.0,0.0,0.0,0.0,0.0,0.0,0.0,0.0,0.0,0.0,0.0,0.0,0.0,0.0,0.0,0.0,0.0,0.0,0.0,0.0,0.0,0.0,0.0,0.0,0.0,0.0,0.0,0.0,0.0,0.0,0.0,0.0,0.0,0.0,0.0,0.0,0.0,0.0,0.0,0.6809,0.7385,0.813,0.85,0.8282,0.8038,0.7652,0.7076,0.0,0.0,0.0,0.0,0.0,0.0,0.0,0.0,0.0,0.0,0.0,0.0,0.0,0.0,0.0,0.0,0.0,0.0,0.0,0.0,0.0,0.0,0.0,0.0,0.0,0.0,0.0,0.0,0.0,0.0,0.0,0.0,0.0,0.0,0.0,0.0,0.0,0.0,0.0,0.0,0.0,0.0,0.0,0.0,0.0,0.0,0.0,0.0,0.0,0.0,0.0,0.0,0.0,0.0,0.0,0.0,0.0,0.0,0.0,0.0,0.0,0.0,0.0,0.0,0.0,0.0,0.0,0.0,0.0,0.0,0.0,0.0,0.0,0.0,0.0,0.0,0.0,0.0,0.0,0.0,0.0,0.0,0.0,0.0,0.0,0.0,0.0,0.0,0.0,0.0,0.0,0.0,0.0,0.0,0.0,0.0,0.0,0.0,0.0,0.0,0.0,0.0,0.0,0.0,0.6844,0.7839,0.8331,0.8532,0.8402,0.8166,0.7812,0.7312,0.0,0.0,0.0,0.0,0.0,0.0,0.0,0.0,0.0,0.0,0.0,0.0,0.0,0.0,0.0,0.0,0.0,0.0,0.0,0.0,0.0,0.0,0.0,0.0,0.0,0.0,0.0,0.0,0.0,0.0,0.0,0.0,0.0,0.0,0.0,0.0,0.0,0.0,0.0,0.0,0.0,0.0,0.0,0.0,0.0,0.0,0.0,0.0,0.0,0.0,0.0,0.0,0.0,0.0,0.0,0.0,0.0,0.0,0.0,0.0,0.0,0.0,0.0,0.0,0.0,0.0,0.0,0.0,0.0,0.0,0.0,0.0,0.0,0.0,0.0,0.0,0.0,0.0,0.0,0.0,0.0,0.0,0.0,0.0,0.0,0.0,0.0,0.0,0.0,0.0,0.0,0.0,0.0,0.0,0.0,0.0,0.0,0.0,0.0,0.0,0.0,0.0,0.0,0.6717,0.7385,0.8079,0.8413,0.8513,0.8334,0.8095,0.7722,0.7179,0.648,0.0,0.0,0.0,0.0,0.0,0.0,0.0,0.0,0.0,0.0,0.0,0.0,0.0,0.0,0.0,0.0,0.0,0.0,0.0,0.0,0.0,0.0,0.0,0.0,0.0,0.0,0.0,0.0,0.0,0.0,0.0,0.0,0.0,0.0,0.0,0.0,0.0,0.0,0.0,0.0,0.0,0.0,0.0,0.0,0.0,0.0,0.0,0.0,0.0,0.0,0.0,0.0,0.0,0.0,0.0,0.0,0.0,0.0,0.0,0.0,0.0,0.0,0.0,0.0,0.0,0.0,0.0,0.0,0.0,0.0,0.0,0.0,0.0,0.0,0.0,0.0,0.0,0.0,0.0,0.0,0.0,0.0,0.0,0.0,0.0,0.0,0.0,0.0,0.0,0.0,0.0,0.0,0.0,0.0,0.0,0.0,0.0,0.0,0.0,0.0,0.0,0.0,0.7353,0.7869,0.8201,0.8446,0.8492,0.8255,0.7986,0.7576,0.698,0.6352,0.0,0.0,0.0,0.0,0.0,0.0,0.0,0.0,0.0,0.0,0.0,0.0,0.0,0.0,0.0,0.0,0.0,0.0,0.0,0.0,0.0,0.0,0.0,0.0,0.0,0.0,0.0,0.0,0.0,0.0,0.0,0.0,0.0,0.0,0.0,0.0,0.0,0.0,0.0,0.0,0.0,0.0,0.0,0.0,0.0,0.0,0.0,0.0,0.0,0.0,0.0,0.0,0.0,0.0,0.0,0.0,0.0,0.0,0.0,0.0,0.0,0.0,0.0,0.0,0.0,0.0,0.0,0.0,0.0,0.0,0.0,0.0,0.0,0.0,0.0,0.0,0.0,0.0,0.0,0.0,0.0,0.0,0.0,0.0,0.0,0.0,0.0,0.0,0.0,0.0,0.0,0.0,0.0,0.0,0.0,0.0,0.0,0.0,0.0,0.0,0.0,0.0,0.7421,0.7956,0.8209,0.8446,0.8492,0.8255,0.7915,0.7456,0.6853,0.6149,0.0,0.0,0.0,0.0,0.0,0.0,0.0,0.0,0.0,0.0,0.0,0.0,0.0,0.0,0.0,0.0,0.0,0.0,0.0,0.0,0.0,0.0,0.0,0.0,0.0,0.0,0.0,0.0,0.0,0.0,0.0,0.0,0.0,0.0,0.0,0.0,0.0,0.0,0.0,0.0,0.0,0.0,0.0,0.0,0.0,0.0,0.0,0.0,0.0,0.0,0.0,0.0,0.0,0.0,0.0,0.0,0.0,0.0,0.0,0.0,0.0,0.0,0.0,0.0,0.0,0.0,0.0,0.0,0.0,0.0,0.0,0.0,0.0,0.0,0.0,0.0,0.0,0.0,0.0,0.0,0.0,0.0,0.0,0.0,0.0,0.0,0.0,0.0,0.0,0.0,0.0,0.0,0.0,0.0,0.0,0.0,0.0,0.0,0.0,0.0,0.0,0.0,0.6854,0.7348,0.0,0.7792,0.7807,0.7514,0.7185,0.6759,0.6203,0.0,0.0,0.0,0.0,0.0,0.0,0.0,0.0,0.0,0.0,0.0,0.0,0.0,0.0,0.0,0.0,0.0,0.0,0.0,0.0,0.0,0.0,0.0,0.0,0.0,0.0,0.0,0.0,0.0,0.0,0.0,0.0,0.0,0.0,0.0,0.0,0.0,0.0,0.0,0.0,0.0,0.0,0.0,0.0,0.0,0.0,0.0,0.0,0.0,0.0,0.0,0.0,0.0,0.0,0.0,0.0,0.0,0.0,0.0,0.0,0.0,0.0,0.0,0.0,0.0,0.0,0.0,0.0,0.0,0.0,0.0,0.0,0.0,0.0,0.0,0.0,0.0,0.0,0.0,0.0,0.0,0.0,0.0,0.0,0.0,0.0,0.0,0.0,0.0,0.0,0.0,0.0,0.0,0.0,0.0,0.0,0.0,0.0,0.0,0.0,0.0,0.0,0.587,0.651,0.6979,0.0,0.7369,0.7348,0.7029,0.6684,0.626,0.5732,0.0,0.0,0.0,0.0,0.0,0.0,0.0,0.0,0.0,0.0,0.0,0.0,0.0,0.0,0.0,0.0,0.0,0.0,0.0,0.0,0.0,0.0,0.0,0.0,0.0,0.0,0.0,0.0,0.0,0.0,0.0,0.0,0.0,0.0,0.0,0.0,0.0,0.0,0.0,0.0,0.0,0.0,0.0,0.0,0.0,0.0,0.0,0.0,0.0,0.0,0.0,0.0,0.0,0.0,0.0,0.0,0.0,0.0,0.0,0.0,0.0,0.0,0.0,0.0,0.0,0.0,0.0,0.0,0.0,0.0,0.0,0.0,0.0,0.0,0.0,0.0,0.0,0.0,0.0,0.0,0.0,0.0,0.0,0.0,0.0,0.0,0.0,0.0,0.0,0.0,0.0,0.0,0.0,0.0,0.0,0.0,0.0,0.0,0.0,0.0,0.0,0.0,0.586,0.6508,0.6979,0.7186,0.7303,0.7241,0.6927,0.6517,0.6053,0.0,0.0,0.0,0.0,0.0,0.0,0.0,0.0,0.0,0.0,0.0,0.0,0.0,0.0,0.0,0.0,0.0,0.0,0.0,0.0,0.0,0.0,0.0,0.0,0.0,0.0,0.0,0.0,0.0,0.0,0.0,0.0,0.0,0.0,0.0,0.0,0.0,0.0,0.0,0.0,0.0,0.0,0.0,0.0,0.0,0.0,0.0,0.0,0.0,0.0,0.0,0.0,0.0,0.0,0.0,0.0,0.0,0.0,0.0,0.0,0.0,0.0,0.0,0.0,0.0,0.0,0.0,0.0,0.0,0.0,0.0,0.0,0.0,0.0,0.0,0.0,0.0,0.0,0.0,0.0,0.0,0.0,0.0,0.0,0.0,0.0,0.0,0.0,0.0,0.0,0.0,0.0,0.0,0.0,0.0,0.0,0.0,0.0,0.0,0.0,0.0,0.0,0.0,0.5248,0.5773,0.6232,0.6417,0.6521,0.6466,0.6188,0.5939,0.5569,0.5031,0.0,0.0,0.0,0.0,0.0,0.0,0.0,0.0,0.0,0.0,0.0,0.0,0.0,0.0,0.0,0.0,0.0,0.0,0.0,0.0,0.0,0.0,0.0,0.0,0.0,0.0,0.0,0.0,0.0,0.0,0.0,0.0,0.0,0.0,0.0,0.0,0.0,0.0,0.0,0.0,0.0,0.0,0.0,0.0,0.0,0.0,0.0,0.0,0.0,0.0,0.0,0.0,0.0,0.0,0.0,0.0,0.0,0.0,0.0,0.0,0.0,0.0,0.0,0.0,0.0,0.0,0.0,0.0,0.0,0.0,0.0,0.0,0.0,0.0,0.0,0.0,0.0,0.0,0.0,0.0,0.0,0.0,0.0,0.0,0.0,0.0,0.0,0.0,0.0,0.0,0.0,0.0,0.0,0.0,0.0,0.0,0.0,0.0,0.0,0.0,0.0,0.0,0.4898,0.5494,0.5931,0.611,0.618,0.6131,0.5935,0.5714,0.539,0.4918,0.0,0.0,0.0,0.0,0.0,0.0,0.0,0.0,0.0,0.0,0.0,0.0,0.0,0.0,0.0,0.0,0.0,0.0,0.0,0.0,0.0,0.0,0.0,0.0,0.0,0.0,0.0,0.0,0.0,0.0,0.0,0.0,0.0,0.0,0.0,0.0,0.0,0.0,0.0,0.0,0.0,0.0,0.0,0.0,0.0,0.0,0.0,0.0,0.0,0.0,0.0,0.0,0.0,0.0,0.0,0.0,0.0,0.0,0.0,0.0,0.0,0.0,0.0,0.0,0.0,0.0,0.0,0.0,0.0,0.0,0.0,0.0,0.0,0.0,0.0,0.0,0.0,0.0,0.0,0.0,0.0,0.0,0.0,0.0,0.0,0.0,0.0,0.0,0.0,0.0,0.0,0.0,0.0,0.0,0.0,0.0,0.0,0.0,0.0,0.0,0.0,0.0,0.4778,0.5441,0.5851,0.5908,0.5928,0.6016,0.5802,0.5674,0.5367,0.4904,0.0,0.0,0.0,0.0,0.0,0.0,0.0,0.0,0.0,0.0,0.0,0.0,0.0,0.0,0.0,0.0,0.0,0.0,0.0,0.0,0.0,0.0,0.0,0.0,0.0,0.0,0.0,0.0,0.0,0.0,0.0,0.0,0.0,0.0,0.0,0.0,0.0,0.0,0.0,0.0,0.0,0.0,0.0,0.0,0.0,0.0,0.0,0.0,0.0,0.0,0.0,0.0,0.0,0.0,0.0,0.0,0.0,0.0,0.0,0.0,0.4752,0.0,0.0,0.0,0.0,0.0,0.0,0.0,0.0,0.0,0.0,0.0,0.0,0.0,0.0,0.0,0.0,0.0,0.0,0.0,0.0,0.0,0.0,0.0,0.0,0.0,0.0,0.0,0.0,0.0,0.0,0.0,0.0,0.0,0.0,0.0,0.0,0.0,0.0,0.0,0.0,0.0,0.4196,0.4951,0.5483,0.5655,0.5926,0.5892,0.5552,0.5376,0.5011,0.4362,0.4062,0.0,0.0,0.0,0.0,0.0,0.0,0.0,0.0,0.0,0.0,0.0,0.0,0.0,0.0,0.0,0.0,0.0,0.0,0.0,0.0,0.0,0.0,0.0,0.0,0.0,0.0,0.0,0.0,0.0,0.0,0.0,0.0,0.0,0.0,0.0,0.0,0.0,0.0,0.0,0.0,0.0,0.0,0.0,0.0,0.0,0.0,0.0,0.0,0.0,0.0,0.0,0.0,0.0,0.0,0.0,0.0,0.0,0.0,0.0,0.0,0.4701,0.0,0.0,0.0,0.0,0.0,0.0,0.0,0.0,0.0,0.0,0.0,0.0,0.0,0.0,0.0,0.0,0.0,0.0,0.0,0.0,0.0,0.0,0.0,0.0,0.0,0.0,0.0,0.0,0.0,0.0,0.0,0.0,0.0,0.0,0.0,0.0,0.0,0.0,0.0,0.0,0.3823,0.4594,0.5183,0.5468,0.5737,0.5844,0.5425,0.5152,0.4711,0.4115,0.3597,0.0,0.0,0.0,0.0,0.0,0.0,0.0,0.0,0.0,0.0,0.0,0.0,0.0,0.0,0.0,0.0,0.0,0.0,0.0,0.0,0.0,0.0,0.0,0.0,0.0,0.0,0.0,0.0,0.0,0.0,0.0,0.0,0.0,0.0,0.0,0.0,0.0,0.0,0.0,0.0,0.0,0.0,0.0,0.0,0.0,0.0,0.0,0.0,0.0,0.0,0.0,0.0,0.0,0.5491,0.5584,0.5735,0.5651,0.5605,0.5643,0.5252,0.5001,0.4759,0.4535,0.0,0.0,0.0,0.0,0.0,0.0,0.0,0.0,0.0,0.0,0.0,0.0,0.0,0.0,0.0,0.0,0.0,0.0,0.0,0.0,0.0,0.0,0.0,0.0,0.2152,0.2106,0.0,0.0,0.0,0.0,0.0,0.0,0.0,0.0,0.0,0.0,0.0,0.0,0.3588,0.4258,0.4765,0.5159,0.5546,0.5548,0.5298,0.4913,0.4391,0.376,0.319,0.287,0.0,0.0,0.0,0.0,0.0,0.0,0.0,0.0,0.0,0.0,0.0,0.0,0.0,0.0,0.0,0.0,0.0,0.0,0.0,0.0,0.0,0.0,0.0,0.0,0.0,0.0,0.0,0.0,0.0,0.0,0.0,0.0,0.5143,0.5281,0.0,0.0,0.0,0.0,0.0,0.0,0.0,0.0,0.0,0.0,0.0,0.0,0.0,0.5047,0.5141,0.5377,0.5508,0.5533,0.5614,0.5551,0.5571,0.5561,0.561,0.5825,0.5764,0.0,0.5118,0.4867,0.0,0.0,0.0,0.0,0.0,0.0,0.0,0.0,0.0,0.0,0.0,0.0,0.0,0.0,0.0,0.0,0.0,0.0,0.0,0.0,0.0,0.0,0.1862,0.1834,0.1828,0.1822,0.0,0.2081,0.2196,0.1973,0.1887,0.0,0.0,0.0,0.0,0.0,0.0,0.0,0.3037,0.3615,0.4053,0.4547,0.481,0.4933,0.4562,0.4196,0.3736,0.3316,0.2745,0.2385,0.2228,0.1233,0.0,0.0,0.0,0.0,0.0,0.0,0.0,0.0,0.0,0.0,0.0,0.0,0.0,0.0,0.0,0.0,0.0,0.0,0.0,0.0,0.0,0.0,0.0,0.0,0.0,0.0,0.0,0.0,0.0,0.5148,0.5488,0.5472,0.5532,0.548,0.0,0.0,0.0,0.0,0.0,0.0,0.0,0.0,0.0,0.4945,0.521,0.5418,0.5561,0.5731,0.5865,0.5963,0.6002,0.6049,0.61,0.61,0.6149,0.6233,0.6182,0.607,0.5888,0.541,0.5108,0.4914,0.0,0.0,0.0,0.0,0.3123,0.2801,0.2561,0.2394,0.0,0.2109,0.0,0.0,0.0,0.0,0.0,0.0,0.0,0.0,0.0,0.0,0.1821,0.1825,0.1826,0.1826,0.1826,0.1871,0.1972,0.0,0.173,0.1567,0.1528,0.0,0.0,0.0,0.0,0.1964,0.2494,0.3,0.3491,0.3816,0.4193,0.4193,0.3947,0.3477,0.3157,0.2762,0.2291,0.1983,0.1827,0.0571,-0.072,0.0,0.0,0.0,0.0,0.0,0.0,0.0,0.0,0.0,0.0,0.0,0.0,0.0,0.0,0.0,0.0,0.0,0.0,0.0,0.0,0.0,0.0,0.0,0.0,0.0,0.0,0.0,0.0,0.5491,0.5836,0.5744,0.5841,0.5831,0.0,0.0,0.0,0.0,0.0,0.0,0.4867,0.5006,0.5181,0.541,0.5633,0.5837,0.6019,0.6133,0.6257,0.6388,0.6411,0.6457,0.6525,0.6525,0.6562,0.6619,0.6529,0.6488,0.6445,0.588,0.5555,0.539,0.5114,0.4603,0.41,0.368,0.3191,0.2816,0.2425,0.2335,0.2231,0.212,0.0,0.1869,0.1593,0.0,0.0,0.0,0.0,0.168,0.1754,0.1818,0.1869,0.1892,0.1903,0.1907,0.1899,0.1879,0.1814,0.0,0.1586,0.1528,0.1423,0.0,0.0,0.0,0.0,0.1758,0.2237,0.2583,0.291,0.3326,0.3576,0.3576,0.3332,0.2998,0.2695,0.2317,0.2011,0.1619,0.1256,0.0101,-0.1348,-0.2922,0.0,0.0,0.0,0.0,0.0,0.0,0.0,0.0,0.0,0.0,0.0,0.0,0.0,0.0,0.0,0.0,0.0,0.0,0.0,0.0,0.0,0.0,0.0,0.0,0.0,0.0,0.0,0.0,0.0,0.6233,0.6333,0.0,0.0,0.0,0.0,0.5591,0.5399,0.5271,0.5333,0.5357,0.552,0.5872,0.5982,0.6119,0.6294,0.6474,0.6568,0.6578,0.6664,0.6709,0.6713,0.6713,0.6715,0.6715,0.6623,0.6582,0.6553,0.618,0.597,0.5855,0.5582,0.5182,0.4556,0.3975,0.3306,0.276,0.2195,0.198,0.2003,0.2003,0.1924,0.1812,0.1617,0.1465,0.0,0.0,0.1631,0.1681,0.1827,0.1881,0.1927,0.1928,0.1951,0.1964,0.1935,0.1928,0.1889,0.0,0.1695,0.1635,0.1571,0.0,0.1534,0.1598,0.1659,0.1839,0.2283,0.2364,0.2546,0.2956,0.3085,0.3085,0.3085,0.264,0.2475,0.2355,0.1912,0.1193,0.0213,-0.0308,-0.1285,-0.2947,-0.2858,0.0,0.0,0.0,0.0,0.0,0.0,0.0,0.0,0.0,0.0,0.0,0.0,0.0,0.0,0.0,0.0,0.0,0.0,0.0,0.0,0.0,0.0,0.0,0.0,0.0,0.0,0.0,0.0,0.6486,0.6733,0.0,0.6422,0.6269,0.6025,0.5805,0.5802,0.5756,0.58,0.5921,0.607,0.6257,0.6408,0.6543,0.6662,0.6784,0.6876,0.6935,0.7029,0.7041,0.6984,0.6984,0.6952,0.6888,0.6741,0.6678,0.666,0.6413,0.613,0.5774,0.5569,0.5176,0.4493,0.3829,0.3356,0.2901,0.2283,0.2039,0.2044,0.2024,0.1964,0.1889,0.1838,0.1688,0.1668,0.1678,0.1822,0.186,0.1891,0.1915,0.1936,0.1956,0.1969,0.1973,0.1962,0.1945,0.1918,0.1875,0.1818,0.1764,0.1722,0.1706,0.1713,0.1755,0.1795,0.184,0.201,0.2055,0.2209,0.2345,0.2346,0.2337,0.2313,0.2148,0.2113,0.209,0.1342,0.0545,-0.0325,-0.1046,-0.1928,-0.3069,-0.2988,-0.2818,0.0,0.0,0.0,0.0,0.0,0.0,0.0,0.0,0.0,0.0,0.0,0.0,0.0,0.0,0.0,0.0,0.0,0.0,0.0,0.0,0.0,0.0,0.0,0.0,0.0,0.0,0.6665,0.6785,0.7119,0.7193,0.6776,0.6659,0.641,0.6151,0.599,0.6027,0.6174,0.63,0.6433,0.6584,0.6737,0.6858,0.6945,0.7035,0.7096,0.7127,0.7188,0.7184,0.7125,0.7125,0.7076,0.698,0.6833,0.6735,0.6668,0.6517,0.6152,0.5694,0.5456,0.5059,0.4445,0.3622,0.3244,0.2881,0.2356,0.2095,0.2089,0.2059,0.2016,0.1972,0.1952,0.1925,0.1904,0.1913,0.1924,0.1936,0.1956,0.1954,0.1952,0.1972,0.1977,0.1977,0.1977,0.1961,0.1947,0.1947,0.1897,0.1849,0.1829,0.1825,0.1832,0.1853,0.1881,0.1909,0.1928,0.1958,0.1977,0.1977,0.1977,0.1964,0.1934,0.1903,0.1752,0.1371,0.0555,-0.0326,-0.1075,-0.1995,-0.2674,-0.3232,-0.3242,-0.3139,-0.2943,0.0,0.0,0.0,0.0,0.0,0.0,0.0,0.0,0.0,0.0,0.0,0.0,0.0,0.0,0.0,0.0,0.0,0.0,0.0,0.0,0.0,0.0,0.0,0.6064,0.6613,0.7035,0.7157,0.7491,0.7592,0.723,0.6873,0.6598,0.6545,0.6189,0.6182,0.6445,0.6464,0.6586,0.6849,0.6947,0.7037,0.7129,0.7221,0.7221,0.7129,0.7133,0.7131,0.7125,0.7125,0.7076,0.6984,0.6892,0.6754,0.6586,0.6496,0.6053,0.5381,0.5381,0.4978,0.4172,0.3498,0.2961,0.2694,0.2289,0.2155,0.215,0.2121,0.2089,0.2064,0.2065,0.2046,0.2155,0.2055,0.2044,0.2022,0.2018,0.1996,0.1977,0.1977,0.1977,0.1977,0.1977,0.1977,0.1977,0.1977,0.1929,0.1889,0.1889,0.1889,0.1889,0.1889,0.1913,0.0,0.1932,0.1958,0.1977,0.1977,0.1977,0.1964,0.1932,0.1902,0.1394,0.0225,-0.0441,-0.1182,-0.1972,-0.2798,-0.3289,-0.3636,-0.3723,-0.3592,-0.3451,0.0,0.0,0.0,0.0,0.0,0.0,0.0,0.0,0.0,0.0,0.0,0.0,0.0,0.0,0.0,0.0,0.0,0.0,0.0,0.0,0.0,0.5934,0.6265,0.6331,0.6782,0.722,0.7516,0.7793,0.7741,0.7195,0.7079,0.688,0.6364,0.6306,0.6404,0.6545,0.6674,0.6809,0.6947,0.7041,0.7133,0.7223,0.7311,0.7311,0.7225,0.7286,0.725,0.7125,0.7125,0.7076,0.6984,0.6892,0.679,0.6682,0.659,0.624,0.578,0.5513,0.4978,0.4172,0.3498,0.2826,0.2289,0.2289,0.2155,0.2153,0.2145,0.2107,0.2068,0.209,0.2076,0.2049,0.2035,0.2041,0.2043,0.1999,0.1982,0.1977,0.1977,0.1977,0.1977,0.1977,0.1977,0.1977,0.1977,0.1963,0.1952,0.1952,0.1952,0.1952,0.1952,0.1959,0.0,0.1964,0.1971,0.1977,0.1977,0.1358,0.0732,0.0238,-0.0,-0.0231,-0.0331,-0.1177,-0.1979,-0.2748,-0.3012,-0.3401,-0.3833,-0.406,-0.4156,0.0,0.0,0.0,0.0,0.0,0.0,0.0,0.0,0.0,0.0,0.0,0.0,0.0,0.0,0.0,0.0,0.0,0.0,0.0,0.0,0.0,0.0,0.6355,0.67,0.6798,0.7097,0.7423,0.7736,0.7983,0.7922,0.7262,0.7315,0.7121,0.6425,0.648,0.6566,0.6694,0.6798,0.6894,0.6986,0.7078,0.7152,0.7205,0.7292,0.7292,0.7207,0.7256,0.7225,0.7125,0.7125,0.7076,0.6986,0.6933,0.6841,0.6723,0.6668,0.634,0.0,0.0,0.0,0.0,0.0,0.2692,0.2155,0.2155,0.2155,0.2153,0.214,0.2103,0.2067,0.2085,0.2069,0.2044,0.2039,0.2041,0.2037,0.2003,0.1986,0.1977,0.1977,0.1977,0.1977,0.1977,0.1977,0.1977,0.1977,0.1977,0.0,0.1977,0.1977,0.1977,0.1977,0.1977,0.1977,0.1977,0.1977,0.1729,0.1234,0.037,-0.0366,-0.1073,-0.1655,0.0,0.0,0.0,-0.2696,-0.3132,-0.3396,0.0,0.0,0.0,0.0,0.0,0.0,0.0,0.0,-0.4193,-0.4446,0.0,0.0,0.0,0.0,0.0,0.0,0.0,0.0,0.0,0.0,0.0,0.0,0.0,0.0,0.0,0.0,0.6722,0.7108,0.7345,0.7494,0.7663,0.7886,0.8117,0.8044,0.7374,0.7472,0.73,0.6584,0.66,0.6678,0.6845,0.0,0.0,0.0,0.0,0.7131,0.7141,0.7221,0.7217,0.7125,0.7125,0.7121,0.7111,0.7111,0.7066,0.699,0.699,0.6894,0.6741,0.6741,0.6316,0.5594,0.5313,0.4855,0.4047,0.3099,0.2558,0.2155,0.2155,0.0,0.0,0.2123,0.2094,0.2069,0.2073,0.205,0.2029,0.2056,0.2042,0.2018,0.2015,0.1995,0.1977,0.1977,0.1977,0.1977,0.1977,0.1977,0.1977,0.1977,0.1977,0.1977,0.1977,0.1977,0.1977,0.1977,0.1853,0.1853,0.1729,0.1729,0.1234,0.0,0.0,0.0,-0.2172,-0.3097,-0.3617,-0.3612,-0.3374,-0.3255,-0.3245,-0.3743,-0.4152,-0.4467,-0.4988,-0.5296,-0.5593,-0.5704,-0.5709,-0.5605,-0.5111,-0.5208,0.0,0.0,0.0,0.0,0.0,0.0,0.0,0.0,0.0,0.0,0.0,0.0,0.0,0.0,0.0,0.6603,0.7018,0.7353,0.7595,0.7815,0.8005,0.8149,0.8293,0.8167,0.7486,0.7514,0.73,0.6584,0.6658,0.6745,0.6847,0.6923,0.7005,0.7096,0.7117,0.7162,0.7235,0.7254,0.7217,0.7125,0.0,0.0,0.7015,0.7015,0.7007,0.699,0.699,0.6929,0.6829,0.6829,0.6362,0.5592,0.482,0.4106,0.3416,0.3242,0.2692,0.2155,0.2155,0.2155,0.2154,0.2148,0.2125,0.2105,0.2129,0.2099,0.0,0.2062,0.2042,0.2013,0.199,0.1981,0.1977,0.1977,0.1977,0.1977,0.1977,0.1977,0.1977,0.1977,0.1977,0.1977,0.1977,0.1977,0.1977,0.1977,0.1357,0.0617,-0.0123,-0.037,-0.0493,-0.0493,-0.1603,-0.2574,-0.338,-0.3729,-0.3792,-0.367,-0.3504,-0.3379,-0.3307,-0.3817,-0.4464,-0.495,-0.5561,-0.6063,-0.6559,-0.6682,-0.673,-0.6701,-0.6052,-0.5871,0.0,0.0,0.0,0.0,0.0,0.0,0.0,0.0,0.0,0.0,0.0,0.5341,0.582,0.0,0.6491,0.691,0.7282,0.7581,0.7761,0.7992,0.8166,0.8228,0.8342,0.8202,0.7517,0.7526,0.7323,0.6647,0.67,0.6784,0.6915,0.6964,0.7011,0.7056,0.7058,0.708,0.7125,0.7127,0.7103,0.7058,0.7058,0.7033,0.699,0.699,0.699,0.699,0.699,0.6964,0.6921,0.649,0.6033,0.5564,0.479,0.4032,0.3293,0.3,0.2574,0.2155,0.2155,0.2155,0.2152,0.2137,0.2121,0.2109,0.2109,0.2088,0.2061,0.2046,0.2031,0.2011,0.1984,0.1977,0.1977,0.1977,0.1977,0.1977,0.1977,0.1977,0.1977,0.1977,0.1977,0.1977,0.1977,0.1605,0.1234,0.1234,0.037,-0.0493,-0.1233,-0.1973,-0.2466,-0.2343,-0.2837,-0.3322,-0.3786,-0.3997,-0.4044,-0.3917,-0.4042,-0.3941,-0.384,-0.4259,-0.4788,-0.5318,-0.5794,-0.6358,-0.6893,-0.7073,-0.716,-0.716,-0.6877,-0.671,0.0,0.0,0.0,0.0,0.0,0.0,0.0,0.0,0.5105,0.5439,0.5684,0.5947,0.6306,0.6627,0.6923,0.7184,0.7513,0.7774,0.7891,0.8117,0.8261,0.8239,0.8342,0.821,0.7543,0.7519,0.7186,0.6711,0.6727,0.6796,0.6956,0.698,0.699,0.699,0.699,0.699,0.699,0.699,0.699,0.699,0.699,0.699,0.699,0.7009,0.7007,0.699,0.699,0.699,0.699,0.6263,0.5827,0.5675,0.4898,0.4101,0.3321,0.2893,0.2594,0.2163,0.2157,0.2155,0.2151,0.2126,0.2118,0.2114,0.2089,0.2078,0.2067,0.2043,0.2027,0.2013,0.199,0.1981,0.1977,0.1977,0.1977,0.1977,0.1977,0.1977,0.1977,0.1977,0.1977,0.1977,0.1729,0.0863,0.0247,0.0247,-0.0616,-0.1603,-0.222,-0.3209,-0.3951,-0.3951,-0.3951,-0.3951,-0.3951,-0.4145,-0.4305,-0.4303,-0.4639,-0.4806,-0.4666,-0.4878,-0.5284,-0.575,-0.616,-0.6536,-0.7089,-0.7301,-0.7418,-0.7442,-0.7565,-0.7532,0.6048,0.5808,0.5715,0.5754,0.5616,0.5483,0.0,0.0,0.5703,0.5953,0.6113,0.6317,0.6676,0.6864,0.7078,0.7421,0.7687,0.7894,0.8016,0.8244,0.8359,0.8247,0.8342,0.8241,0.7776,0.7491,0.7111,0.6707,0.6727,0.6768,0.6864,0.6945,0.699,0.699,0.699,0.699,0.699,0.699,0.699,0.699,0.699,0.699,0.6992,0.7074,0.7066,0.699,0.699,0.699,0.699,0.6557,0.6119,0.568,0.4947,0.4181,0.3408,0.3327,0.2746,0.2191,0.2164,0.2155,0.2154,0.2151,0.2149,0.2149,0.2146,0.2125,0.2104,0.21,0.206,0.2018,0.2015,0.1995,0.1977,0.1977,0.1977,0.1977,0.1977,0.1977,0.1977,0.1977,0.1977,0.1729,0.0863,-0.0123,-0.0863,-0.0863,-0.1726,-0.2714,-0.358,-0.3826,-0.3951,-0.3951,-0.3951,-0.3951,-0.3951,-0.4187,-0.4517,-0.4681,-0.5033,-0.5347,-0.5488,-0.5828,-0.6172,-0.651,-0.6869,-0.7106,-0.7459,-0.7595,-0.7712,-0.7815,-0.7937,-0.7815,0.6759,0.6411,0.626,0.0,0.6244,0.5999,0.6116,0.6143,0.623,0.6545,0.6703,0.6872,0.7165,0.732,0.7472,0.0,0.7807,0.7964,0.8228,0.8171,0.816,0.8323,0.8198,0.7938,0.7515,0.7381,0.7051,0.6555,0.6617,0.6709,0.6845,0.689,0.6935,0.6988,0.699,0.699,0.699,0.699,0.699,0.699,0.699,0.7017,0.707,0.7109,0.7105,0.7066,0.7013,0.699,0.699,0.6557,0.6266,0.6121,0.5247,0.4504,0.375,0.3257,0.2647,0.2201,0.2206,0.2196,0.2181,0.2181,0.2181,0.2178,0.216,0.2146,0.2132,0.2114,0.2091,0.2067,0.205,0.2036,0.2023,0.2005,0.2001,0.1996,0.198,0.1977,0.1977,0.1977,0.1481,0.0863,-0.0247,-0.1233,-0.2097,-0.259,-0.3085,-0.3455,-0.3828,-0.3951,-0.3951,-0.3951,-0.4073,-0.4195,-0.4195,-0.4685,-0.5163,-0.5374,-0.5736,-0.6058,-0.6323,-0.6435,-0.6643,-0.693,-0.711,-0.7414,-0.7725,-0.7847,-0.7967,-0.8084,-0.8136,-0.8079,0.7333,0.7066,0.6859,0.7098,0.6816,0.648,0.6526,0.6586,0.67,0.6937,0.7076,0.722,0.7429,0.754,0.7649,0.7801,0.785,0.7975,0.8274,0.8117,0.8057,0.8291,0.8084,0.773,0.7362,0.7243,0.7117,0.6579,0.6539,0.6656,0.6811,0.6841,0.6894,0.6986,0.699,0.699,0.699,0.7015,0.7027,0.7027,0.7054,0.7101,0.7162,0.7137,0.7139,0.7158,0.7039,0.6974,0.6954,0.6665,0.6509,0.6344,0.5625,0.4902,0.4175,0.3282,0.267,0.2213,0.2219,0.2206,0.2187,0.2187,0.2187,0.2183,0.2161,0.2155,0.215,0.2128,0.2116,0.2104,0.2082,0.207,0.2059,0.2036,0.2031,0.2023,0.1994,0.1988,0.1862,0.1606,0.074,-0.0247,-0.1233,-0.222,-0.3208,-0.395,-0.4073,-0.395,-0.3951,-0.3951,-0.3951,-0.3951,-0.4195,-0.4438,-0.4559,-0.5176,-0.5667,-0.616,-0.6553,-0.6905,-0.7195,-0.722,-0.7304,-0.7425,-0.7538,-0.7625,-0.7921,-0.8043,-0.8168,-0.8285,-0.8285,-0.832,0.7716,0.7508,0.7253,0.7394,0.7211,0.6934,0.6817,0.697,0.7105,0.7005,0.7076,0.7192,0.7317,0.7345,0.7426,0.7668,0.7799,0.7915,0.8046,0.8157,0.8185,0.8079,0.8054,0.7881,0.0,0.7217,0.7038,0.6575,0.6539,0.6631,0.6725,0.6809,0.6894,0.6986,0.699,0.699,0.699,0.7078,0.7121,0.7123,0.7213,0.7256,0.7256,0.7168,0.7174,0.7248,0.7068,0.6939,0.6858,0.6858,0.6809,0.6595,0.5894,0.5192,0.4348,0.3646,0.2946,0.2236,0.2178,0.2157,0.2156,0.2156,0.2156,0.2156,0.2155,0.2155,0.2155,0.2154,0.2132,0.2109,0.2108,0.2086,0.2063,0.2063,0.2063,0.2054,0.2024,0.2017,0.1757,0.0742,-0.0247,-0.1233,-0.222,-0.3209,-0.395,-0.4316,-0.4438,-0.4316,-0.395,-0.3951,-0.3951,-0.3951,-0.4195,-0.4559,-0.4803,-0.5544,-0.616,-0.6888,-0.7363,-0.7674,-0.8043,-0.8157,-0.8163,-0.804,-0.8157,-0.8163,-0.8049,-0.8171,-0.8293,-0.8413,-0.8413,-0.8535,0.8007,0.7817,0.7586,0.7901,0.7604,0.7206,0.7165,0.7217,0.7241,0.7122,0.7127,0.7168,0.7206,0.7282,0.7388,0.7554,0.7682,0.7826,0.8027,0.7954,0.7924,0.804,0.7915,0.0,0.0,0.0,0.0,0.6662,0.6604,0.6629,0.6721,0.6807,0.6894,0.6986,0.699,0.699,0.699,0.708,0.7125,0.7127,0.7276,0.7348,0.7346,0.7315,0.7286,0.7252,0.707,0.6937,0.6849,0.6792,0.6751,0.6587,0.5887,0.5326,0.4759,0.4024,0.3183,0.2493,0.2215,0.2202,0.2185,0.2185,0.2185,0.2181,0.2161,0.2155,0.2155,0.2155,0.2147,0.2139,0.2139,0.2131,0.2119,0.2099,0.2094,0.2086,0.2055,0.1524,0.0755,-0.0251,-0.1366,-0.2343,-0.3209,-0.3703,-0.4071,-0.4682,-0.4684,-0.4687,-0.4566,-0.4566,-0.4566,-0.4566,-0.4808,-0.5176,-0.5544,-0.5914,-0.6555,-0.7368,-0.7536,-0.7715,-0.8171,-0.8212,-0.8214,-0.8176,-0.8214,-0.8255,-0.8296,-0.8337,-0.8456,-0.8652,-0.8652,-0.8736,0.8902,0.8828,0.859,0.8584,0.8241,0.7786,0.7581,0.7334,0.7277,0.707,0.6994,0.6964,0.6964,0.7062,0.7198,0.7361,0.7527,0.7703,0.7899,0.7834,0.7818,0.797,0.7853,0.7688,0.0,0.0,0.0,0.6954,0.6969,0.6902,0.686,0.695,0.704,0.6986,0.699,0.699,0.699,0.7113,0.7207,0.727,0.7384,0.7437,0.7435,0.7403,0.7344,0.7254,0.7105,0.6968,0.6849,0.6794,0.6754,0.6583,0.5994,0.5565,0.5137,0.4386,0.3547,0.2869,0.2482,0.2338,0.2184,0.2184,0.2184,0.2182,0.2174,0.2171,0.2171,0.2171,0.2171,0.2168,0.2157,0.2155,0.215,0.213,0.2125,0.1985,0.1564,0.0516,-0.064,-0.1654,-0.2763,-0.3738,-0.4258,-0.4493,-0.4724,-0.5215,-0.5317,-0.5423,-0.53,-0.53,-0.53,-0.53,-0.5544,-0.5912,-0.6283,-0.6559,-0.7105,-0.7676,-0.7886,-0.7967,-0.8296,-0.8339,-0.8361,-0.8361,-0.8405,-0.8465,-0.8543,-0.8587,-0.8687,-0.8834,-0.8834,-0.8899,1.0369,1.0416,1.0243,0.9722,0.9153,0.8576,0.7958,0.755,0.7214,0.6858,0.6681,0.6592,0.0,0.0,0.6853,0.7089,0.7342,0.7551,0.7674,0.7796,0.7875,0.0,0.0,0.0,0.0,0.0,0.0,0.7352,0.0,0.7591,0.7276,0.738,0.7332,0.6986,0.699,0.699,0.699,0.7166,0.7344,0.7517,0.7513,0.7511,0.7509,0.7423,0.7337,0.725,0.7158,0.7017,0.6854,0.6849,0.6798,0.6717,0.6214,0.5902,0.5478,0.4601,0.3905,0.3229,0.2828,0.2559,0.2155,0.2155,0.2155,0.216,0.2189,0.2199,0.22,0.2198,0.2199,0.2193,0.2163,0.2155,0.2155,0.2155,0.2155,0.1744,0.0662,-0.0923,-0.2362,-0.3234,-0.4464,-0.5456,-0.5271,-0.5478,-0.5802,-0.6051,-0.6352,-0.6289,-0.6031,-0.5908,-0.5908,-0.5908,-0.6278,-0.6526,-0.6898,-0.7366,-0.7687,-0.807,-0.8291,-0.8421,-0.8426,-0.8535,-0.8598,-0.8598,-0.8717,-0.878,-0.878,-0.8897,-0.8954,-0.8962,-0.8962,-0.9027,1.2606,1.2682,1.2399,1.1872,1.0793,0.9503,0.8752,0.7862,0.7183,0.6916,0.666,0.641,0.0,0.0,0.0,0.6717,0.7108,0.0,0.7548,0.7741,0.0,0.7997,0.0,0.8054,0.8176,0.817,0.0,0.0,0.7932,0.7666,0.7279,0.744,0.7397,0.6988,0.699,0.699,0.699,0.7103,0.725,0.7423,0.736,0.7329,0.7329,0.7307,0.7246,0.7156,0.7064,0.696,0.6847,0.6784,0.6747,0.6725,0.6279,0.6091,0.5897,0.506,0.4343,0.3632,0.3229,0.2692,0.2155,0.2155,0.2155,0.2156,0.2163,0.2182,0.2195,0.2172,0.2183,0.2193,0.2163,0.2155,0.2155,0.2155,0.1616,0.0538,-0.1071,-0.2386,-0.3681,-0.5245,-0.5825,-0.6028,-0.605,-0.6289,-0.6655,-0.6912,-0.7143,-0.7193,-0.6669,-0.665,-0.665,-0.665,-0.6775,-0.6931,-0.7381,-0.7538,-0.7757,-0.8315,-0.8383,-0.8456,-0.8541,-0.866,-0.8723,-0.8723,-0.8842,-0.8905,-0.8905,-0.8935,-0.8997,-0.9087,-0.9087,-0.915,1.4432,1.45,1.4295,1.3464,1.2151,1.0863,0.9702,0.8438,0.7431,0.6979,0.6438,0.6143,0.6198,0.6132,0.613,0.0,0.0,0.0,0.7421,0.7687,0.7915,0.0,0.8054,0.0,0.8299,0.8378,0.8465,0.0,0.8399,0.8134,0.7622,0.7732,0.7504,0.6929,0.6894,0.6911,0.6988,0.7041,0.7156,0.7333,0.7286,0.7264,0.7264,0.7264,0.7213,0.7123,0.0,0.6998,0.6911,0.6862,0.6841,0.6837,0.6655,0.6467,0.6416,0.5517,0.4783,0.3933,0.337,0.2826,0.2155,0.2155,0.2155,0.2157,0.217,0.2196,0.2214,0.2183,0.2196,0.221,0.2166,0.2155,0.202,0.1616,0.0404,-0.0942,-0.2286,-0.4007,-0.5569,-0.6592,-0.6836,-0.6812,-0.6768,-0.6888,-0.7145,-0.7535,-0.7619,-0.7671,-0.7551,-0.7411,-0.7411,-0.7411,-0.7411,-0.7561,-0.7878,-0.793,-0.8017,-0.841,-0.8465,-0.8522,-0.8584,-0.8706,-0.8796,-0.8848,-0.897,-0.9057,-0.9389,-0.9389,-0.9425,-0.9781,-0.9551,-0.9613,1.5919,1.6183,1.6021,1.4769,1.3532,1.2299,1.0737,0.9093,0.7677,0.7034,0.6239,0.5756,0.5899,0.5759,0.5782,0.6159,0.0,0.7138,0.729,0.7635,0.7924,0.8062,0.8092,0.819,0.8418,0.844,0.8489,0.8603,0.8807,0.8555,0.7945,0.7964,0.7688,0.6837,0.6764,0.6805,0.697,0.6972,0.7058,0.7227,0.7227,0.7227,0.7227,0.7227,0.7182,0.7109,0.7109,0.0,0.699,0.699,0.699,0.6982,0.6903,0.6864,0.6833,0.5837,0.5087,0.4246,0.3513,0.2826,0.2155,0.2155,0.2155,0.2159,0.2186,0.2215,0.2233,0.2202,0.2216,0.2226,0.217,0.2155,0.1616,0.0404,-0.1076,-0.2554,-0.3497,-0.5647,-0.7372,-0.7539,-0.7595,-0.7629,-0.7537,-0.752,-0.7651,-0.7908,-0.7954,-0.7889,-0.8151,-0.8255,-0.8236,-0.8236,-0.8236,-0.8242,-0.8258,-0.8359,-0.8424,-0.844,-0.8532,-0.8587,-0.8587,-0.872,-0.8845,-0.8951,-0.9087,-0.949,-0.9879,-1.0023,-1.0167,-1.0458,-1.0304,-1.0219,1.809,1.8203,1.7865,1.6774,1.5215,1.3556,1.1467,0.9681,0.0,0.0,0.6134,0.5613,0.5773,0.551,0.5431,0.589,0.6385,0.6823,0.7141,0.7581,0.7954,0.0,0.8293,0.8407,0.8546,0.8557,0.0,0.0,0.8777,0.8536,0.7729,0.7812,0.7443,0.6747,0.6733,0.6776,0.6876,0.6878,0.6931,0.7037,0.7037,0.7037,0.7037,0.7037,0.7029,0.7013,0.7013,0.0,0.699,0.699,0.699,0.6988,0.6972,0.6919,0.6841,0.5894,0.5126,0.4246,0.3513,0.2826,0.2155,0.2155,0.2155,0.2156,0.2161,0.2184,0.2202,0.2171,0.2185,0.22,0.2164,0.1481,0.0404,-0.1345,-0.2688,-0.4031,-0.6053,-0.7259,-0.8053,-0.8296,-0.844,-0.8448,-0.8429,-0.8424,-0.8424,-0.8424,-0.8405,-0.8524,-0.8527,-0.8356,-0.8236,-0.8236,-0.8236,-0.8277,-0.8378,-0.8405,-0.8456,-0.8552,-0.8576,-0.8587,-0.8587,-0.8802,-0.8929,-0.8951,-0.9448,-0.9859,-0.9879,-1.0167,-1.0455,-1.0458,-1.0596,-1.0366,1.8776,1.8885,1.8596,1.7439,1.6194,1.4558,1.2233,0.0,0.0,0.7303,0.6105,0.5352,0.5478,0.5189,0.5118,0.5472,0.604,0.654,0.6834,0.7345,0.7801,0.8106,0.8247,0.8394,0.8571,0.8587,0.8638,0.8761,0.8712,0.8457,0.775,0.7341,0.7044,0.6586,0.6584,0.6627,0.6715,0.6717,0.6784,0.6919,0.6919,0.6943,0.699,0.699,0.699,0.699,0.699,0.0,0.699,0.699,0.699,0.699,0.699,0.6962,0.6907,0.5923,0.5159,0.4427,0.3523,0.2826,0.2155,0.2155,0.2155,0.2155,0.2155,0.2176,0.2193,0.2163,0.2176,0.2059,0.1227,0.0135,-0.1213,-0.2441,-0.4052,-0.5644,-0.7259,-0.7927,-0.8189,-0.8587,-0.8587,-0.8587,-0.8587,-0.8587,-0.8587,-0.8587,-0.8587,-0.8587,-0.8587,-0.8489,-0.8418,-0.8418,-0.8418,-0.8443,-0.8503,-0.8505,-0.853,-0.8584,-0.8587,-0.8587,-0.8587,-0.8821,-0.8951,-0.9229,-0.961,-1.0026,-1.0462,-1.0606,-1.0894,-1.1041,-1.1113,-1.0912,1.8879,1.9036,1.8873,1.7653,1.664,1.5299,1.2771,1.0648,0.0,0.7435,0.6039,0.5092,0.516,0.491,0.4844,0.0,0.5692,0.6222,0.6537,0.71,0.7614,0.7973,0.8147,0.0,0.8494,0.8511,0.0,0.8647,0.8456,0.8107,0.7757,0.7009,0.6529,0.6455,0.6453,0.6488,0.656,0.658,0.667,0.6825,0.6845,0.69,0.699,0.699,0.699,0.699,0.699,0.0,0.0,0.699,0.6978,0.696,0.6817,0.6805,0.6767,0.5766,0.502,0.445,0.3529,0.2692,0.2155,0.2155,0.2155,0.2155,0.2155,0.2035,0.1775,0.1621,0.1493,0.1231,-0.0,-0.1356,-0.2696,-0.3948,-0.555,-0.7123,-0.8056,-0.8189,-0.8323,-0.8587,-0.8587,-0.8587,-0.8587,-0.8587,-0.8587,-0.8587,-0.8587,-0.8587,-0.8587,-0.8587,-0.8587,-0.8587,-0.8587,-0.8587,-0.8587,-0.8587,-0.8587,-0.8587,-0.8587,-0.8587,-0.8587,-0.8821,-0.9229,-0.9504,-0.9894,-1.0462,-1.1044,-1.1188,-1.1492,-1.1815,-1.1787,-1.1778,1.871,1.8891,1.8825,1.7781,1.6816,1.5541,1.2858,0.0,0.8907,0.7329,0.5873,0.4892,0.5029,0.4778,0.4621,0.4974,0.0,0.5812,0.6374,0.6972,0.7486,0.7845,0.0,0.0,0.8263,0.8266,0.8272,0.8282,0.7722,0.7431,0.7548,0.6872,0.6462,0.6453,0.6453,0.6457,0.6466,0.6547,0.6639,0.6739,0.6817,0.69,0.699,0.699,0.699,0.699,0.699,0.0,0.0,0.699,0.6939,0.6866,0.6442,0.6394,0.6174,0.4977,0.4539,0.4397,0.325,0.2558,0.2155,0.2155,0.2155,0.2155,0.2155,0.1482,0.0539,-0.0269,-0.0673,-0.0808,-0.1212,-0.2421,-0.4164,-0.6585,-0.7524,-0.8058,-0.8454,-0.8587,-0.8587,-0.8587,-0.8587,-0.8587,-0.8587,-0.8587,-0.8587,-0.8587,-0.8587,-0.8587,-0.8587,-0.8587,-0.8587,-0.8587,-0.8587,-0.8587,-0.8587,-0.8587,-0.8587,-0.8587,-0.8587,-0.8587,-0.8587,-0.9094,-0.9507,-0.9504,-1.0469,-1.09,-1.1044,-1.1763,-1.2265,-1.2404,-1.2875,-1.2881,1.8112,1.8396,1.8384,1.7473,1.664,1.5386,1.2852,1.0773,0.8981,0.7351,0.5844,0.4849,0.4901,0.47,0.4518,0.4664,0.505,0.5466,0.585,0.648,0.7037,0.7396,0.772,0.797,0.0,0.0,0.8028,0.797,0.7629,0.732,0.7172,0.6691,0.6453,0.6453,0.6453,0.6453,0.6453,0.649,0.6582,0.6727,0.676,0.6851,0.699,0.699,0.699,0.699,0.699,0.0,0.0,0.6929,0.6886,0.6847,0.6373,0.605,0.5731,0.5107,0.3984,0.2604,0.1487,0.0807,0.0269,0.0269,0.0269,0.0269,0.0808,0.0269,-0.0673,-0.1749,-0.2825,-0.3774,-0.4076,-0.4765,-0.5838,-0.7534,-0.7922,-0.8189,-0.8587,-0.8587,-0.8587,-0.8587,-0.8587,-0.8587,-0.8587,-0.8587,-0.8587,-0.8587,-0.8587,-0.8587,-0.8587,-0.8587,-0.8587,-0.8587,-0.8587,-0.8587,-0.8587,-0.8587,-0.8587,-0.8587,-0.8587,-0.872,-0.8851,-0.9231,-0.9642,-1.0194,-1.0754,-1.1188,-1.1332,-1.1997,-1.279,-1.3578,-1.4151,-1.4761,1.7497,1.7962,1.8082,1.7195,1.6368,1.5148,1.2724,1.0674,0.8827,0.7339,0.5844,0.4831,0.4831,0.4636,0.4431,0.4463,0.4814,0.5178,0.5458,0.6053,0.6594,0.6953,0.0,0.7597,0.0,0.7959,0.7814,0.7704,0.7447,0.7119,0.6847,0.6645,0.6425,0.6453,0.6453,0.6453,0.6453,0.6453,0.6533,0.6686,0.6686,0.6766,0.6911,0.6911,0.6911,0.6911,0.6911,0.0,0.0,0.6843,0.68,0.677,0.6149,0.5695,0.5529,0.4384,0.2867,0.0954,-0.027,-0.121,-0.2017,-0.2017,-0.2017,-0.2017,-0.1615,-0.148,-0.1884,-0.3095,-0.4575,-0.5802,-0.6262,-0.6683,-0.7208,-0.8076,-0.8189,-0.8323,-0.8587,-0.8587,-0.8587,-0.8587,-0.8587,-0.8587,-0.872,-0.872,-0.8853,-0.8856,-0.8853,-0.872,-0.872,-0.872,-0.8587,-0.872,-0.872,-0.872,-0.8587,-0.8587,-0.8587,-0.8587,-0.872,-0.8851,-0.9117,-0.9502,-1.0058,-1.0609,-1.1038,-1.1476,-1.1763,-1.2779,-1.3747,-1.4671,-1.558,-1.666,1.696,1.7684,1.8034,1.6972,1.6103,1.488,1.2472,1.0439,0.8656,0.7313,0.5844,0.4831,0.4831,0.45,0.4338,0.4452,0.4678,0.4963,0.5322,0.5787,0.6222,0.0,0.6842,0.7133,0.7489,0.7498,0.7477,0.7696,0.6986,0.0,0.6839,0.6583,0.6359,0.6451,0.6453,0.6453,0.6453,0.6453,0.65,0.659,0.659,0.6639,0.6729,0.6729,0.6729,0.6729,0.0,0.0,0.0,0.6729,0.6674,0.6455,0.5493,0.5313,0.5383,0.2286,0.0673,-0.0135,-0.1614,-0.3096,-0.4315,-0.4315,-0.4315,-0.4313,-0.485,-0.3902,-0.2959,-0.4577,-0.5651,-0.6585,-0.725,-0.7789,-0.8192,-0.8456,-0.8587,-0.8587,-0.8587,-0.8587,-0.8587,-0.8587,-0.8587,-0.872,-0.8984,-0.9117,-0.9253,-0.9661,-0.9389,-0.9117,-0.9117,-0.8853,-0.872,-0.9117,-0.9117,-0.8984,-0.8587,-0.8587,-0.8587,-0.8587,-0.8851,-0.9117,-0.9117,-1.0048,-1.0609,-1.0609,-1.1605,-1.2194,-1.2194,-1.3934,-1.513,-1.5758,-1.6996,-1.7955,1.559,1.6187,1.6483,1.5571,1.4708,1.3423,1.1456,0.9607,0.7997,0.6913,0.5702,0.4831,0.4831,0.4498,0.4311,0.4349,0.4553,0.4809,0.5089,0.5608,0.6094,0.645,0.6926,0.7334,0.0,0.0,0.721,0.711,0.6781,0.6454,0.6262,0.6192,0.6294,0.6449,0.6453,0.6453,0.6453,0.6453,0.65,0.659,0.659,0.6639,0.6727,0.6727,0.6727,0.0,0.0,0.0,0.0,0.666,0.6617,0.6447,0.5298,0.4318,0.3358,0.1209,-0.0538,-0.2017,-0.3229,-0.3903,-0.4309,-0.4309,-0.4309,-0.4309,-0.471,-0.4575,-0.4575,-0.5651,-0.6453,-0.6987,-0.7786,-0.8056,-0.8189,-0.8456,-0.8587,-0.8565,-0.8489,-0.8532,-0.8565,-0.8486,-0.8665,-0.8984,-0.9117,-0.9389,-0.9525,-0.9661,-0.9528,-0.9389,-0.9117,-0.9256,-0.9256,-0.9117,-0.9463,-0.9654,-0.952,-0.952,-0.9558,-0.965,-0.9706,-0.9786,-0.9921,-1.0369,-1.0747,-1.1023,-1.1991,-1.2779,-1.3637,-1.4961,-1.6703,-1.9009,-2.0286,-2.0968,1.425,1.489,1.5059,1.4248,1.3408,1.2221,1.0491,0.8889,0.7457,0.6602,0.5531,0.4831,0.4831,0.4498,0.43,0.43,0.4499,0.4738,0.4982,0.0,0.0,0.6516,0.7024,0.0,0.0,0.7378,0.7086,0.6948,0.6483,0.6139,0.6051,0.6104,0.6198,0.6347,0.6384,0.6402,0.6402,0.6437,0.6482,0.6539,0.6539,0.6568,0.6623,0.6623,0.6623,0.0,0.0,0.0,0.0,0.6153,0.6132,0.599,0.4992,0.3629,0.2014,-0.0134,-0.1882,-0.3363,-0.4038,-0.4308,-0.4308,-0.4308,-0.4441,-0.4844,-0.5109,-0.5379,-0.5787,-0.6585,-0.7118,-0.7522,-0.8189,-0.8323,-0.8323,-0.8587,-0.8587,-0.8568,-0.8497,-0.8538,-0.8565,-0.8626,-0.8935,-0.925,-0.9519,-0.9658,-0.9927,-1.006,-0.9927,-0.9791,-0.9519,-0.9658,-0.9679,-0.9585,-0.9933,-1.0166,-1.041,-1.0098,-0.9967,-1.0052,-1.0116,-1.02,-1.0473,-1.075,-1.0968,-1.125,-1.2151,-1.3222,-1.4434,-1.6582,-1.8695,-2.0898,-2.1804,-2.2259,0.0,1.3632,1.3944,1.3008,1.2141,1.1158,0.9508,0.8123,0.0,0.6279,0.5454,0.4831,0.4764,0.4498,0.4303,0.4311,0.4512,0.4754,0.0,0.5477,0.0,0.0,0.7133,0.0,0.769,0.72,0.6929,0.7031,0.6332,0.5953,0.6039,0.6043,0.608,0.6159,0.6251,0.6304,0.6317,0.64,0.6447,0.6453,0.6453,0.6453,0.6453,0.6453,0.6453,0.0,0.0,0.0,0.0,0.5513,0.5381,0.5247,0.4575,0.3094,0.1075,-0.1344,-0.3094,-0.4308,-0.4308,-0.4308,-0.4308,-0.4308,-0.4844,-0.5515,-0.578,-0.6183,-0.6721,-0.7383,-0.7786,-0.8189,-0.8456,-0.8587,-0.8587,-0.8587,-0.8587,-0.8584,-0.8579,-0.8581,-0.8715,-0.8961,-0.9102,-0.938,-1.0044,-1.0183,-1.0323,-1.0588,-1.0455,-1.019,-1.0193,-0.9927,-0.9977,-1.0377,-1.0402,-1.0659,-1.1365,-1.0702,-1.0215,-1.0228,-1.0493,-1.0625,-1.0625,-1.1174,-1.1392,-1.1392,-1.2551,-1.3726,-1.5057,-1.8675,-2.0814,-2.1816,-2.2115,-2.2259,1.079,0.0,1.2152,1.1445,1.0549,0.9587,0.0,0.7241,0.6276,0.5709,0.0,0.4764,0.4694,0.4431,0.4327,0.4417,0.4635,0.4906,0.5241,0.5934,0.0,0.7146,0.7285,0.7467,0.7799,0.7173,0.6822,0.6927,0.6298,0.5927,0.5947,0.5949,0.5957,0.5978,0.6068,0.618,0.6315,0.6337,0.6384,0.6453,0.6453,0.6453,0.6453,0.6453,0.6453,0.0,0.0,0.0,0.5513,0.5109,0.4839,0.4571,0.4035,0.242,0.0134,-0.1613,-0.3094,-0.4308,-0.4308,-0.4308,-0.4308,-0.4308,-0.4844,-0.5515,-0.6049,-0.6585,-0.6987,-0.7789,-0.8056,-0.8189,-0.8456,-0.8587,-0.8587,-0.8587,-0.8587,-0.8562,-0.8475,-0.8789,-0.8927,-0.8869,-0.9383,-1.0022,-1.0045,-1.0379,-1.0588,-1.0721,-1.0588,-1.0455,-1.019,-1.0323,-1.0508,-1.0377,-1.0766,-1.1185,-1.1375,-1.1218,-1.1107,-1.1219,-1.1261,-1.1198,-1.1198,-1.1372,-1.1392,-1.1392,-1.4347,-1.6429,-1.7527,-2.0352,-2.1894,-2.2115,-2.2259,-2.2259,0.9623,1.0235,1.0647,1.0013,0.9048,0.8049,0.7169,0.6215,0.5466,0.0,0.0,0.4626,0.4616,0.4476,0.4417,0.4604,0.4803,0.0,0.0,0.0,0.6883,0.7364,0.7421,0.7538,0.0,0.7208,0.6838,0.6896,0.6285,0.5916,0.5916,0.5916,0.5916,0.5916,0.5965,0.6057,0.6194,0.6235,0.628,0.6329,0.637,0.639,0.6392,0.6299,0.6183,0.0,0.0,0.0,0.4844,0.444,0.417,0.39,0.2689,0.1344,-0.0269,-0.242,-0.3632,-0.4308,-0.4308,-0.4441,-0.4574,-0.4574,-0.4977,-0.5781,-0.6451,-0.6987,-0.7388,-0.8056,-0.8323,-0.8323,-0.8587,-0.8587,-0.8587,-0.8587,-0.8587,-0.8571,-0.864,-0.8896,-0.9124,-0.9242,-0.967,-0.9987,-1.0234,-1.0431,-1.0639,-1.0711,-1.0721,-1.0588,-1.0455,-1.0648,-1.0745,-1.075,-1.1037,-1.1331,-1.1484,-1.1497,-1.1531,-1.1613,-1.1541,-1.1497,-1.1497,-1.1497,-1.1636,-1.2059,-1.5197,-1.7267,-1.828,-2.1015,-2.2259,-2.2259,-2.2259,-2.2259,0.9066,0.9301,0.9417,0.8808,0.7864,0.698,0.6409,0.0,0.0,0.0,0.0,0.0,0.0,0.4568,0.0,0.0,0.0,0.0,0.6358,0.6676,0.7002,0.7464,0.7519,0.0,0.7847,0.7266,0.69,0.6778,0.6285,0.5916,0.5916,0.5916,0.5916,0.5916,0.5916,0.5953,0.6031,0.6119,0.6168,0.6182,0.6272,0.6317,0.6319,0.6007,0.5914,0.578,0.0,0.0,0.4172,0.3768,0.3499,0.296,0.1075,0.0134,-0.0672,-0.3363,-0.4308,-0.4308,-0.4308,-0.4574,-0.4839,-0.4841,-0.5376,-0.6182,-0.6851,-0.7254,-0.7791,-0.8454,-0.8587,-0.8456,-0.8454,-0.8454,-0.8454,-0.8454,-0.8454,-0.8715,-0.8961,-0.901,-0.9184,-0.979,-0.9825,-0.9914,-1.0405,-1.0463,-1.0534,-1.0666,-1.0704,-1.0721,-1.0721,-1.0853,-1.1002,-1.1148,-1.1301,-1.1453,-1.1606,-1.1619,-1.1619,-1.1619,-1.1619,-1.1619,-1.1619,-1.1619,-1.2047,-1.2753,-1.554,-1.7355,-1.8112,-2.0951,-2.2259,-2.2259,-2.2259,-2.2259,0.861,0.8687,0.8668,0.8732,0.8099,0.7395,0.6908,0.0,0.0,0.0,0.0,0.0,0.0,0.4684,0.4803,0.0,0.0,0.6217,0.0,0.0,0.7097,0.7472,0.0,0.7493,0.7487,0.7143,0.6775,0.6528,0.616,0.5916,0.5916,0.5916,0.5916,0.5916,0.5916,0.5923,0.5939,0.6027,0.611,0.6182,0.6272,0.6317,0.6319,0.6007,0.578,0.5381,0.0,0.4037,0.3363,0.3097,0.2289,0.0807,-0.0404,-0.148,-0.242,-0.3768,-0.4308,-0.4308,-0.4308,-0.4574,-0.4841,-0.5245,-0.5781,-0.6585,-0.725,-0.7653,-0.8058,-0.8454,-0.8456,-0.8056,-0.7781,-0.7653,-0.7655,-0.765,-0.8184,-0.8693,-0.8856,-0.9469,-0.9774,-0.9664,-0.9953,-1.0243,-1.0134,-1.0324,-1.05,-1.0524,-1.0636,-1.0721,-1.0721,-1.0853,-1.1002,-1.1148,-1.1301,-1.1453,-1.1606,-1.1619,-1.1619,-1.1619,-1.1619,-1.1619,-1.1619,-1.1619,-1.2047,-1.2753,-1.554,-1.7355,-1.8112,-2.0951,-2.2259,-2.2259,-2.2259,-2.2259,0.7972,0.8061,0.8107,0.8218,0.8013,0.7602,0.7115,0.0,0.0,0.0,0.0,0.0,0.0,0.0,0.5286,0.5681,0.0,0.6467,0.6774,0.6967,0.7187,0.0,0.0,0.7324,0.737,0.6896,0.6528,0.6403,0.6037,0.5916,0.5916,0.5916,0.5916,0.5916,0.5916,0.5916,0.5916,0.5959,0.5998,0.6039,0.6131,0.6198,0.6245,0.5677,0.534,0.4975,0.0,0.3633,0.2962,0.2828,0.175,0.0135,-0.0538,-0.1615,-0.2961,-0.3768,-0.4172,-0.4308,-0.4308,-0.4574,-0.4839,-0.4975,-0.5513,-0.6051,-0.6447,-0.6715,-0.6985,-0.7252,-0.7653,-0.7786,-0.8061,-0.7526,-0.7123,-0.7922,-0.8143,-0.8475,-0.9338,-0.9597,-0.9709,-0.9827,-0.9915,-1.0036,-1.0046,-1.0232,-1.0405,-1.048,-1.0622,-1.0721,-1.0721,-1.0853,-1.1002,-1.1148,-1.1301,-1.1453,-1.1606,-1.1619,-1.1619,-1.1619,-1.1619,-1.1619,-1.1619,-1.1619,-1.2047,-1.2753,-1.554,-1.7355,-1.8112,-2.0951,-2.2259,-2.2259,-2.2259,-2.2259,0.7327,0.74,0.7544,0.7575,0.0,0.7711,0.7188,0.0,0.0,0.0,0.0,0.0,0.0,0.566,0.0,0.6302,0.6429,0.663,0.6942,0.7108,0.7277,0.7494,0.7267,0.7261,0.7253,0.6773,0.6403,0.628,0.6039,0.5916,0.5916,0.5916,0.5916,0.5916,0.5794,0.5794,0.5794,0.5671,0.5796,0.5919,0.601,0.6088,0.6153,0.5465,0.5017,0.4683,0.3884,0.3221,0.2559,0.2559,0.1616,0.0135,-0.0269,-0.1346,-0.2828,-0.3365,-0.3902,-0.4308,-0.4308,-0.4441,-0.4707,-0.4975,-0.5245,-0.5515,-0.5914,-0.6034,-0.6019,-0.6287,-0.6803,-0.7325,-0.7759,-0.696,-0.6415,-0.7722,-0.7913,-0.8226,-0.9623,-0.9706,-0.9666,-1.0005,-0.9903,-0.9859,-0.9975,-1.0154,-1.0317,-1.0426,-1.0602,-1.0721,-1.0721,-1.0853,-1.1002,-1.1148,-1.1301,-1.1453,-1.1606,-1.1619,-1.1619,-1.1619,-1.1619,-1.1619,-1.1619,-1.1619,-1.2047,-1.2753,-1.554,-1.7355,-1.8112,-2.0951,-2.2259,-2.2259,-2.2325,-2.2319,0.6772,0.6841,0.6944,0.7116,0.7454,0.0,0.7179,0.6596,0.0,0.6112,0.0,0.0,0.0,0.6144,0.6261,0.6363,0.6622,0.6825,0.6967,0.0,0.7372,0.7502,0.7267,0.714,0.7011,0.665,0.6283,0.5916,0.5916,0.5916,0.5916,0.5916,0.5916,0.5916,0.5546,0.5421,0.5421,0.5179,0.5302,0.5919,0.601,0.6057,0.594,0.5512,0.4814,0.4222,0.3434,0.2794,0.2289,0.2289,0.1481,0.0404,0.0135,-0.0942,-0.2286,-0.269,-0.3363,-0.4308,-0.4308,-0.4308,-0.4441,-0.5383,-0.5651,-0.5785,-0.6185,-0.6394,-0.6327,-0.6458,-0.6406,-0.6366,-0.6048,-0.5407,-0.5122,-0.609,-0.6963,-0.8082,-0.9233,-0.9817,-0.9885,-0.9866,-0.9829,-0.9825,-0.9836,-1.0083,-1.0283,-1.0293,-1.0538,-1.0721,-1.0721,-1.0853,-1.1002,-1.1148,-1.1301,-1.1453,-1.1606,-1.1619,-1.1619,-1.1619,-1.1619,-1.1619,-1.1619,-1.1619,-1.2047,-1.2753,-1.554,-1.7355,-1.8112,-2.0951,-2.2259,-2.2271,-2.2512,-2.2494,0.6593,0.6552,0.661,0.6656,0.696,0.0,0.0,0.6859,0.6585,0.6685,0.6718,0.0,0.0,0.0,0.69,0.681,0.69,0.7079,0.7062,0.7233,0.738,0.7505,0.7151,0.6902,0.6888,0.6407,0.6039,0.5916,0.5916,0.5916,0.5916,0.5916,0.5892,0.5835,0.5466,0.5198,0.5031,0.4672,0.4574,0.4618,0.5063,0.5373,0.5421,0.4945,0.4358,0.377,0.3252,0.2741,0.2098,0.2098,0.1573,0.0786,0.0131,-0.0524,-0.131,-0.1835,-0.249,-0.3016,-0.341,-0.3672,-0.3803,-0.4198,-0.3933,-0.3538,-0.3669,-0.3785,-0.3769,-0.3769,-0.3755,-0.4393,-0.6897,-0.5597,-0.4022,-0.6058,-0.6901,-0.7725,-0.9436,-0.9851,-0.989,-0.9832,-0.9822,-0.9822,-0.9822,-1.0076,-1.0249,-1.0151,-1.0388,-1.0578,-1.0578,-1.0629,-1.0758,-1.1006,-1.1246,-1.1453,-1.1606,-1.1619,-1.1619,-1.1619,-1.1619,-1.1619,-1.1619,-1.1619,-1.1949,-1.2906,-1.5018,-1.6688,-1.7867,-2.0269,-2.1648,-2.1972,-2.253,-2.2603,0.6362,0.6354,0.6316,0.6233,0.0,0.0,0.7145,0.6982,0.6844,0.7088,0.7217,0.0,0.0,0.0,0.0,0.0,0.7061,0.7093,0.7232,0.7258,0.7366,0.7451,0.701,0.6769,0.6843,0.6239,0.5874,0.5874,0.5847,0.5831,0.5831,0.5831,0.5802,0.5739,0.5378,0.4995,0.4826,0.4355,0.4022,0.3827,0.4375,0.4689,0.4755,0.4383,0.3915,0.3328,0.3075,0.2569,0.2064,0.2064,0.1805,0.129,0.0774,0.0387,0.0129,-0.0645,-0.1161,-0.1677,-0.2322,-0.2581,-0.2581,-0.2968,-0.2581,-0.1805,-0.1549,-0.1544,-0.1666,-0.205,-0.2171,-0.2928,-0.6379,-0.4857,-0.3069,-0.5592,-0.6421,-0.7244,-0.9233,-0.9652,-0.97,-0.9819,-0.9822,-0.9822,-0.9822,-1.0076,-1.0226,-1.0073,-1.0344,-1.0548,-1.05,-1.0534,-1.068,-1.0982,-1.124,-1.1453,-1.1606,-1.1619,-1.1619,-1.1619,-1.1619,-1.1619,-1.1619,-1.1619,-1.1976,-1.2853,-1.4473,-1.5986,-1.709,-1.9554,-2.0887,-2.1366,-2.2311,-2.273,0.6262,0.6086,0.5892,0.0,0.0,0.0,0.6884,0.6986,0.6973,0.7119,0.0,0.7553,0.7405,0.0,0.0,0.7157,0.7009,0.6885,0.7122,0.7258,0.7334,0.7336,0.696,0.6739,0.6739,0.6139,0.578,0.578,0.5696,0.5643,0.5643,0.5643,0.5643,0.5643,0.5057,0.4705,0.4705,0.412,0.3768,0.377,0.383,0.3888,0.3943,0.3577,0.336,0.3029,0.265,0.229,0.2063,0.2063,0.2063,0.2063,0.2063,0.2063,0.1934,0.0902,0.0258,-0.0258,-0.0902,-0.0902,-0.0773,-0.1805,-0.1676,-0.0903,-0.0258,0.0,-0.0253,-0.1768,-0.2125,-0.2471,-0.3956,-0.2872,-0.2009,-0.4325,-0.5416,-0.6399,-0.836,-0.9095,-0.9335,-0.97,-0.9822,-0.9822,-0.9822,-1.0076,-1.0229,-1.0073,-1.0432,-1.0663,-1.051,-1.0626,-1.0833,-1.1128,-1.1297,-1.145,-1.1606,-1.1619,-1.1619,-1.1619,-1.1619,-1.1619,-1.1619,-1.1619,-1.1832,-1.2418,-1.3742,-1.4951,-1.5887,-1.8491,-1.9973,-2.0447,-2.2171,-2.2905,0.7148,0.7005,0.0,0.6911,0.0,0.0,0.0,0.7142,0.0,0.0,0.7845,0.7791,0.744,0.0,0.0,0.7058,0.7061,0.7096,0.7232,0.7184,0.7239,0.7326,0.6824,0.6546,0.6622,0.604,0.5686,0.5686,0.5659,0.5643,0.5643,0.5643,0.5614,0.5549,0.5205,0.4832,0.4548,0.4096,0.3892,0.3706,0.349,0.343,0.3521,0.3561,0.3217,0.2608,0.2484,0.2367,0.2003,0.2003,0.2003,0.2003,0.2003,0.2003,0.1877,0.1126,0.0751,0.0626,-0.0125,-0.025,-0.025,-0.05,-0.05,-0.025,-0.0125,0.0,-0.0124,-0.0497,-0.062,-0.0739,-0.1219,-0.086,-0.0869,-0.2466,-0.3939,-0.5782,-0.8485,-0.8851,-0.8845,-0.9697,-0.9822,-0.9852,-0.9964,-1.0148,-1.0263,-1.0219,-1.0409,-1.0507,-1.0361,-1.0565,-1.0795,-1.0992,-1.1141,-1.1338,-1.1596,-1.1619,-1.1619,-1.1619,-1.1619,-1.1619,-1.1619,-1.1619,-1.1883,-1.2582,-1.3367,-1.4275,-1.5646,-1.7369,-1.8618,-1.9547,-2.1233,-2.2206,0.8049,0.7944,0.0,0.7877,0.7458,0.7144,0.7425,0.0,0.0,0.0,0.0,0.7912,0.753,0.7486,0.0,0.7082,0.7069,0.7096,0.7232,0.7154,0.7182,0.7255,0.6737,0.6448,0.6512,0.5938,0.559,0.559,0.5559,0.5541,0.5541,0.5541,0.5514,0.5459,0.5119,0.4867,0.4706,0.437,0.4167,0.3983,0.3666,0.3483,0.3316,0.3148,0.2821,0.2344,0.2329,0.2195,0.1941,0.1941,0.1941,0.1941,0.1954,0.1958,0.196,0.1479,0.1359,0.1359,0.0988,0.0741,0.0741,0.0741,0.0738,0.0734,0.0122,0.0,0.0,0.0,0.0,0.0,0.0,0.0,-0.0243,-0.0975,-0.2451,-0.4306,-0.7258,-0.7994,-0.848,-0.9457,-0.97,-0.9869,-1.0022,-1.0127,-1.0188,-1.0188,-1.0276,-1.0341,-1.0337,-1.046,-1.0626,-1.0836,-1.104,-1.1287,-1.1592,-1.1619,-1.1619,-1.1619,-1.1619,-1.1619,-1.1619,-1.1619,-1.1904,-1.2504,-1.2653,-1.3405,-1.4661,-1.5871,-1.694,-1.8025,-2.0075,-2.1187,0.8806,0.0,0.0,0.8742,0.8152,0.0,0.7801,0.0,0.0,0.8011,0.0,0.7942,0.7646,0.735,0.7241,0.718,0.702,0.6899,0.7124,0.7154,0.7154,0.7154,0.6686,0.6408,0.6408,0.5838,0.5496,0.5496,0.5424,0.5382,0.5382,0.5382,0.5382,0.5382,0.5154,0.4927,0.4918,0.4693,0.4578,0.4571,0.4307,0.3771,0.3206,0.2724,0.2304,0.1967,0.1939,0.1911,0.1886,0.1886,0.1886,0.1889,0.1916,0.1927,0.193,0.1958,0.1968,0.1968,0.1968,0.1968,0.1968,0.1968,0.1949,0.1565,0.0361,0.0,0.0,0.0,0.0,0.0,0.0,0.0,0.0,0.0,-0.097,-0.2574,-0.5269,-0.686,-0.7961,-0.907,-0.9559,-0.9859,-1.0039,-1.0059,-1.0056,-1.008,-1.012,-1.0212,-1.0385,-1.0334,-1.0382,-1.0653,-1.0968,-1.1287,-1.1592,-1.1619,-1.1619,-1.1619,-1.1619,-1.1619,-1.1619,-1.1619,-1.1759,-1.2057,-1.206,-1.2357,-1.312,-1.4184,-1.5254,-1.619,-1.881,-2.0151,0.884,0.8847,0.0,0.0,0.8723,0.8259,0.8031,0.7991,0.7997,0.8031,0.8038,0.7839,0.7341,0.7327,0.7247,0.6987,0.6883,0.6994,0.7135,0.7154,0.7154,0.7154,0.6735,0.6305,0.6305,0.5745,0.5408,0.5408,0.5392,0.5382,0.5382,0.5382,0.5382,0.5382,0.5382,0.5234,0.5164,0.5052,0.5019,0.0,0.4433,0.3928,0.343,0.2897,0.2372,0.1905,0.1898,0.1892,0.1886,0.1886,0.1886,0.1887,0.1893,0.1896,0.1896,0.1903,0.1905,0.1905,0.1905,0.1667,0.1309,0.1786,0.1307,0.0355,0.0118,0.0,0.0,0.0,0.0,0.0,0.0,0.0,0.0,0.0,-0.0588,-0.2021,-0.4988,-0.5932,-0.6781,-0.8784,-0.9287,-0.9529,-1.0161,-1.0131,-1.0117,-1.031,-1.0351,-1.0344,-1.0314,-1.0293,-1.0304,-1.0368,-1.0846,-1.1287,-1.1592,-1.1619,-1.1619,-1.1619,-1.1619,-1.1619,-1.1619,-1.1619,-1.1759,-1.2057,-1.206,-1.2357,-1.312,-1.3733,-1.4503,-1.5735,-1.7297,-1.8632,0.9313,0.0,0.0,0.8841,0.0,0.8528,0.812,0.8038,0.8038,0.8038,0.8038,0.7839,0.7338,0.7296,0.7184,0.6799,0.6817,0.694,0.7056,0.7073,0.7073,0.7073,0.6587,0.6122,0.6122,0.5578,0.5251,0.5251,0.5251,0.5251,0.5251,0.5251,0.5251,0.5251,0.5251,0.5228,0.5179,0.5179,0.5155,0.5108,0.4579,0.3852,0.3029,0.2504,0.2096,0.1864,0.1864,0.1855,0.1842,0.1842,0.1842,0.1844,0.1858,0.1864,0.1866,0.1881,0.1886,0.1886,0.1886,0.1532,0.106,0.106,0.0586,0.0,0.0,0.0,0.0,0.0,0.0,0.0,0.0,0.0,0.0,0.0,-0.0463,-0.1649,-0.4469,-0.5405,-0.6235,-0.8298,-0.8784,-0.9016,-0.9503,-0.9699,-0.9843,-1.0127,-1.0134,-1.0117,-1.0066,-1.031,-1.049,-1.049,-1.0768,-1.1131,-1.1582,-1.1619,-1.1619,-1.1619,-1.1619,-1.1619,-1.1619,-1.1619,-1.1759,-1.2057,-1.206,-1.2357,-1.2811,-1.2965,-1.3583,-1.4507,-1.5565,-1.669,0.9478,0.0,0.9223,0.854,0.8538,0.0,0.8124,0.8038,0.8038,0.8038,0.8038,0.7839,0.7338,0.7256,0.7107,0.6705,0.6722,0.6836,0.694,0.6953,0.6953,0.6953,0.6437,0.5955,0.5955,0.5426,0.5108,0.5108,0.5108,0.5108,0.5108,0.5108,0.5108,0.5108,0.5108,0.51,0.5086,0.5086,0.5077,0.5061,0.4432,0.3595,0.2549,0.1997,0.1815,0.1825,0.1825,0.1813,0.1795,0.1795,0.1795,0.1797,0.1823,0.1833,0.1836,0.1861,0.187,0.187,0.187,0.1519,0.0818,0.0234,0.0,0.0,0.0,0.0,0.0,0.0,0.0,0.0,0.0,0.0,0.0,0.0,-0.0458,-0.1518,-0.3967,-0.5011,-0.5942,-0.7594,-0.8332,-0.8667,-0.889,-0.9199,-0.9516,-0.9724,-0.9822,-0.9859,-0.9961,-1.0412,-1.0721,-1.0721,-1.0812,-1.1077,-1.1575,-1.1619,-1.1619,-1.1619,-1.1619,-1.1619,-1.1619,-1.1619,-1.1752,-1.2033,-1.2054,-1.2206,-1.2501,-1.2501,-1.2656,-1.312,-1.4184,-1.4948,0.8163,0.0,0.8611,0.0,0.8464,0.8383,0.0,0.0,0.8038,0.0,0.8038,0.7839,0.7338,0.7336,0.7217,0.6719,0.6722,0.6806,0.6825,0.6825,0.6825,0.6825,0.6389,0.5955,0.5955,0.5426,0.5108,0.5108,0.5108,0.5108,0.5108,0.5108,0.5108,0.5108,0.5108,0.5071,0.499,0.499,0.4949,0.4871,0.3861,0.3076,0.2499,0.1995,0.1714,0.1762,0.1762,0.1774,0.1795,0.1795,0.1795,0.1795,0.18,0.1801,0.1802,0.1806,0.1807,0.1807,0.1807,0.1468,0.079,0.0226,0.0,0.0,0.0,0.0,0.0,0.0,0.0,0.0,0.0,0.0,0.0,0.0,-0.045,-0.158,-0.3947,-0.4622,-0.5316,-0.7448,-0.8344,-0.8738,-0.8853,-0.9125,-0.9364,-0.9704,-0.9822,-1.0008,-1.0534,-1.067,-1.0721,-1.0721,-1.1189,-1.1531,-1.1613,-1.1619,-1.1619,-1.1619,-1.1619,-1.1619,-1.1619,-1.1619,-1.1721,-1.1935,-1.202,-1.2206,-1.2501,-1.2501,-1.2656,-1.3123,-1.3583,-1.4353,0.7343,0.7926,0.8462,0.0,0.8475,0.8494,0.8351,0.0,0.8136,0.8021,0.8038,0.7839,0.7338,0.7287,0.7125,0.6617,0.6619,0.67,0.67,0.67,0.67,0.67,0.6331,0.5985,0.5777,0.5366,0.506,0.4955,0.4955,0.4955,0.4955,0.4955,0.4955,0.4955,0.4955,0.4937,0.4896,0.4847,0.468,0.4203,0.3657,0.3094,0.2615,0.2137,0.1774,0.1725,0.1742,0.1748,0.1747,0.1781,0.1785,0.1771,0.1789,0.1795,0.1795,0.1795,0.1795,0.1795,0.1795,0.157,0.1234,0.0336,0.0,0.0,0.0,0.0,0.0,0.0,0.0,0.0,0.0,0.0,0.0,0.0,-0.0449,-0.1569,-0.3923,-0.4482,-0.5048,-0.711,-0.7735,-0.7956,-0.7955,-0.8236,-0.8723,-0.9697,-0.9822,-1.0039,-1.0643,-1.0721,-1.0721,-1.0721,-1.126,-1.1619,-1.1619,-1.1307,-1.126,-1.1599,-1.1619,-1.1619,-1.1619,-1.1619,-1.1738,-1.1993,-1.204,-1.2206,-1.2501,-1.2501,-1.2656,-1.2811,-1.2969,-1.3274,0.6587,0.7306,0.797,0.8098,0.8228,0.8428,0.0,0.0,0.8083,0.0,0.7957,0.7783,0.7387,0.7316,0.7138,0.6639,0.6617,0.6677,0.6573,0.6573,0.6562,0.6535,0.615,0.5899,0.5695,0.5399,0.5112,0.4935,0.4834,0.4834,0.4834,0.4834,0.4834,0.4834,0.4834,0.4824,0.4804,0.4716,0.4448,0.3908,0.3675,0.331,0.2727,0.2276,0.1921,0.1766,0.1715,0.1725,0.1708,0.1761,0.1765,0.174,0.1763,0.1776,0.1783,0.1783,0.1789,0.1795,0.1795,0.1795,0.1683,0.0785,0.0224,0.0,0.0,0.0,0.0,0.0,0.0,-0.0112,-0.0336,-0.0449,-0.0336,-0.0112,-0.0785,-0.2018,-0.426,-0.4946,-0.5622,-0.6937,-0.7282,-0.7342,-0.7182,-0.7453,-0.809,-0.9191,-0.9576,-1.0039,-1.0643,-1.0721,-1.0588,-1.0187,-1.0981,-1.1619,-1.1619,-1.1067,-1.0978,-1.1582,-1.1619,-1.1619,-1.1619,-1.1691,-1.1837,-1.2057,-1.2101,-1.2247,-1.2501,-1.2501,-1.2501,-1.2501,-1.2501,-1.2501,0.5868,0.6219,0.6689,0.7618,0.7772,0.0,0.0,0.0,0.7889,0.7897,0.7822,0.7727,0.744,0.7454,0.7444,0.6845,0.6751,0.6651,0.6448,0.6445,0.6404,0.6301,0.6081,0.5881,0.5881,0.5394,0.5138,0.5133,0.4937,0.4834,0.4834,0.4834,0.4834,0.4834,0.4834,0.4796,0.4716,0.4624,0.448,0.4189,0.3906,0.3528,0.2958,0.239,0.2107,0.1928,0.1761,0.1705,0.1707,0.1739,0.1734,0.1707,0.1708,0.1727,0.1752,0.1752,0.177,0.1795,0.1795,0.1795,0.1795,0.1683,0.0897,0.0,0.0,0.0,0.0,0.0,0.0,-0.0224,-0.1458,-0.1683,-0.1458,-0.0224,-0.1458,-0.3366,-0.5037,-0.6343,-0.7177,-0.7176,-0.7282,-0.7342,-0.7182,-0.7176,-0.7459,-0.7922,-0.8967,-1.0039,-1.0643,-1.0721,-1.0187,-0.8853,-1.042,-1.1619,-1.1619,-1.1067,-1.0978,-1.1582,-1.1619,-1.1619,-1.1619,-1.1891,-1.2047,-1.206,-1.2203,-1.2352,-1.2501,-1.2501,-1.2501,-1.2501,-1.2501,-1.2501,0.4819,0.5379,0.0,0.6432,0.6877,0.7291,0.7546,0.7773,0.7841,0.7773,0.7847,0.7767,0.758,0.7586,0.7447,0.6845,0.6845,0.6716,0.6339,0.6328,0.6285,0.6165,0.6123,0.6071,0.5874,0.564,0.5399,0.5238,0.4937,0.4834,0.4834,0.4834,0.481,0.4755,0.4753,0.4681,0.4534,0.45,0.4272,0.4034,0.399,0.3642,0.318,0.2842,0.2592,0.2433,0.2026,0.1842,0.1624,0.1692,0.1703,0.1679,0.1697,0.1711,0.172,0.172,0.1727,0.174,0.1759,0.1766,0.1769,0.1789,0.1458,0.1009,0.0224,0.0,0.0,0.0,0.0,-0.0224,-0.1458,-0.1795,-0.2019,-0.2691,-0.4415,-0.5919,-0.6396,-0.6964,-0.7206,-0.7163,-0.7201,-0.732,-0.7573,-0.7614,-0.7674,-0.7845,-0.8511,-0.9432,-1.0561,-0.9921,-0.912,-0.872,-0.9579,-1.0462,-1.1476,-1.1423,-1.1389,-1.1606,-1.1619,-1.1619,-1.1619,-1.1721,-1.1955,-1.2335,-1.2271,-1.2322,-1.2501,-1.2501,-1.2501,-1.2501,-1.2501,-1.2501,0.4181,0.4762,0.0,0.0,0.0,0.6769,0.6903,0.7278,0.7537,0.7523,0.7628,0.7721,0.7444,0.7502,0.7501,0.7009,0.6911,0.6781,0.641,0.6302,0.6272,0.6097,0.6157,0.6206,0.601,0.5689,0.5436,0.5241,0.4944,0.0,0.4747,0.4747,0.4722,0.4665,0.4632,0.4559,0.4436,0.4404,0.427,0.4036,0.4089,0.3932,0.3481,0.3248,0.3021,0.2792,0.2261,0.1983,0.1692,0.1662,0.1673,0.1649,0.1667,0.1681,0.169,0.169,0.1696,0.1708,0.1739,0.175,0.1755,0.1785,0.1795,0.1683,0.0897,0.0336,0.0,0.0,0.0,-0.0224,-0.1234,-0.2708,-0.3971,-0.4299,-0.5961,-0.7404,-0.7072,-0.7182,-0.7282,-0.7176,-0.7285,-0.7497,-0.7815,-0.7872,-0.7926,-0.8087,-0.8383,-0.8987,-0.9921,-0.912,-0.8587,-0.8587,-0.8872,-0.9556,-1.0734,-1.1329,-1.1619,-1.1619,-1.1619,-1.1619,-1.1619,-1.1619,-1.1806,-1.2199,-1.2267,-1.2369,-1.2501,-1.2501,-1.2501,-1.2501,-1.2501,-1.2501,0.0,0.0,0.0,0.0,0.0,0.0,0.6584,0.0,0.6918,0.7025,0.7323,0.7394,0.7129,0.7373,0.748,0.7195,0.7205,0.7023,0.6452,0.6355,0.6355,0.6075,0.6078,0.6081,0.6081,0.5611,0.5329,0.5329,0.4856,0.4573,0.4573,0.4571,0.4569,0.4569,0.4479,0.443,0.443,0.4342,0.43,0.43,0.43,0.4123,0.3859,0.3678,0.3356,0.2962,0.2456,0.2145,0.2023,0.1751,0.1643,0.1617,0.1617,0.1635,0.1661,0.1661,0.1679,0.1707,0.1737,0.1749,0.1755,0.1785,0.1795,0.1795,0.1795,0.1009,0.0,0.0,0.0,-0.0112,-0.0785,-0.4334,-0.7196,-0.4712,-0.5918,-0.728,-0.6689,-0.7105,-0.7546,-0.7236,-0.7551,-0.7872,-0.7872,-0.7872,-0.8035,-0.8516,-0.8587,-0.8592,-0.8606,-0.8609,-0.8609,-0.8609,-0.8609,-0.8796,-0.9264,-1.0606,-1.1619,-1.1619,-1.1619,-1.1619,-1.1619,-1.1619,-1.1619,-1.1619,-1.2199,-1.2501,-1.2501,-1.2501,-1.2501,-1.2501,-1.2501,-1.2501,0.3716,0.0,0.0,0.0,0.0,0.0,0.0,0.0,0.6533,0.6511,0.6894,0.7109,0.6888,0.6892,0.6987,0.7007,0.7106,0.6992,0.6432,0.6325,0.6202,0.5841,0.5904,0.5953,0.5953,0.5756,0.5521,0.0,0.5043,0.4759,0.4573,0.451,0.4473,0.4473,0.4383,0.4336,0.4336,0.4312,0.43,0.43,0.43,0.4123,0.3859,0.3857,0.3629,0.3236,0.2883,0.2671,0.2477,0.1919,0.1624,0.1617,0.1617,0.1622,0.1629,0.1629,0.1648,0.1678,0.1709,0.1733,0.1755,0.1785,0.1795,0.1795,0.1795,0.157,0.1121,0.0224,0.0,-0.0112,-0.0785,-0.3153,-0.5205,-0.4064,-0.5608,-0.7396,-0.7053,-0.7426,-0.7777,-0.769,-0.778,-0.7872,-0.7872,-0.7872,-0.8035,-0.8516,-0.8587,-0.8712,-0.906,-0.9106,-0.9106,-0.9106,-0.9106,-0.9158,-0.9294,-0.9738,-1.0462,-1.1476,-1.1619,-1.1619,-1.1619,-1.1619,-1.1619,-1.1619,-1.2199,-1.2501,-1.2501,-1.2501,-1.2501,-1.2501,-1.2501,-1.2501,0.4039,0.0,0.0,0.0,0.0,0.0,0.4621,0.5242,0.5791,0.0,0.6478,0.6775,0.6699,0.6631,0.6623,0.6713,0.6826,0.6782,0.6382,0.6248,0.6051,0.573,0.5793,0.585,0.5899,0.5786,0.5528,0.5386,0.5101,0.4899,0.468,0.4587,0.4444,0.4353,0.4301,0.4274,0.4189,0.4189,0.4189,0.4189,0.4189,0.4104,0.3932,0.3969,0.3851,0.3564,0.3316,0.3012,0.2813,0.2161,0.1794,0.1718,0.1617,0.1617,0.1617,0.1617,0.1628,0.165,0.1692,0.1717,0.1737,0.1781,0.1795,0.1795,0.1795,0.1795,0.1683,0.0897,0.0224,-0.0561,-0.1121,-0.2934,-0.4545,-0.4088,-0.5807,-0.7568,-0.7472,-0.7674,-0.7872,-0.7872,-0.7872,-0.7872,-0.7872,-0.8038,-0.8263,-0.8546,-0.8587,-0.8687,-0.897,-0.9005,-0.9005,-0.9005,-0.9185,-0.9304,-0.9304,-0.9304,-0.9738,-1.0606,-1.0606,-1.0606,-1.0606,-1.1329,-1.1619,-1.1619,-1.2199,-1.2501,-1.2501,-1.2501,-1.2501,-1.2501,-1.2501,-1.2501,0.4683,0.4658,0.0,0.0,0.4118,0.0,0.4321,0.4562,0.4956,0.0,0.591,0.6257,0.6432,0.6385,0.6335,0.6349,0.6405,0.6394,0.6235,0.6102,0.5954,0.5667,0.5692,0.5733,0.5833,0.5665,0.5536,0.5343,0.5154,0.4937,0.4762,0.4753,0.4617,0.4365,0.4279,0.4197,0.4034,0.4036,0.4036,0.4036,0.4036,0.4036,0.4038,0.412,0.4031,0.3848,0.3737,0.3443,0.3038,0.2471,0.2138,0.2009,0.1707,0.1609,0.1612,0.1612,0.1616,0.1629,0.1682,0.1701,0.1714,0.1771,0.179,0.1791,0.1794,0.1795,0.1795,0.1795,0.0449,-0.1121,-0.1683,-0.3301,-0.4735,-0.4266,-0.6046,-0.7807,-0.7858,-0.775,-0.7627,-0.7627,-0.775,-0.7872,-0.7872,-0.8225,-0.8524,-0.8579,-0.8587,-0.8587,-0.8587,-0.8587,-0.8587,-0.8587,-0.897,-0.9247,-0.9299,-0.9304,-0.9304,-0.9304,-0.9304,-0.9304,-0.9304,-1.0606,-1.1506,-1.1718,-1.2233,-1.2501,-1.2501,-1.2501,-1.2501,-1.2501,-1.2501,-1.2501,0.5148,0.5039,0.4794,0.4466,0.0,0.0,0.3737,0.4162,0.459,0.0,0.5136,0.5529,0.5542,0.5537,0.5535,0.5533,0.5616,0.5738,0.5907,0.5979,0.5886,0.5518,0.5442,0.545,0.5472,0.5474,0.5381,0.5109,0.485,0.4753,0.4734,0.4713,0.4703,0.4617,0.4448,0.4281,0.4281,0.4118,0.4036,0.4036,0.4036,0.4036,0.4036,0.4055,0.3941,0.3847,0.3776,0.3595,0.3255,0.2884,0.2454,0.193,0.164,0.1559,0.158,0.158,0.1611,0.1655,0.1667,0.1685,0.171,0.1747,0.1759,0.1763,0.1788,0.1795,0.1795,0.1795,0.0112,-0.1683,-0.1795,-0.3487,-0.4739,-0.282,-0.4874,-0.7399,-0.7788,-0.7016,-0.6283,-0.6283,-0.7138,-0.7872,-0.7872,-0.7948,-0.8141,-0.853,-0.8587,-0.8587,-0.8587,-0.8587,-0.8587,-0.8587,-0.8671,-0.8883,-0.9272,-0.9304,-0.9304,-0.9304,-0.9304,-0.9304,-0.9304,-0.9593,-1.0513,-1.2318,-1.2444,-1.2501,-1.2501,-1.2501,-1.2501,-1.2501,-1.2501,-1.2501,0.5676,0.5453,0.5017,0.4595,0.0,0.0,0.0,0.3829,0.416,0.4463,0.4809,0.5078,0.5281,0.527,0.518,0.514,0.5172,0.5213,0.5306,0.5594,0.5781,0.551,0.5445,0.5468,0.5363,0.5368,0.5368,0.5204,0.5067,0.4951,0.4951,0.4846,0.4706,0.4624,0.4415,0.4233,0.4075,0.3921,0.3866,0.383,0.383,0.3854,0.3901,0.3946,0.3908,0.3872,0.3959,0.3871,0.3501,0.3354,0.2916,0.2287,0.1885,0.1728,0.1742,0.1645,0.1568,0.1598,0.1629,0.1649,0.1668,0.1712,0.1737,0.1752,0.1767,0.1783,0.1683,0.1121,-0.0112,-0.1458,-0.2469,-0.3366,-0.3813,-0.2915,-0.4592,-0.6611,-0.7645,-0.6896,-0.562,-0.4856,-0.591,-0.7138,-0.775,-0.7872,-0.8035,-0.8516,-0.8587,-0.8587,-0.8587,-0.8587,-0.8587,-0.8587,-0.8587,-0.8685,-0.8927,-0.9166,-0.9304,-0.9304,-0.9304,-0.9304,-0.9304,-0.9304,-0.9854,-1.0856,-1.0859,-1.1447,-1.2501,-1.2206,-1.2213,-1.2501,-1.2501,-1.2501,0.0,0.0,0.0,0.0,0.0,0.3765,0.0,0.0,0.0,0.4256,0.4556,0.0,0.0,0.0,0.0,0.0,0.0,0.0,0.0,0.5142,0.0,0.5329,0.5367,0.5337,0.53,0.5233,0.5222,0.5197,0.5105,0.5048,0.5048,0.489,0.4723,0.4572,0.4413,0.415,0.393,0.3855,0.3747,0.3674,0.3618,0.3665,0.374,0.3832,0.3883,0.3908,0.4057,0.4042,0.3804,0.3694,0.3333,0.2782,0.2204,0.1879,0.1886,0.1603,0.1516,0.1533,0.1582,0.1599,0.1609,0.1668,0.1716,0.175,0.175,0.166,0.1346,0.0112,-0.0561,-0.1346,-0.3144,-0.3255,-0.303,-0.3475,-0.4484,-0.5799,-0.7176,-0.6533,-0.537,-0.3852,-0.4843,-0.6285,-0.7625,-0.7872,-0.8035,-0.8516,-0.8587,-0.8587,-0.8587,-0.8587,-0.8587,-0.8587,-0.8587,-0.8587,-0.8587,-0.8943,-0.9207,-0.9299,-0.9304,-0.9304,-0.9304,-0.9304,-0.9304,-0.9304,-0.9304,-1.0081,-1.187,-1.1703,-1.201,-1.2789,-1.2909,-1.3421,0.0,0.0,0.0,0.0,0.4301,0.0,0.0,0.0,0.3718,0.3778,0.0,0.0,0.0,0.0,0.0,0.0,0.0,0.0,0.4141,0.4492,0.48,0.4781,0.4768,0.4816,0.4795,0.4809,0.4762,0.458,0.4558,0.455,0.455,0.4629,0.4673,0.4673,0.4447,0.4297,0.4225,0.393,0.3787,0.3801,0.3661,0.3632,0.3644,0.3736,0.3824,0.3901,0.3922,0.381,0.3712,0.3722,0.3384,0.288,0.2349,0.1956,0.1808,0.1536,0.148,0.1527,0.1534,0.1536,0.1546,0.1607,0.1682,0.175,0.175,0.1217,0.0336,-0.0561,-0.1345,-0.2241,-0.3367,-0.3591,-0.3475,-0.3587,-0.4484,-0.5504,-0.5658,-0.5554,-0.509,-0.3817,-0.4843,-0.6285,-0.7625,-0.7872,-0.8035,-0.8516,-0.8587,-0.8587,-0.8587,-0.8587,-0.8587,-0.8587,-0.8587,-0.8587,-0.8587,-0.8638,-0.8851,-0.9277,-0.9304,-0.9304,-0.9304,-0.9304,-0.9304,-0.9304,-0.9304,-0.9476,-0.9675,-1.0925,-1.237,-1.375,-1.437,-1.7088,0.0,0.0,0.0,0.0,0.0,0.0,0.3289,0.0,0.3702,0.0,0.0,0.0,0.0,0.0,0.0,0.0,0.385,0.0,0.0,0.0,0.417,0.0,0.0,0.0,0.4505,0.4507,0.4469,0.4278,0.4265,0.4265,0.4265,0.4382,0.445,0.445,0.4381,0.4242,0.4102,0.3961,0.3853,0.3697,0.3596,0.3597,0.3628,0.3667,0.3734,0.3824,0.3877,0.384,0.3794,0.3845,0.3671,0.3301,0.2914,0.2562,0.2115,0.185,0.1886,0.1938,0.1867,0.1875,0.1891,0.189,0.1745,0.1574,0.1177,0.0327,-0.0552,-0.1437,-0.2321,-0.3102,-0.3469,-0.3589,-0.3587,-0.3587,-0.4035,-0.4372,-0.4372,-0.4372,-0.426,-0.3699,-0.4255,-0.4933,-0.5421,-0.6283,-0.6832,-0.7005,-0.703,-0.7374,-0.8419,-0.8587,-0.8587,-0.8587,-0.8587,-0.8587,-0.8587,-0.8587,-0.8793,-0.9272,-0.9304,-0.9304,-0.9304,-0.9304,-0.9304,-0.9304,-1.0173,-1.0606,-1.0606,-1.2187,-1.4181,-1.6613,-1.8351,-2.0285,0.7285,0.0,0.0,0.0,0.0,0.0,0.0,0.0,0.0,0.0,0.0,0.0,0.0,0.0,0.0,0.0,0.0,0.3685,0.0,0.3493,0.0,0.0,0.0,0.0,0.0,0.4276,0.4224,0.3988,0.0,0.4004,0.3974,0.4115,0.4216,0.4249,0.4249,0.4199,0.4097,0.4028,0.3934,0.3733,0.3622,0.3566,0.3626,0.3579,0.364,0.373,0.3795,0.3838,0.3867,0.3934,0.3757,0.3538,0.3376,0.3051,0.2564,0.2321,0.2271,0.2321,0.237,0.2303,0.2145,0.2045,0.1696,0.1117,0.0417,-0.0535,-0.142,-0.2284,-0.2953,-0.3529,-0.3537,-0.3564,-0.3587,-0.3587,-0.3587,-0.3587,-0.3587,-0.3587,-0.3587,-0.3587,-0.3785,-0.3951,-0.3951,-0.4689,-0.5302,-0.5302,-0.5671,-0.6547,-0.8395,-0.8587,-0.8587,-0.8587,-0.8587,-0.8587,-0.8587,-0.8587,-0.8793,-0.9272,-0.9304,-0.9304,-0.9304,-0.9304,-0.9449,-0.9882,-1.1896,-1.2904,-1.2904,-1.4043,-1.5886,-1.8455,-2.0735,-2.1903,0.0,0.0,0.0,0.4585,0.0,0.0,0.0,0.0,0.375,0.0,0.0,0.0,0.0,0.0,0.0,0.0,0.0,0.0,0.0,0.0,0.0,0.0,0.0,0.0,0.0,0.3888,0.3854,0.0,0.376,0.3773,0.3607,0.3822,0.4001,0.4121,0.4124,0.4181,0.43,0.4097,0.403,0.3966,0.3728,0.3567,0.3576,0.3532,0.355,0.363,0.3634,0.3685,0.3767,0.3771,0.369,0.353,0.353,0.3347,0.3107,0.2841,0.2648,0.2707,0.285,0.2547,0.2222,0.2042,0.1255,0.0303,-0.0506,-0.1365,-0.2289,-0.3109,-0.3388,-0.3559,-0.3447,-0.3501,-0.3587,-0.3587,-0.3587,-0.3587,-0.3587,-0.3587,-0.3587,-0.3587,-0.3785,-0.3951,-0.3951,-0.3951,-0.395,-0.395,-0.5056,-0.6547,-0.8395,-0.8587,-0.8587,-0.8587,-0.8587,-0.8587,-0.8587,-0.8587,-0.8793,-0.9272,-0.9304,-0.9304,-0.9304,-0.9304,-1.0026,-1.1476,-1.447,-1.6037,-1.6037,-1.6042,-1.6885,-1.8433,-2.0005,-2.1003,0.0,0.0,0.6278,0.5514,0.0,0.0,0.0,0.0,0.0,0.0,0.0,0.0,0.0,0.0,0.0,0.0,0.0,0.0,0.0,0.0,0.0,0.0,0.0,0.0,0.0,0.0,0.0,0.0,0.3498,0.0,0.0,0.3729,0.3833,0.3876,0.4034,0.4137,0.4181,0.4113,0.402,0.4028,0.3789,0.371,0.3565,0.36,0.3526,0.3546,0.3601,0.3644,0.3677,0.3738,0.3763,0.3684,0.3684,0.3624,0.3589,0.3233,0.3154,0.3224,0.3114,0.2884,0.2546,0.1843,0.0751,-0.0479,-0.1081,-0.2025,-0.2911,-0.3242,-0.338,-0.3412,-0.3413,-0.3382,-0.335,-0.335,-0.3471,-0.3587,-0.3587,-0.3587,-0.3587,-0.3587,-0.3654,-0.3762,-0.3922,-0.3951,-0.3951,-0.3951,-0.5058,-0.6083,-0.671,-0.7089,-0.7254,-0.7254,-0.7254,-0.7254,-0.7254,-0.8056,-0.8655,-0.8818,-0.8829,-0.8973,-0.9291,-1.0314,-1.204,-1.4613,-1.5612,-1.6183,-1.6183,-1.6183,-1.7026,-1.8433,-1.8993,-1.9503,0.9688,0.8397,0.0,0.6444,0.5625,0.0,0.4582,0.0,0.0,0.0,0.0,0.0,0.0,0.0,0.0,0.0,0.0,0.0,0.0,0.2598,0.0,0.0,0.0,0.0,0.0,0.0,0.3403,0.3284,0.3354,0.0,0.0,0.0,0.3724,0.3809,0.3947,0.4075,0.4118,0.4162,0.4156,0.4095,0.3954,0.3794,0.3721,0.3584,0.357,0.3524,0.3509,0.3552,0.3589,0.3677,0.3714,0.3718,0.375,0.3763,0.3785,0.3635,0.3681,0.3696,0.3301,0.2959,0.2427,0.1367,0.0092,-0.1116,-0.1907,-0.2656,-0.3234,-0.3252,-0.3293,-0.3334,-0.3345,-0.3289,-0.323,-0.323,-0.3413,-0.3587,-0.3587,-0.3587,-0.3587,-0.3587,-0.3587,-0.3636,-0.3794,-0.3894,-0.3951,-0.3951,-0.4689,-0.5179,-0.5179,-0.5356,-0.5657,-0.577,-0.5783,-0.5917,-0.6453,-0.7789,-0.8587,-0.8587,-0.8587,-0.8996,-0.9736,-1.2062,-1.4065,-1.5744,-1.6032,-1.6183,-1.6183,-1.6183,-1.6749,-1.759,-1.759,-1.7866]}]]